<?xml version="1.0" encoding="UTF-8" standalone="no" ?>
<gpx xmlns="http://www.topografix.com/GPX/1/1" xmlns:xsi="http://www.w3.org/2001/XMLSchema-instance" xsi:schemaLocation="http://www.topografix.com/GPX/1/1 http://www.topografix.com/GPX/1/1/gpx.xsd" version="1.1" creator="VisuGPX - https://www.visugpx.com">
  <metadata>
    <name>Sommet et tour du cap gros</name>
    <desc><![CDATA[boucle au départ de valbertrand (vallon des bonnes herbes) qui permet de faire le tour et le sommet du cap gros (baou).Montée par dfci et descentes par sentiers ... attention pas toujours simples (cailloux, marches)]]></desc>
  </metadata>
  <trk>
    <name><![CDATA[Tracé]]></name>
    <trkseg>
      <trkpt lat="43.14174" lon="5.89215">
        <ele>46.6</ele>
        <time>2022-01-24T12:27:28Z</time>
      </trkpt>
      <trkpt lat="43.14163" lon="5.89189">
        <ele>47</ele>
        <time>2022-01-24T12:27:34Z</time>
      </trkpt>
      <trkpt lat="43.14154" lon="5.89171">
        <ele>47.4</ele>
        <time>2022-01-24T12:27:38Z</time>
      </trkpt>
      <trkpt lat="43.14124" lon="5.89112">
        <ele>46.8</ele>
        <time>2022-01-24T12:27:50Z</time>
      </trkpt>
      <trkpt lat="43.14115" lon="5.89095">
        <ele>46.6</ele>
        <time>2022-01-24T12:27:53Z</time>
      </trkpt>
      <trkpt lat="43.14099" lon="5.89057">
        <ele>46</ele>
        <time>2022-01-24T12:28:00Z</time>
      </trkpt>
      <trkpt lat="43.14088" lon="5.89029">
        <ele>45.6</ele>
        <time>2022-01-24T12:28:05Z</time>
      </trkpt>
      <trkpt lat="43.141" lon="5.89011">
        <ele>45.2</ele>
        <time>2022-01-24T12:28:10Z</time>
      </trkpt>
      <trkpt lat="43.14143" lon="5.88996">
        <ele>45.6</ele>
        <time>2022-01-24T12:28:22Z</time>
      </trkpt>
      <trkpt lat="43.14162" lon="5.8899">
        <ele>46.4</ele>
        <time>2022-01-24T12:28:28Z</time>
      </trkpt>
      <trkpt lat="43.14178" lon="5.88986">
        <ele>47.2</ele>
        <time>2022-01-24T12:28:33Z</time>
      </trkpt>
      <trkpt lat="43.14196" lon="5.88966">
        <ele>48.4</ele>
        <time>2022-01-24T12:28:40Z</time>
      </trkpt>
      <trkpt lat="43.142" lon="5.88935">
        <ele>49.6</ele>
        <time>2022-01-24T12:28:47Z</time>
      </trkpt>
      <trkpt lat="43.14202" lon="5.8888">
        <ele>50</ele>
        <time>2022-01-24T12:28:58Z</time>
      </trkpt>
      <trkpt lat="43.14198" lon="5.88862">
        <ele>50.4</ele>
        <time>2022-01-24T12:29:02Z</time>
      </trkpt>
      <trkpt lat="43.14212" lon="5.88802">
        <ele>51.2</ele>
        <time>2022-01-24T12:29:14Z</time>
      </trkpt>
      <trkpt lat="43.14223" lon="5.88786">
        <ele>51.4</ele>
        <time>2022-01-24T12:29:18Z</time>
      </trkpt>
      <trkpt lat="43.14246" lon="5.88754">
        <ele>52.4</ele>
        <time>2022-01-24T12:29:27Z</time>
      </trkpt>
      <trkpt lat="43.14252" lon="5.88737">
        <ele>53.4</ele>
        <time>2022-01-24T12:29:31Z</time>
      </trkpt>
      <trkpt lat="43.14274" lon="5.88682">
        <ele>54.4</ele>
        <time>2022-01-24T12:29:44Z</time>
      </trkpt>
      <trkpt lat="43.14289" lon="5.8865">
        <ele>55.2</ele>
        <time>2022-01-24T12:29:52Z</time>
      </trkpt>
      <trkpt lat="43.14304" lon="5.88621">
        <ele>56.2</ele>
        <time>2022-01-24T12:30:00Z</time>
      </trkpt>
      <trkpt lat="43.14323" lon="5.88581">
        <ele>57.2</ele>
        <time>2022-01-24T12:30:11Z</time>
      </trkpt>
      <trkpt lat="43.14335" lon="5.88556">
        <ele>58.4</ele>
        <time>2022-01-24T12:30:18Z</time>
      </trkpt>
      <trkpt lat="43.14348" lon="5.88529">
        <ele>59.6</ele>
        <time>2022-01-24T12:30:25Z</time>
      </trkpt>
      <trkpt lat="43.14361" lon="5.88502">
        <ele>60.6</ele>
        <time>2022-01-24T12:30:32Z</time>
      </trkpt>
      <trkpt lat="43.1438" lon="5.88452">
        <ele>61.6</ele>
        <time>2022-01-24T12:30:44Z</time>
      </trkpt>
      <trkpt lat="43.14394" lon="5.88411">
        <ele>62.2</ele>
        <time>2022-01-24T12:30:54Z</time>
      </trkpt>
      <trkpt lat="43.14408" lon="5.88394">
        <ele>62.6</ele>
        <time>2022-01-24T12:31:00Z</time>
      </trkpt>
      <trkpt lat="43.14427" lon="5.8837">
        <ele>63.6</ele>
        <time>2022-01-24T12:31:08Z</time>
      </trkpt>
      <trkpt lat="43.14448" lon="5.88342">
        <ele>64.6</ele>
        <time>2022-01-24T12:31:17Z</time>
      </trkpt>
      <trkpt lat="43.14467" lon="5.88319">
        <ele>65.6</ele>
        <time>2022-01-24T12:31:25Z</time>
      </trkpt>
      <trkpt lat="43.14488" lon="5.88307">
        <ele>67</ele>
        <time>2022-01-24T12:31:33Z</time>
      </trkpt>
      <trkpt lat="43.14506" lon="5.88302">
        <ele>68</ele>
        <time>2022-01-24T12:31:39Z</time>
      </trkpt>
      <trkpt lat="43.14518" lon="5.88296">
        <ele>68.6</ele>
        <time>2022-01-24T12:31:43Z</time>
      </trkpt>
      <trkpt lat="43.14531" lon="5.88291">
        <ele>69</ele>
        <time>2022-01-24T12:31:47Z</time>
      </trkpt>
      <trkpt lat="43.14552" lon="5.8828">
        <ele>70</ele>
        <time>2022-01-24T12:31:54Z</time>
      </trkpt>
      <trkpt lat="43.14579" lon="5.8827">
        <ele>71.2</ele>
        <time>2022-01-24T12:32:03Z</time>
      </trkpt>
      <trkpt lat="43.14603" lon="5.88254">
        <ele>72.2</ele>
        <time>2022-01-24T12:32:12Z</time>
      </trkpt>
      <trkpt lat="43.14624" lon="5.88234">
        <ele>73.4</ele>
        <time>2022-01-24T12:32:20Z</time>
      </trkpt>
      <trkpt lat="43.14643" lon="5.88203">
        <ele>74.4</ele>
        <time>2022-01-24T12:32:29Z</time>
      </trkpt>
      <trkpt lat="43.1467" lon="5.88159">
        <ele>75.4</ele>
        <time>2022-01-24T12:32:40Z</time>
      </trkpt>
      <trkpt lat="43.1468" lon="5.8814">
        <ele>76.6</ele>
        <time>2022-01-24T12:32:47Z</time>
      </trkpt>
      <trkpt lat="43.14682" lon="5.88134">
        <ele>77.2</ele>
        <time>2022-01-24T12:32:50Z</time>
      </trkpt>
      <trkpt lat="43.14682" lon="5.8813">
        <ele>77.6</ele>
        <time>2022-01-24T12:32:52Z</time>
      </trkpt>
      <trkpt lat="43.14683" lon="5.88117">
        <ele>78.8</ele>
        <time>2022-01-24T12:32:57Z</time>
      </trkpt>
      <trkpt lat="43.14683" lon="5.88099">
        <ele>79.8</ele>
        <time>2022-01-24T12:33:03Z</time>
      </trkpt>
      <trkpt lat="43.14683" lon="5.88087">
        <ele>81</ele>
        <time>2022-01-24T12:33:07Z</time>
      </trkpt>
      <trkpt lat="43.14687" lon="5.88068">
        <ele>82.2</ele>
        <time>2022-01-24T12:33:14Z</time>
      </trkpt>
      <trkpt lat="43.14689" lon="5.88057">
        <ele>83.4</ele>
        <time>2022-01-24T12:33:19Z</time>
      </trkpt>
      <trkpt lat="43.14691" lon="5.8805">
        <ele>84.2</ele>
        <time>2022-01-24T12:33:22Z</time>
      </trkpt>
      <trkpt lat="43.14693" lon="5.88049">
        <ele>84.6</ele>
        <time>2022-01-24T12:33:23Z</time>
      </trkpt>
      <trkpt lat="43.14695" lon="5.88037">
        <ele>85.6</ele>
        <time>2022-01-24T12:33:28Z</time>
      </trkpt>
      <trkpt lat="43.14695" lon="5.88031">
        <ele>86.2</ele>
        <time>2022-01-24T12:33:30Z</time>
      </trkpt>
      <trkpt lat="43.14694" lon="5.88026">
        <ele>86.6</ele>
        <time>2022-01-24T12:33:32Z</time>
      </trkpt>
      <trkpt lat="43.14692" lon="5.88005">
        <ele>87.8</ele>
        <time>2022-01-24T12:33:39Z</time>
      </trkpt>
      <trkpt lat="43.14692" lon="5.87994">
        <ele>88.8</ele>
        <time>2022-01-24T12:33:43Z</time>
      </trkpt>
      <trkpt lat="43.14694" lon="5.87967">
        <ele>90</ele>
        <time>2022-01-24T12:33:52Z</time>
      </trkpt>
      <trkpt lat="43.14699" lon="5.87948">
        <ele>91</ele>
        <time>2022-01-24T12:33:58Z</time>
      </trkpt>
      <trkpt lat="43.147" lon="5.87907">
        <ele>92</ele>
        <time>2022-01-24T12:34:09Z</time>
      </trkpt>
      <trkpt lat="43.147" lon="5.87873">
        <ele>93.2</ele>
        <time>2022-01-24T12:34:18Z</time>
      </trkpt>
      <trkpt lat="43.14701" lon="5.87842">
        <ele>94</ele>
        <time>2022-01-24T12:34:27Z</time>
      </trkpt>
      <trkpt lat="43.14699" lon="5.87792">
        <ele>95</ele>
        <time>2022-01-24T12:34:38Z</time>
      </trkpt>
      <trkpt lat="43.14694" lon="5.87718">
        <ele>96</ele>
        <time>2022-01-24T12:34:54Z</time>
      </trkpt>
      <trkpt lat="43.14694" lon="5.87707">
        <ele>96</ele>
        <time>2022-01-24T12:34:56Z</time>
      </trkpt>
      <trkpt lat="43.14711" lon="5.87635">
        <ele>97</ele>
        <time>2022-01-24T12:35:11Z</time>
      </trkpt>
      <trkpt lat="43.14715" lon="5.87621">
        <ele>103.8</ele>
        <time>2022-01-24T12:35:14Z</time>
      </trkpt>
      <trkpt lat="43.14723" lon="5.8758">
        <ele>98.2</ele>
        <time>2022-01-24T12:35:24Z</time>
      </trkpt>
      <trkpt lat="43.14728" lon="5.87538">
        <ele>99.4</ele>
        <time>2022-01-24T12:35:34Z</time>
      </trkpt>
      <trkpt lat="43.14729" lon="5.87498">
        <ele>100.2</ele>
        <time>2022-01-24T12:35:43Z</time>
      </trkpt>
      <trkpt lat="43.14728" lon="5.8747">
        <ele>101.2</ele>
        <time>2022-01-24T12:35:51Z</time>
      </trkpt>
      <trkpt lat="43.14724" lon="5.87444">
        <ele>102.4</ele>
        <time>2022-01-24T12:35:57Z</time>
      </trkpt>
      <trkpt lat="43.14719" lon="5.8741">
        <ele>103.4</ele>
        <time>2022-01-24T12:36:04Z</time>
      </trkpt>
      <trkpt lat="43.14717" lon="5.87383">
        <ele>104.4</ele>
        <time>2022-01-24T12:36:10Z</time>
      </trkpt>
      <trkpt lat="43.14714" lon="5.8735">
        <ele>105.4</ele>
        <time>2022-01-24T12:36:17Z</time>
      </trkpt>
      <trkpt lat="43.14713" lon="5.87325">
        <ele>106</ele>
        <time>2022-01-24T12:36:25Z</time>
      </trkpt>
      <trkpt lat="43.14715" lon="5.87317">
        <ele>106.4</ele>
        <time>2022-01-24T12:36:28Z</time>
      </trkpt>
      <trkpt lat="43.14715" lon="5.87302">
        <ele>106.8</ele>
        <time>2022-01-24T12:36:32Z</time>
      </trkpt>
      <trkpt lat="43.14716" lon="5.87281">
        <ele>107.6</ele>
        <time>2022-01-24T12:36:38Z</time>
      </trkpt>
      <trkpt lat="43.1472" lon="5.87248">
        <ele>108.4</ele>
        <time>2022-01-24T12:36:47Z</time>
      </trkpt>
      <trkpt lat="43.14722" lon="5.87205">
        <ele>109.4</ele>
        <time>2022-01-24T12:36:58Z</time>
      </trkpt>
      <trkpt lat="43.14725" lon="5.87177">
        <ele>110.6</ele>
        <time>2022-01-24T12:37:08Z</time>
      </trkpt>
      <trkpt lat="43.14727" lon="5.87163">
        <ele>111.8</ele>
        <time>2022-01-24T12:37:14Z</time>
      </trkpt>
      <trkpt lat="43.14732" lon="5.8715">
        <ele>113</ele>
        <time>2022-01-24T12:37:19Z</time>
      </trkpt>
      <trkpt lat="43.14736" lon="5.87137">
        <ele>114</ele>
        <time>2022-01-24T12:37:24Z</time>
      </trkpt>
      <trkpt lat="43.14736" lon="5.87136">
        <ele>115</ele>
        <time>2022-01-24T12:37:34Z</time>
      </trkpt>
      <trkpt lat="43.1474" lon="5.87097">
        <ele>116.4</ele>
        <time>2022-01-24T12:37:59Z</time>
      </trkpt>
      <trkpt lat="43.14739" lon="5.87086">
        <ele>117.6</ele>
        <time>2022-01-24T12:38:03Z</time>
      </trkpt>
      <trkpt lat="43.14739" lon="5.87075">
        <ele>118.6</ele>
        <time>2022-01-24T12:38:07Z</time>
      </trkpt>
      <trkpt lat="43.14738" lon="5.87061">
        <ele>119.8</ele>
        <time>2022-01-24T12:38:12Z</time>
      </trkpt>
      <trkpt lat="43.14737" lon="5.87051">
        <ele>120.8</ele>
        <time>2022-01-24T12:38:16Z</time>
      </trkpt>
      <trkpt lat="43.14735" lon="5.87031">
        <ele>121.8</ele>
        <time>2022-01-24T12:38:23Z</time>
      </trkpt>
      <trkpt lat="43.14734" lon="5.87011">
        <ele>122.8</ele>
        <time>2022-01-24T12:38:29Z</time>
      </trkpt>
      <trkpt lat="43.14734" lon="5.87003">
        <ele>122.8</ele>
        <time>2022-01-24T12:38:31Z</time>
      </trkpt>
      <trkpt lat="43.14739" lon="5.86958">
        <ele>123</ele>
        <time>2022-01-24T12:38:41Z</time>
      </trkpt>
      <trkpt lat="43.14738" lon="5.86926">
        <ele>123.2</ele>
        <time>2022-01-24T12:38:48Z</time>
      </trkpt>
      <trkpt lat="43.14737" lon="5.869">
        <ele>123.6</ele>
        <time>2022-01-24T12:38:54Z</time>
      </trkpt>
      <trkpt lat="43.14737" lon="5.8689">
        <ele>124</ele>
        <time>2022-01-24T12:38:58Z</time>
      </trkpt>
      <trkpt lat="43.14738" lon="5.86877">
        <ele>125</ele>
        <time>2022-01-24T12:39:03Z</time>
      </trkpt>
      <trkpt lat="43.14738" lon="5.86865">
        <ele>126.2</ele>
        <time>2022-01-24T12:39:08Z</time>
      </trkpt>
      <trkpt lat="43.14741" lon="5.86854">
        <ele>127.4</ele>
        <time>2022-01-24T12:39:13Z</time>
      </trkpt>
      <trkpt lat="43.14749" lon="5.86844">
        <ele>128.4</ele>
        <time>2022-01-24T12:39:19Z</time>
      </trkpt>
      <trkpt lat="43.14766" lon="5.86824">
        <ele>129.4</ele>
        <time>2022-01-24T12:39:28Z</time>
      </trkpt>
      <trkpt lat="43.1478" lon="5.86801">
        <ele>129.2</ele>
        <time>2022-01-24T12:39:35Z</time>
      </trkpt>
      <trkpt lat="43.14829" lon="5.86784">
        <ele>130</ele>
        <time>2022-01-24T12:39:54Z</time>
      </trkpt>
      <trkpt lat="43.14833" lon="5.86776">
        <ele>130.6</ele>
        <time>2022-01-24T12:39:57Z</time>
      </trkpt>
      <trkpt lat="43.14838" lon="5.86765">
        <ele>131.6</ele>
        <time>2022-01-24T12:40:01Z</time>
      </trkpt>
      <trkpt lat="43.14843" lon="5.86749">
        <ele>132.4</ele>
        <time>2022-01-24T12:40:06Z</time>
      </trkpt>
      <trkpt lat="43.14858" lon="5.8673">
        <ele>133.4</ele>
        <time>2022-01-24T12:40:14Z</time>
      </trkpt>
      <trkpt lat="43.14872" lon="5.86717">
        <ele>134.6</ele>
        <time>2022-01-24T12:40:21Z</time>
      </trkpt>
      <trkpt lat="43.14881" lon="5.86699">
        <ele>135.6</ele>
        <time>2022-01-24T12:40:27Z</time>
      </trkpt>
      <trkpt lat="43.14881" lon="5.86675">
        <ele>136.6</ele>
        <time>2022-01-24T12:40:33Z</time>
      </trkpt>
      <trkpt lat="43.14877" lon="5.8665">
        <ele>137.8</ele>
        <time>2022-01-24T12:40:41Z</time>
      </trkpt>
      <trkpt lat="43.14877" lon="5.86631">
        <ele>138.8</ele>
        <time>2022-01-24T12:40:48Z</time>
      </trkpt>
      <trkpt lat="43.14883" lon="5.86618">
        <ele>140</ele>
        <time>2022-01-24T12:40:53Z</time>
      </trkpt>
      <trkpt lat="43.14898" lon="5.86602">
        <ele>141.2</ele>
        <time>2022-01-24T12:40:59Z</time>
      </trkpt>
      <trkpt lat="43.14921" lon="5.86579">
        <ele>142.4</ele>
        <time>2022-01-24T12:41:09Z</time>
      </trkpt>
      <trkpt lat="43.1493" lon="5.86564">
        <ele>143.6</ele>
        <time>2022-01-24T12:41:14Z</time>
      </trkpt>
      <trkpt lat="43.14938" lon="5.86523">
        <ele>144.6</ele>
        <time>2022-01-24T12:41:25Z</time>
      </trkpt>
      <trkpt lat="43.14934" lon="5.86494">
        <ele>145.8</ele>
        <time>2022-01-24T12:41:34Z</time>
      </trkpt>
      <trkpt lat="43.14931" lon="5.86472">
        <ele>146.8</ele>
        <time>2022-01-24T12:41:41Z</time>
      </trkpt>
      <trkpt lat="43.14933" lon="5.8646">
        <ele>148</ele>
        <time>2022-01-24T12:41:46Z</time>
      </trkpt>
      <trkpt lat="43.14942" lon="5.86447">
        <ele>149</ele>
        <time>2022-01-24T12:41:52Z</time>
      </trkpt>
      <trkpt lat="43.14958" lon="5.86427">
        <ele>150.2</ele>
        <time>2022-01-24T12:42:00Z</time>
      </trkpt>
      <trkpt lat="43.14965" lon="5.86398">
        <ele>151.2</ele>
        <time>2022-01-24T12:42:08Z</time>
      </trkpt>
      <trkpt lat="43.14969" lon="5.86368">
        <ele>152.2</ele>
        <time>2022-01-24T12:42:17Z</time>
      </trkpt>
      <trkpt lat="43.14974" lon="5.86347">
        <ele>153.2</ele>
        <time>2022-01-24T12:42:24Z</time>
      </trkpt>
      <trkpt lat="43.14978" lon="5.8633">
        <ele>154.4</ele>
        <time>2022-01-24T12:42:30Z</time>
      </trkpt>
      <trkpt lat="43.14982" lon="5.86312">
        <ele>155.6</ele>
        <time>2022-01-24T12:42:36Z</time>
      </trkpt>
      <trkpt lat="43.14991" lon="5.86294">
        <ele>156.6</ele>
        <time>2022-01-24T12:42:44Z</time>
      </trkpt>
      <trkpt lat="43.14999" lon="5.86284">
        <ele>157.6</ele>
        <time>2022-01-24T12:42:49Z</time>
      </trkpt>
      <trkpt lat="43.15007" lon="5.86276">
        <ele>158.8</ele>
        <time>2022-01-24T12:42:53Z</time>
      </trkpt>
      <trkpt lat="43.15029" lon="5.86274">
        <ele>159.8</ele>
        <time>2022-01-24T12:43:04Z</time>
      </trkpt>
      <trkpt lat="43.15036" lon="5.86283">
        <ele>161.2</ele>
        <time>2022-01-24T12:43:09Z</time>
      </trkpt>
      <trkpt lat="43.1504" lon="5.86295">
        <ele>162.4</ele>
        <time>2022-01-24T12:43:15Z</time>
      </trkpt>
      <trkpt lat="43.15047" lon="5.86307">
        <ele>163.6</ele>
        <time>2022-01-24T12:43:21Z</time>
      </trkpt>
      <trkpt lat="43.15054" lon="5.86318">
        <ele>164.6</ele>
        <time>2022-01-24T12:43:26Z</time>
      </trkpt>
      <trkpt lat="43.1506" lon="5.86329">
        <ele>165.6</ele>
        <time>2022-01-24T12:43:31Z</time>
      </trkpt>
      <trkpt lat="43.15068" lon="5.86337">
        <ele>166.8</ele>
        <time>2022-01-24T12:43:36Z</time>
      </trkpt>
      <trkpt lat="43.15069" lon="5.86338">
        <ele>167.2</ele>
        <time>2022-01-24T12:43:37Z</time>
      </trkpt>
      <trkpt lat="43.15077" lon="5.86345">
        <ele>168.2</ele>
        <time>2022-01-24T12:43:43Z</time>
      </trkpt>
      <trkpt lat="43.15077" lon="5.86344">
        <ele>169.2</ele>
        <time>2022-01-24T12:43:47Z</time>
      </trkpt>
      <trkpt lat="43.15077" lon="5.86344">
        <ele>169.8</ele>
        <time>2022-01-24T12:43:53Z</time>
      </trkpt>
      <trkpt lat="43.15096" lon="5.86355">
        <ele>170.2</ele>
        <time>2022-01-24T12:44:09Z</time>
      </trkpt>
      <trkpt lat="43.15108" lon="5.86361">
        <ele>171.4</ele>
        <time>2022-01-24T12:44:16Z</time>
      </trkpt>
      <trkpt lat="43.15116" lon="5.86363">
        <ele>172.4</ele>
        <time>2022-01-24T12:44:20Z</time>
      </trkpt>
      <trkpt lat="43.15124" lon="5.86362">
        <ele>173.6</ele>
        <time>2022-01-24T12:44:24Z</time>
      </trkpt>
      <trkpt lat="43.15133" lon="5.86358">
        <ele>174.6</ele>
        <time>2022-01-24T12:44:29Z</time>
      </trkpt>
      <trkpt lat="43.1514" lon="5.86355">
        <ele>176.2</ele>
        <time>2022-01-24T12:44:33Z</time>
      </trkpt>
      <trkpt lat="43.15148" lon="5.86351">
        <ele>177.4</ele>
        <time>2022-01-24T12:44:38Z</time>
      </trkpt>
      <trkpt lat="43.15155" lon="5.86346">
        <ele>178.6</ele>
        <time>2022-01-24T12:44:42Z</time>
      </trkpt>
      <trkpt lat="43.15161" lon="5.86339">
        <ele>179.8</ele>
        <time>2022-01-24T12:44:46Z</time>
      </trkpt>
      <trkpt lat="43.1517" lon="5.8633">
        <ele>181</ele>
        <time>2022-01-24T12:44:52Z</time>
      </trkpt>
      <trkpt lat="43.15178" lon="5.86325">
        <ele>182.4</ele>
        <time>2022-01-24T12:44:57Z</time>
      </trkpt>
      <trkpt lat="43.15186" lon="5.86319">
        <ele>183.6</ele>
        <time>2022-01-24T12:45:02Z</time>
      </trkpt>
      <trkpt lat="43.15195" lon="5.86314">
        <ele>185</ele>
        <time>2022-01-24T12:45:07Z</time>
      </trkpt>
      <trkpt lat="43.15203" lon="5.86309">
        <ele>186.2</ele>
        <time>2022-01-24T12:45:12Z</time>
      </trkpt>
      <trkpt lat="43.15214" lon="5.86305">
        <ele>187.4</ele>
        <time>2022-01-24T12:45:18Z</time>
      </trkpt>
      <trkpt lat="43.15229" lon="5.86305">
        <ele>188.4</ele>
        <time>2022-01-24T12:45:25Z</time>
      </trkpt>
      <trkpt lat="43.15241" lon="5.86307">
        <ele>189.4</ele>
        <time>2022-01-24T12:45:31Z</time>
      </trkpt>
      <trkpt lat="43.1525" lon="5.8631">
        <ele>190.6</ele>
        <time>2022-01-24T12:45:36Z</time>
      </trkpt>
      <trkpt lat="43.15258" lon="5.86312">
        <ele>192</ele>
        <time>2022-01-24T12:45:40Z</time>
      </trkpt>
      <trkpt lat="43.15261" lon="5.86313">
        <ele>193</ele>
        <time>2022-01-24T12:45:42Z</time>
      </trkpt>
      <trkpt lat="43.15267" lon="5.86315">
        <ele>194</ele>
        <time>2022-01-24T12:45:45Z</time>
      </trkpt>
      <trkpt lat="43.15273" lon="5.86317">
        <ele>195</ele>
        <time>2022-01-24T12:45:48Z</time>
      </trkpt>
      <trkpt lat="43.15283" lon="5.86321">
        <ele>196.2</ele>
        <time>2022-01-24T12:45:54Z</time>
      </trkpt>
      <trkpt lat="43.15289" lon="5.86324">
        <ele>197.4</ele>
        <time>2022-01-24T12:45:58Z</time>
      </trkpt>
      <trkpt lat="43.15297" lon="5.86329">
        <ele>198.6</ele>
        <time>2022-01-24T12:46:03Z</time>
      </trkpt>
      <trkpt lat="43.15305" lon="5.86332">
        <ele>200</ele>
        <time>2022-01-24T12:46:07Z</time>
      </trkpt>
      <trkpt lat="43.15312" lon="5.86334">
        <ele>201</ele>
        <time>2022-01-24T12:46:11Z</time>
      </trkpt>
      <trkpt lat="43.15321" lon="5.86338">
        <ele>202.2</ele>
        <time>2022-01-24T12:46:16Z</time>
      </trkpt>
      <trkpt lat="43.15325" lon="5.86341">
        <ele>203.2</ele>
        <time>2022-01-24T12:46:19Z</time>
      </trkpt>
      <trkpt lat="43.15333" lon="5.86346">
        <ele>204.4</ele>
        <time>2022-01-24T12:46:24Z</time>
      </trkpt>
      <trkpt lat="43.15341" lon="5.86349">
        <ele>205.8</ele>
        <time>2022-01-24T12:46:29Z</time>
      </trkpt>
      <trkpt lat="43.15347" lon="5.86351">
        <ele>206.8</ele>
        <time>2022-01-24T12:46:33Z</time>
      </trkpt>
      <trkpt lat="43.15356" lon="5.86352">
        <ele>207.8</ele>
        <time>2022-01-24T12:46:38Z</time>
      </trkpt>
      <trkpt lat="43.15365" lon="5.86354">
        <ele>209.2</ele>
        <time>2022-01-24T12:46:43Z</time>
      </trkpt>
      <trkpt lat="43.15374" lon="5.86356">
        <ele>210.4</ele>
        <time>2022-01-24T12:46:48Z</time>
      </trkpt>
      <trkpt lat="43.1538" lon="5.86356">
        <ele>211.4</ele>
        <time>2022-01-24T12:46:51Z</time>
      </trkpt>
      <trkpt lat="43.15387" lon="5.86356">
        <ele>212.6</ele>
        <time>2022-01-24T12:46:55Z</time>
      </trkpt>
      <trkpt lat="43.15395" lon="5.86356">
        <ele>213.8</ele>
        <time>2022-01-24T12:46:59Z</time>
      </trkpt>
      <trkpt lat="43.154" lon="5.86356">
        <ele>214.6</ele>
        <time>2022-01-24T12:47:02Z</time>
      </trkpt>
      <trkpt lat="43.15407" lon="5.86355">
        <ele>215.8</ele>
        <time>2022-01-24T12:47:06Z</time>
      </trkpt>
      <trkpt lat="43.15413" lon="5.86354">
        <ele>216.8</ele>
        <time>2022-01-24T12:47:09Z</time>
      </trkpt>
      <trkpt lat="43.15419" lon="5.86351">
        <ele>218</ele>
        <time>2022-01-24T12:47:13Z</time>
      </trkpt>
      <trkpt lat="43.15425" lon="5.8635">
        <ele>219.2</ele>
        <time>2022-01-24T12:47:17Z</time>
      </trkpt>
      <trkpt lat="43.15433" lon="5.86351">
        <ele>220.6</ele>
        <time>2022-01-24T12:47:21Z</time>
      </trkpt>
      <trkpt lat="43.15435" lon="5.86352">
        <ele>222.2</ele>
        <time>2022-01-24T12:47:25Z</time>
      </trkpt>
      <trkpt lat="43.15436" lon="5.86352">
        <ele>223.4</ele>
        <time>2022-01-24T12:47:28Z</time>
      </trkpt>
      <trkpt lat="43.15436" lon="5.86361">
        <ele>224</ele>
        <time>2022-01-24T12:47:36Z</time>
      </trkpt>
      <trkpt lat="43.15428" lon="5.86374">
        <ele>224</ele>
        <time>2022-01-24T12:47:43Z</time>
      </trkpt>
      <trkpt lat="43.15422" lon="5.86379">
        <ele>224.4</ele>
        <time>2022-01-24T12:47:47Z</time>
      </trkpt>
      <trkpt lat="43.15415" lon="5.86394">
        <ele>225.4</ele>
        <time>2022-01-24T12:47:54Z</time>
      </trkpt>
      <trkpt lat="43.1541" lon="5.86409">
        <ele>226.6</ele>
        <time>2022-01-24T12:48:01Z</time>
      </trkpt>
      <trkpt lat="43.15409" lon="5.86421">
        <ele>227.6</ele>
        <time>2022-01-24T12:48:06Z</time>
      </trkpt>
      <trkpt lat="43.15411" lon="5.86435">
        <ele>228.6</ele>
        <time>2022-01-24T12:48:12Z</time>
      </trkpt>
      <trkpt lat="43.15412" lon="5.86441">
        <ele>229.6</ele>
        <time>2022-01-24T12:48:16Z</time>
      </trkpt>
      <trkpt lat="43.15411" lon="5.86443">
        <ele>230</ele>
        <time>2022-01-24T12:48:17Z</time>
      </trkpt>
      <trkpt lat="43.15412" lon="5.86456">
        <ele>230.8</ele>
        <time>2022-01-24T12:48:22Z</time>
      </trkpt>
      <trkpt lat="43.15412" lon="5.86459">
        <ele>231</ele>
        <time>2022-01-24T12:48:23Z</time>
      </trkpt>
      <trkpt lat="43.15408" lon="5.86485">
        <ele>232</ele>
        <time>2022-01-24T12:48:33Z</time>
      </trkpt>
      <trkpt lat="43.15394" lon="5.86499">
        <ele>233.2</ele>
        <time>2022-01-24T12:48:42Z</time>
      </trkpt>
      <trkpt lat="43.1538" lon="5.865">
        <ele>234.4</ele>
        <time>2022-01-24T12:48:49Z</time>
      </trkpt>
      <trkpt lat="43.15368" lon="5.86499">
        <ele>235.4</ele>
        <time>2022-01-24T12:48:55Z</time>
      </trkpt>
      <trkpt lat="43.15359" lon="5.86499">
        <ele>236.6</ele>
        <time>2022-01-24T12:48:59Z</time>
      </trkpt>
      <trkpt lat="43.15347" lon="5.86501">
        <ele>237.6</ele>
        <time>2022-01-24T12:49:04Z</time>
      </trkpt>
      <trkpt lat="43.15336" lon="5.86506">
        <ele>238.8</ele>
        <time>2022-01-24T12:49:09Z</time>
      </trkpt>
      <trkpt lat="43.15322" lon="5.86521">
        <ele>239.8</ele>
        <time>2022-01-24T12:49:16Z</time>
      </trkpt>
      <trkpt lat="43.15309" lon="5.86543">
        <ele>240.8</ele>
        <time>2022-01-24T12:49:24Z</time>
      </trkpt>
      <trkpt lat="43.153" lon="5.86558">
        <ele>241.8</ele>
        <time>2022-01-24T12:49:30Z</time>
      </trkpt>
      <trkpt lat="43.15297" lon="5.86563">
        <ele>242</ele>
        <time>2022-01-24T12:49:32Z</time>
      </trkpt>
      <trkpt lat="43.15289" lon="5.86575">
        <ele>243</ele>
        <time>2022-01-24T12:49:37Z</time>
      </trkpt>
      <trkpt lat="43.15279" lon="5.86594">
        <ele>244.2</ele>
        <time>2022-01-24T12:49:44Z</time>
      </trkpt>
      <trkpt lat="43.15272" lon="5.86608">
        <ele>245.2</ele>
        <time>2022-01-24T12:49:50Z</time>
      </trkpt>
      <trkpt lat="43.15267" lon="5.86622">
        <ele>246.4</ele>
        <time>2022-01-24T12:49:55Z</time>
      </trkpt>
      <trkpt lat="43.15262" lon="5.8664">
        <ele>247.4</ele>
        <time>2022-01-24T12:50:01Z</time>
      </trkpt>
      <trkpt lat="43.15259" lon="5.86657">
        <ele>248.6</ele>
        <time>2022-01-24T12:50:07Z</time>
      </trkpt>
      <trkpt lat="43.15257" lon="5.86669">
        <ele>249.6</ele>
        <time>2022-01-24T12:50:11Z</time>
      </trkpt>
      <trkpt lat="43.15257" lon="5.86687">
        <ele>250.8</ele>
        <time>2022-01-24T12:50:17Z</time>
      </trkpt>
      <trkpt lat="43.15258" lon="5.867">
        <ele>251.8</ele>
        <time>2022-01-24T12:50:21Z</time>
      </trkpt>
      <trkpt lat="43.1526" lon="5.86716">
        <ele>253</ele>
        <time>2022-01-24T12:50:26Z</time>
      </trkpt>
      <trkpt lat="43.15264" lon="5.86739">
        <ele>254</ele>
        <time>2022-01-24T12:50:33Z</time>
      </trkpt>
      <trkpt lat="43.15274" lon="5.86734">
        <ele>255.2</ele>
        <time>2022-01-24T12:50:39Z</time>
      </trkpt>
      <trkpt lat="43.15274" lon="5.86722">
        <ele>255.8</ele>
        <time>2022-01-24T12:50:43Z</time>
      </trkpt>
      <trkpt lat="43.15275" lon="5.86716">
        <ele>256.4</ele>
        <time>2022-01-24T12:50:45Z</time>
      </trkpt>
      <trkpt lat="43.15279" lon="5.867">
        <ele>257.6</ele>
        <time>2022-01-24T12:50:51Z</time>
      </trkpt>
      <trkpt lat="43.15283" lon="5.86691">
        <ele>258.6</ele>
        <time>2022-01-24T12:50:55Z</time>
      </trkpt>
      <trkpt lat="43.1529" lon="5.86679">
        <ele>259.8</ele>
        <time>2022-01-24T12:51:01Z</time>
      </trkpt>
      <trkpt lat="43.15296" lon="5.86671">
        <ele>261</ele>
        <time>2022-01-24T12:51:05Z</time>
      </trkpt>
      <trkpt lat="43.15302" lon="5.86664">
        <ele>262</ele>
        <time>2022-01-24T12:51:09Z</time>
      </trkpt>
      <trkpt lat="43.15312" lon="5.86652">
        <ele>263.2</ele>
        <time>2022-01-24T12:51:15Z</time>
      </trkpt>
      <trkpt lat="43.1532" lon="5.86645">
        <ele>264.2</ele>
        <time>2022-01-24T12:51:20Z</time>
      </trkpt>
      <trkpt lat="43.15333" lon="5.86635">
        <ele>265.4</ele>
        <time>2022-01-24T12:51:26Z</time>
      </trkpt>
      <trkpt lat="43.15343" lon="5.86629">
        <ele>266.4</ele>
        <time>2022-01-24T12:51:32Z</time>
      </trkpt>
      <trkpt lat="43.15354" lon="5.86625">
        <ele>267.6</ele>
        <time>2022-01-24T12:51:37Z</time>
      </trkpt>
      <trkpt lat="43.15366" lon="5.86624">
        <ele>268.8</ele>
        <time>2022-01-24T12:51:43Z</time>
      </trkpt>
      <trkpt lat="43.15375" lon="5.86625">
        <ele>270</ele>
        <time>2022-01-24T12:51:48Z</time>
      </trkpt>
      <trkpt lat="43.15382" lon="5.86628">
        <ele>271</ele>
        <time>2022-01-24T12:51:52Z</time>
      </trkpt>
      <trkpt lat="43.15394" lon="5.86632">
        <ele>272</ele>
        <time>2022-01-24T12:51:58Z</time>
      </trkpt>
      <trkpt lat="43.15404" lon="5.86635">
        <ele>273.2</ele>
        <time>2022-01-24T12:52:03Z</time>
      </trkpt>
      <trkpt lat="43.15412" lon="5.86637">
        <ele>274.2</ele>
        <time>2022-01-24T12:52:08Z</time>
      </trkpt>
      <trkpt lat="43.1542" lon="5.86638">
        <ele>275.4</ele>
        <time>2022-01-24T12:52:14Z</time>
      </trkpt>
      <trkpt lat="43.15437" lon="5.86641">
        <ele>276.4</ele>
        <time>2022-01-24T12:52:23Z</time>
      </trkpt>
      <trkpt lat="43.15454" lon="5.86643">
        <ele>277.6</ele>
        <time>2022-01-24T12:52:31Z</time>
      </trkpt>
      <trkpt lat="43.15466" lon="5.86645">
        <ele>278.6</ele>
        <time>2022-01-24T12:52:37Z</time>
      </trkpt>
      <trkpt lat="43.15478" lon="5.86645">
        <ele>279.8</ele>
        <time>2022-01-24T12:52:43Z</time>
      </trkpt>
      <trkpt lat="43.15493" lon="5.86642">
        <ele>280.8</ele>
        <time>2022-01-24T12:52:50Z</time>
      </trkpt>
      <trkpt lat="43.15506" lon="5.86642">
        <ele>282</ele>
        <time>2022-01-24T12:52:56Z</time>
      </trkpt>
      <trkpt lat="43.15518" lon="5.86639">
        <ele>283</ele>
        <time>2022-01-24T12:53:01Z</time>
      </trkpt>
      <trkpt lat="43.1553" lon="5.86636">
        <ele>284.2</ele>
        <time>2022-01-24T12:53:06Z</time>
      </trkpt>
      <trkpt lat="43.15542" lon="5.86633">
        <ele>285.2</ele>
        <time>2022-01-24T12:53:11Z</time>
      </trkpt>
      <trkpt lat="43.15558" lon="5.86626">
        <ele>286.2</ele>
        <time>2022-01-24T12:53:17Z</time>
      </trkpt>
      <trkpt lat="43.15567" lon="5.86624">
        <ele>287</ele>
        <time>2022-01-24T12:53:21Z</time>
      </trkpt>
      <trkpt lat="43.1557" lon="5.86627">
        <ele>287.4</ele>
        <time>2022-01-24T12:53:23Z</time>
      </trkpt>
      <trkpt lat="43.15563" lon="5.86639">
        <ele>288.2</ele>
        <time>2022-01-24T12:53:29Z</time>
      </trkpt>
      <trkpt lat="43.15561" lon="5.8664">
        <ele>288.6</ele>
        <time>2022-01-24T12:53:30Z</time>
      </trkpt>
      <trkpt lat="43.15549" lon="5.86646">
        <ele>289.6</ele>
        <time>2022-01-24T12:53:36Z</time>
      </trkpt>
      <trkpt lat="43.15533" lon="5.86654">
        <ele>290.8</ele>
        <time>2022-01-24T12:53:43Z</time>
      </trkpt>
      <trkpt lat="43.15519" lon="5.8666">
        <ele>291.8</ele>
        <time>2022-01-24T12:53:48Z</time>
      </trkpt>
      <trkpt lat="43.15502" lon="5.86671">
        <ele>293</ele>
        <time>2022-01-24T12:53:55Z</time>
      </trkpt>
      <trkpt lat="43.15483" lon="5.86685">
        <ele>294</ele>
        <time>2022-01-24T12:54:03Z</time>
      </trkpt>
      <trkpt lat="43.15474" lon="5.86695">
        <ele>295.2</ele>
        <time>2022-01-24T12:54:08Z</time>
      </trkpt>
      <trkpt lat="43.15471" lon="5.86705">
        <ele>296.2</ele>
        <time>2022-01-24T12:54:12Z</time>
      </trkpt>
      <trkpt lat="43.15469" lon="5.86718">
        <ele>297.4</ele>
        <time>2022-01-24T12:54:17Z</time>
      </trkpt>
      <trkpt lat="43.15471" lon="5.86726">
        <ele>298.6</ele>
        <time>2022-01-24T12:54:20Z</time>
      </trkpt>
      <trkpt lat="43.15477" lon="5.86733">
        <ele>299.6</ele>
        <time>2022-01-24T12:54:24Z</time>
      </trkpt>
      <trkpt lat="43.15484" lon="5.86743">
        <ele>301</ele>
        <time>2022-01-24T12:54:29Z</time>
      </trkpt>
      <trkpt lat="43.15492" lon="5.86753">
        <ele>302.2</ele>
        <time>2022-01-24T12:54:35Z</time>
      </trkpt>
      <trkpt lat="43.15498" lon="5.8676">
        <ele>303.2</ele>
        <time>2022-01-24T12:54:39Z</time>
      </trkpt>
      <trkpt lat="43.15506" lon="5.86769">
        <ele>304.4</ele>
        <time>2022-01-24T12:54:44Z</time>
      </trkpt>
      <trkpt lat="43.15516" lon="5.8678">
        <ele>305.6</ele>
        <time>2022-01-24T12:54:50Z</time>
      </trkpt>
      <trkpt lat="43.15525" lon="5.86789">
        <ele>306.8</ele>
        <time>2022-01-24T12:54:55Z</time>
      </trkpt>
      <trkpt lat="43.15534" lon="5.86798">
        <ele>307.8</ele>
        <time>2022-01-24T12:55:00Z</time>
      </trkpt>
      <trkpt lat="43.15544" lon="5.8681">
        <ele>309.2</ele>
        <time>2022-01-24T12:55:06Z</time>
      </trkpt>
      <trkpt lat="43.15552" lon="5.86818">
        <ele>310.4</ele>
        <time>2022-01-24T12:55:11Z</time>
      </trkpt>
      <trkpt lat="43.15559" lon="5.86826">
        <ele>311.4</ele>
        <time>2022-01-24T12:55:15Z</time>
      </trkpt>
      <trkpt lat="43.15569" lon="5.86838">
        <ele>312.6</ele>
        <time>2022-01-24T12:55:21Z</time>
      </trkpt>
      <trkpt lat="43.15578" lon="5.86852">
        <ele>313.8</ele>
        <time>2022-01-24T12:55:27Z</time>
      </trkpt>
      <trkpt lat="43.15583" lon="5.86858">
        <ele>314.8</ele>
        <time>2022-01-24T12:55:30Z</time>
      </trkpt>
      <trkpt lat="43.15592" lon="5.86867">
        <ele>316</ele>
        <time>2022-01-24T12:55:35Z</time>
      </trkpt>
      <trkpt lat="43.15603" lon="5.86876">
        <ele>317</ele>
        <time>2022-01-24T12:55:41Z</time>
      </trkpt>
      <trkpt lat="43.15615" lon="5.86883">
        <ele>318.2</ele>
        <time>2022-01-24T12:55:46Z</time>
      </trkpt>
      <trkpt lat="43.15625" lon="5.86891">
        <ele>319.2</ele>
        <time>2022-01-24T12:55:51Z</time>
      </trkpt>
      <trkpt lat="43.15635" lon="5.86905">
        <ele>320.2</ele>
        <time>2022-01-24T12:55:57Z</time>
      </trkpt>
      <trkpt lat="43.15646" lon="5.86935">
        <ele>321.6</ele>
        <time>2022-01-24T12:56:07Z</time>
      </trkpt>
      <trkpt lat="43.15645" lon="5.86948">
        <ele>322.6</ele>
        <time>2022-01-24T12:56:12Z</time>
      </trkpt>
      <trkpt lat="43.15639" lon="5.86965">
        <ele>323.8</ele>
        <time>2022-01-24T12:56:18Z</time>
      </trkpt>
      <trkpt lat="43.15634" lon="5.86979">
        <ele>324.8</ele>
        <time>2022-01-24T12:56:23Z</time>
      </trkpt>
      <trkpt lat="43.15629" lon="5.86993">
        <ele>325.6</ele>
        <time>2022-01-24T12:56:28Z</time>
      </trkpt>
      <trkpt lat="43.15626" lon="5.87001">
        <ele>326</ele>
        <time>2022-01-24T12:56:31Z</time>
      </trkpt>
      <trkpt lat="43.15621" lon="5.87015">
        <ele>327</ele>
        <time>2022-01-24T12:56:36Z</time>
      </trkpt>
      <trkpt lat="43.15619" lon="5.87024">
        <ele>328</ele>
        <time>2022-01-24T12:56:39Z</time>
      </trkpt>
      <trkpt lat="43.15618" lon="5.87039">
        <ele>329</ele>
        <time>2022-01-24T12:56:44Z</time>
      </trkpt>
      <trkpt lat="43.15624" lon="5.87057">
        <ele>330.2</ele>
        <time>2022-01-24T12:56:50Z</time>
      </trkpt>
      <trkpt lat="43.15631" lon="5.87065">
        <ele>331.4</ele>
        <time>2022-01-24T12:56:54Z</time>
      </trkpt>
      <trkpt lat="43.15643" lon="5.8707">
        <ele>332.4</ele>
        <time>2022-01-24T12:56:59Z</time>
      </trkpt>
      <trkpt lat="43.15654" lon="5.87073">
        <ele>333.8</ele>
        <time>2022-01-24T12:57:04Z</time>
      </trkpt>
      <trkpt lat="43.15664" lon="5.87077">
        <ele>335</ele>
        <time>2022-01-24T12:57:08Z</time>
      </trkpt>
      <trkpt lat="43.15676" lon="5.87086">
        <ele>336.2</ele>
        <time>2022-01-24T12:57:13Z</time>
      </trkpt>
      <trkpt lat="43.15687" lon="5.87103">
        <ele>337.4</ele>
        <time>2022-01-24T12:57:19Z</time>
      </trkpt>
      <trkpt lat="43.15691" lon="5.87124">
        <ele>338.6</ele>
        <time>2022-01-24T12:57:26Z</time>
      </trkpt>
      <trkpt lat="43.15697" lon="5.8714">
        <ele>339.8</ele>
        <time>2022-01-24T12:57:31Z</time>
      </trkpt>
      <trkpt lat="43.157" lon="5.87158">
        <ele>340.8</ele>
        <time>2022-01-24T12:57:36Z</time>
      </trkpt>
      <trkpt lat="43.15696" lon="5.8717">
        <ele>342</ele>
        <time>2022-01-24T12:57:41Z</time>
      </trkpt>
      <trkpt lat="43.15691" lon="5.8718">
        <ele>343.2</ele>
        <time>2022-01-24T12:57:46Z</time>
      </trkpt>
      <trkpt lat="43.15683" lon="5.87196">
        <ele>344.2</ele>
        <time>2022-01-24T12:57:53Z</time>
      </trkpt>
      <trkpt lat="43.15679" lon="5.87208">
        <ele>345.6</ele>
        <time>2022-01-24T12:57:58Z</time>
      </trkpt>
      <trkpt lat="43.15674" lon="5.87221">
        <ele>346.8</ele>
        <time>2022-01-24T12:58:03Z</time>
      </trkpt>
      <trkpt lat="43.1567" lon="5.87235">
        <ele>347.8</ele>
        <time>2022-01-24T12:58:09Z</time>
      </trkpt>
      <trkpt lat="43.1567" lon="5.87238">
        <ele>348</ele>
        <time>2022-01-24T12:58:10Z</time>
      </trkpt>
      <trkpt lat="43.15668" lon="5.87254">
        <ele>349.2</ele>
        <time>2022-01-24T12:58:16Z</time>
      </trkpt>
      <trkpt lat="43.15668" lon="5.87268">
        <ele>350.2</ele>
        <time>2022-01-24T12:58:21Z</time>
      </trkpt>
      <trkpt lat="43.15671" lon="5.87285">
        <ele>351.4</ele>
        <time>2022-01-24T12:58:28Z</time>
      </trkpt>
      <trkpt lat="43.15676" lon="5.87295">
        <ele>352.8</ele>
        <time>2022-01-24T12:58:33Z</time>
      </trkpt>
      <trkpt lat="43.1568" lon="5.87304">
        <ele>353.8</ele>
        <time>2022-01-24T12:58:37Z</time>
      </trkpt>
      <trkpt lat="43.15684" lon="5.87313">
        <ele>355.2</ele>
        <time>2022-01-24T12:58:41Z</time>
      </trkpt>
      <trkpt lat="43.1569" lon="5.87322">
        <ele>356.6</ele>
        <time>2022-01-24T12:58:45Z</time>
      </trkpt>
      <trkpt lat="43.157" lon="5.87332">
        <ele>357.8</ele>
        <time>2022-01-24T12:58:50Z</time>
      </trkpt>
      <trkpt lat="43.15717" lon="5.87346">
        <ele>359.2</ele>
        <time>2022-01-24T12:58:58Z</time>
      </trkpt>
      <trkpt lat="43.15728" lon="5.87352">
        <ele>359.8</ele>
        <time>2022-01-24T12:59:03Z</time>
      </trkpt>
      <trkpt lat="43.1574" lon="5.87359">
        <ele>360.4</ele>
        <time>2022-01-24T12:59:09Z</time>
      </trkpt>
      <trkpt lat="43.1575" lon="5.87365">
        <ele>361.4</ele>
        <time>2022-01-24T12:59:14Z</time>
      </trkpt>
      <trkpt lat="43.15761" lon="5.8737">
        <ele>362.8</ele>
        <time>2022-01-24T12:59:19Z</time>
      </trkpt>
      <trkpt lat="43.15773" lon="5.87389">
        <ele>363.8</ele>
        <time>2022-01-24T12:59:27Z</time>
      </trkpt>
      <trkpt lat="43.15779" lon="5.87402">
        <ele>365</ele>
        <time>2022-01-24T12:59:32Z</time>
      </trkpt>
      <trkpt lat="43.15783" lon="5.87409">
        <ele>365.4</ele>
        <time>2022-01-24T12:59:35Z</time>
      </trkpt>
      <trkpt lat="43.15789" lon="5.87414">
        <ele>366</ele>
        <time>2022-01-24T12:59:38Z</time>
      </trkpt>
      <trkpt lat="43.158" lon="5.87422">
        <ele>367</ele>
        <time>2022-01-24T12:59:43Z</time>
      </trkpt>
      <trkpt lat="43.15811" lon="5.87429">
        <ele>368.4</ele>
        <time>2022-01-24T12:59:48Z</time>
      </trkpt>
      <trkpt lat="43.15821" lon="5.87437">
        <ele>369.4</ele>
        <time>2022-01-24T12:59:53Z</time>
      </trkpt>
      <trkpt lat="43.15828" lon="5.87445">
        <ele>370.6</ele>
        <time>2022-01-24T12:59:57Z</time>
      </trkpt>
      <trkpt lat="43.15835" lon="5.87454">
        <ele>371.8</ele>
        <time>2022-01-24T13:00:02Z</time>
      </trkpt>
      <trkpt lat="43.15842" lon="5.87461">
        <ele>372.8</ele>
        <time>2022-01-24T13:00:06Z</time>
      </trkpt>
      <trkpt lat="43.15847" lon="5.87477">
        <ele>374</ele>
        <time>2022-01-24T13:00:12Z</time>
      </trkpt>
      <trkpt lat="43.15847" lon="5.87478">
        <ele>375.2</ele>
        <time>2022-01-24T13:00:17Z</time>
      </trkpt>
      <trkpt lat="43.15847" lon="5.87478">
        <ele>376.2</ele>
        <time>2022-01-24T13:00:30Z</time>
      </trkpt>
      <trkpt lat="43.15847" lon="5.87478">
        <ele>376.2</ele>
        <time>2022-01-24T13:00:34Z</time>
      </trkpt>
      <trkpt lat="43.15847" lon="5.87478">
        <ele>376.2</ele>
        <time>2022-01-24T13:00:38Z</time>
      </trkpt>
      <trkpt lat="43.15847" lon="5.87478">
        <ele>376</ele>
        <time>2022-01-24T13:00:43Z</time>
      </trkpt>
      <trkpt lat="43.15847" lon="5.8748">
        <ele>376</ele>
        <time>2022-01-24T13:00:53Z</time>
      </trkpt>
      <trkpt lat="43.15839" lon="5.87499">
        <ele>376.4</ele>
        <time>2022-01-24T13:01:02Z</time>
      </trkpt>
      <trkpt lat="43.15839" lon="5.87499">
        <ele>377.4</ele>
        <time>2022-01-24T13:01:06Z</time>
      </trkpt>
      <trkpt lat="43.15837" lon="5.87503">
        <ele>378</ele>
        <time>2022-01-24T13:01:15Z</time>
      </trkpt>
      <trkpt lat="43.15836" lon="5.87524">
        <ele>378.6</ele>
        <time>2022-01-24T13:01:23Z</time>
      </trkpt>
      <trkpt lat="43.15841" lon="5.87542">
        <ele>379.8</ele>
        <time>2022-01-24T13:01:29Z</time>
      </trkpt>
      <trkpt lat="43.15848" lon="5.87557">
        <ele>381</ele>
        <time>2022-01-24T13:01:34Z</time>
      </trkpt>
      <trkpt lat="43.15851" lon="5.87573">
        <ele>382</ele>
        <time>2022-01-24T13:01:39Z</time>
      </trkpt>
      <trkpt lat="43.15856" lon="5.8759">
        <ele>383</ele>
        <time>2022-01-24T13:01:45Z</time>
      </trkpt>
      <trkpt lat="43.15861" lon="5.87602">
        <ele>384.2</ele>
        <time>2022-01-24T13:01:50Z</time>
      </trkpt>
      <trkpt lat="43.15866" lon="5.87615">
        <ele>385.4</ele>
        <time>2022-01-24T13:01:55Z</time>
      </trkpt>
      <trkpt lat="43.15866" lon="5.87629">
        <ele>386.4</ele>
        <time>2022-01-24T13:01:59Z</time>
      </trkpt>
      <trkpt lat="43.15864" lon="5.87644">
        <ele>387.6</ele>
        <time>2022-01-24T13:02:04Z</time>
      </trkpt>
      <trkpt lat="43.15862" lon="5.87659">
        <ele>388.8</ele>
        <time>2022-01-24T13:02:09Z</time>
      </trkpt>
      <trkpt lat="43.15862" lon="5.87672">
        <ele>390</ele>
        <time>2022-01-24T13:02:13Z</time>
      </trkpt>
      <trkpt lat="43.15841" lon="5.87693">
        <ele>391.2</ele>
        <time>2022-01-24T13:02:24Z</time>
      </trkpt>
      <trkpt lat="43.15832" lon="5.87694">
        <ele>392.2</ele>
        <time>2022-01-24T13:02:28Z</time>
      </trkpt>
      <trkpt lat="43.15823" lon="5.87696">
        <ele>393.2</ele>
        <time>2022-01-24T13:02:32Z</time>
      </trkpt>
      <trkpt lat="43.15816" lon="5.87698">
        <ele>394.4</ele>
        <time>2022-01-24T13:02:35Z</time>
      </trkpt>
      <trkpt lat="43.15806" lon="5.87701">
        <ele>395.4</ele>
        <time>2022-01-24T13:02:39Z</time>
      </trkpt>
      <trkpt lat="43.15791" lon="5.87706">
        <ele>396.4</ele>
        <time>2022-01-24T13:02:45Z</time>
      </trkpt>
      <trkpt lat="43.1578" lon="5.87711">
        <ele>397.6</ele>
        <time>2022-01-24T13:02:50Z</time>
      </trkpt>
      <trkpt lat="43.15769" lon="5.87718">
        <ele>398.6</ele>
        <time>2022-01-24T13:02:55Z</time>
      </trkpt>
      <trkpt lat="43.15755" lon="5.87724">
        <ele>399.6</ele>
        <time>2022-01-24T13:03:01Z</time>
      </trkpt>
      <trkpt lat="43.15736" lon="5.87732">
        <ele>400.8</ele>
        <time>2022-01-24T13:03:09Z</time>
      </trkpt>
      <trkpt lat="43.15723" lon="5.87736">
        <ele>401.8</ele>
        <time>2022-01-24T13:03:15Z</time>
      </trkpt>
      <trkpt lat="43.15712" lon="5.87738">
        <ele>403</ele>
        <time>2022-01-24T13:03:20Z</time>
      </trkpt>
      <trkpt lat="43.15705" lon="5.8774">
        <ele>404</ele>
        <time>2022-01-24T13:03:23Z</time>
      </trkpt>
      <trkpt lat="43.15695" lon="5.87746">
        <ele>405</ele>
        <time>2022-01-24T13:03:28Z</time>
      </trkpt>
      <trkpt lat="43.15685" lon="5.87752">
        <ele>406</ele>
        <time>2022-01-24T13:03:33Z</time>
      </trkpt>
      <trkpt lat="43.15677" lon="5.87757">
        <ele>407.2</ele>
        <time>2022-01-24T13:03:37Z</time>
      </trkpt>
      <trkpt lat="43.15671" lon="5.87766">
        <ele>408.4</ele>
        <time>2022-01-24T13:03:41Z</time>
      </trkpt>
      <trkpt lat="43.15663" lon="5.87779">
        <ele>409.6</ele>
        <time>2022-01-24T13:03:47Z</time>
      </trkpt>
      <trkpt lat="43.15656" lon="5.87794">
        <ele>410.8</ele>
        <time>2022-01-24T13:03:53Z</time>
      </trkpt>
      <trkpt lat="43.15651" lon="5.87803">
        <ele>411.8</ele>
        <time>2022-01-24T13:03:57Z</time>
      </trkpt>
      <trkpt lat="43.15643" lon="5.87817">
        <ele>413</ele>
        <time>2022-01-24T13:04:03Z</time>
      </trkpt>
      <trkpt lat="43.15635" lon="5.87827">
        <ele>414</ele>
        <time>2022-01-24T13:04:08Z</time>
      </trkpt>
      <trkpt lat="43.15627" lon="5.8784">
        <ele>415.2</ele>
        <time>2022-01-24T13:04:14Z</time>
      </trkpt>
      <trkpt lat="43.15619" lon="5.87851">
        <ele>416.2</ele>
        <time>2022-01-24T13:04:19Z</time>
      </trkpt>
      <trkpt lat="43.15611" lon="5.87871">
        <ele>417.4</ele>
        <time>2022-01-24T13:04:26Z</time>
      </trkpt>
      <trkpt lat="43.15609" lon="5.87885">
        <ele>418.6</ele>
        <time>2022-01-24T13:04:30Z</time>
      </trkpt>
      <trkpt lat="43.15611" lon="5.87905">
        <ele>419.8</ele>
        <time>2022-01-24T13:04:36Z</time>
      </trkpt>
      <trkpt lat="43.15615" lon="5.87924">
        <ele>420.8</ele>
        <time>2022-01-24T13:04:42Z</time>
      </trkpt>
      <trkpt lat="43.15621" lon="5.87938">
        <ele>421.8</ele>
        <time>2022-01-24T13:04:47Z</time>
      </trkpt>
      <trkpt lat="43.15622" lon="5.87958">
        <ele>423.2</ele>
        <time>2022-01-24T13:04:53Z</time>
      </trkpt>
      <trkpt lat="43.15624" lon="5.87976">
        <ele>424.4</ele>
        <time>2022-01-24T13:04:58Z</time>
      </trkpt>
      <trkpt lat="43.15627" lon="5.87987">
        <ele>425.2</ele>
        <time>2022-01-24T13:05:02Z</time>
      </trkpt>
      <trkpt lat="43.15631" lon="5.87989">
        <ele>425.6</ele>
        <time>2022-01-24T13:05:04Z</time>
      </trkpt>
      <trkpt lat="43.15635" lon="5.87983">
        <ele>426.4</ele>
        <time>2022-01-24T13:05:08Z</time>
      </trkpt>
      <trkpt lat="43.15635" lon="5.87981">
        <ele>426.4</ele>
        <time>2022-01-24T13:05:09Z</time>
      </trkpt>
      <trkpt lat="43.15634" lon="5.87976">
        <ele>426.8</ele>
        <time>2022-01-24T13:05:11Z</time>
      </trkpt>
      <trkpt lat="43.15632" lon="5.87966">
        <ele>427.6</ele>
        <time>2022-01-24T13:05:15Z</time>
      </trkpt>
      <trkpt lat="43.15632" lon="5.87964">
        <ele>427.8</ele>
        <time>2022-01-24T13:05:16Z</time>
      </trkpt>
      <trkpt lat="43.15635" lon="5.87948">
        <ele>429</ele>
        <time>2022-01-24T13:05:22Z</time>
      </trkpt>
      <trkpt lat="43.1564" lon="5.87928">
        <ele>430.2</ele>
        <time>2022-01-24T13:05:30Z</time>
      </trkpt>
      <trkpt lat="43.15647" lon="5.87913">
        <ele>431.4</ele>
        <time>2022-01-24T13:05:36Z</time>
      </trkpt>
      <trkpt lat="43.15654" lon="5.87903">
        <ele>432.4</ele>
        <time>2022-01-24T13:05:41Z</time>
      </trkpt>
      <trkpt lat="43.15664" lon="5.87893">
        <ele>433.6</ele>
        <time>2022-01-24T13:05:48Z</time>
      </trkpt>
      <trkpt lat="43.15671" lon="5.87885">
        <ele>434.6</ele>
        <time>2022-01-24T13:05:53Z</time>
      </trkpt>
      <trkpt lat="43.15674" lon="5.87883">
        <ele>434.8</ele>
        <time>2022-01-24T13:05:55Z</time>
      </trkpt>
      <trkpt lat="43.1568" lon="5.8788">
        <ele>435.8</ele>
        <time>2022-01-24T13:05:59Z</time>
      </trkpt>
      <trkpt lat="43.15693" lon="5.8787">
        <ele>436.8</ele>
        <time>2022-01-24T13:06:06Z</time>
      </trkpt>
      <trkpt lat="43.157" lon="5.87864">
        <ele>437.8</ele>
        <time>2022-01-24T13:06:10Z</time>
      </trkpt>
      <trkpt lat="43.15707" lon="5.8786">
        <ele>439</ele>
        <time>2022-01-24T13:06:14Z</time>
      </trkpt>
      <trkpt lat="43.15718" lon="5.87855">
        <ele>440.2</ele>
        <time>2022-01-24T13:06:19Z</time>
      </trkpt>
      <trkpt lat="43.15731" lon="5.87851">
        <ele>441.2</ele>
        <time>2022-01-24T13:06:26Z</time>
      </trkpt>
      <trkpt lat="43.15741" lon="5.87848">
        <ele>442.4</ele>
        <time>2022-01-24T13:06:31Z</time>
      </trkpt>
      <trkpt lat="43.1575" lon="5.87847">
        <ele>443.4</ele>
        <time>2022-01-24T13:06:36Z</time>
      </trkpt>
      <trkpt lat="43.15763" lon="5.87847">
        <ele>444.6</ele>
        <time>2022-01-24T13:06:42Z</time>
      </trkpt>
      <trkpt lat="43.15775" lon="5.87848">
        <ele>445.8</ele>
        <time>2022-01-24T13:06:48Z</time>
      </trkpt>
      <trkpt lat="43.15788" lon="5.87849">
        <ele>446.8</ele>
        <time>2022-01-24T13:06:54Z</time>
      </trkpt>
      <trkpt lat="43.15798" lon="5.87852">
        <ele>447.8</ele>
        <time>2022-01-24T13:06:59Z</time>
      </trkpt>
      <trkpt lat="43.15808" lon="5.87853">
        <ele>449</ele>
        <time>2022-01-24T13:07:04Z</time>
      </trkpt>
      <trkpt lat="43.1582" lon="5.87858">
        <ele>450</ele>
        <time>2022-01-24T13:07:10Z</time>
      </trkpt>
      <trkpt lat="43.15829" lon="5.87863">
        <ele>451.2</ele>
        <time>2022-01-24T13:07:15Z</time>
      </trkpt>
      <trkpt lat="43.15841" lon="5.87871">
        <ele>452.4</ele>
        <time>2022-01-24T13:07:21Z</time>
      </trkpt>
      <trkpt lat="43.15852" lon="5.87874">
        <ele>453.6</ele>
        <time>2022-01-24T13:07:26Z</time>
      </trkpt>
      <trkpt lat="43.15864" lon="5.87877">
        <ele>454.8</ele>
        <time>2022-01-24T13:07:32Z</time>
      </trkpt>
      <trkpt lat="43.15878" lon="5.87879">
        <ele>455.8</ele>
        <time>2022-01-24T13:07:39Z</time>
      </trkpt>
      <trkpt lat="43.15892" lon="5.87882">
        <ele>457</ele>
        <time>2022-01-24T13:07:46Z</time>
      </trkpt>
      <trkpt lat="43.159" lon="5.87882">
        <ele>458</ele>
        <time>2022-01-24T13:07:50Z</time>
      </trkpt>
      <trkpt lat="43.15911" lon="5.87881">
        <ele>459.4</ele>
        <time>2022-01-24T13:07:55Z</time>
      </trkpt>
      <trkpt lat="43.15919" lon="5.8788">
        <ele>460.4</ele>
        <time>2022-01-24T13:07:59Z</time>
      </trkpt>
      <trkpt lat="43.15931" lon="5.87874">
        <ele>461.8</ele>
        <time>2022-01-24T13:08:05Z</time>
      </trkpt>
      <trkpt lat="43.15939" lon="5.87869">
        <ele>462.8</ele>
        <time>2022-01-24T13:08:09Z</time>
      </trkpt>
      <trkpt lat="43.1595" lon="5.87859">
        <ele>464</ele>
        <time>2022-01-24T13:08:15Z</time>
      </trkpt>
      <trkpt lat="43.15959" lon="5.87851">
        <ele>465.2</ele>
        <time>2022-01-24T13:08:20Z</time>
      </trkpt>
      <trkpt lat="43.15964" lon="5.87843">
        <ele>466.4</ele>
        <time>2022-01-24T13:08:24Z</time>
      </trkpt>
      <trkpt lat="43.15968" lon="5.87827">
        <ele>467.8</ele>
        <time>2022-01-24T13:08:30Z</time>
      </trkpt>
      <trkpt lat="43.1597" lon="5.87811">
        <ele>468.8</ele>
        <time>2022-01-24T13:08:36Z</time>
      </trkpt>
      <trkpt lat="43.15974" lon="5.87796">
        <ele>470</ele>
        <time>2022-01-24T13:08:41Z</time>
      </trkpt>
      <trkpt lat="43.15977" lon="5.87786">
        <ele>471</ele>
        <time>2022-01-24T13:08:45Z</time>
      </trkpt>
      <trkpt lat="43.1598" lon="5.87775">
        <ele>472.2</ele>
        <time>2022-01-24T13:08:49Z</time>
      </trkpt>
      <trkpt lat="43.15985" lon="5.8776">
        <ele>473.2</ele>
        <time>2022-01-24T13:08:55Z</time>
      </trkpt>
      <trkpt lat="43.15989" lon="5.87741">
        <ele>474.4</ele>
        <time>2022-01-24T13:09:02Z</time>
      </trkpt>
      <trkpt lat="43.15992" lon="5.87726">
        <ele>475.4</ele>
        <time>2022-01-24T13:09:07Z</time>
      </trkpt>
      <trkpt lat="43.15993" lon="5.8771">
        <ele>476.4</ele>
        <time>2022-01-24T13:09:13Z</time>
      </trkpt>
      <trkpt lat="43.15996" lon="5.87696">
        <ele>477.6</ele>
        <time>2022-01-24T13:09:18Z</time>
      </trkpt>
      <trkpt lat="43.15999" lon="5.87683">
        <ele>478.6</ele>
        <time>2022-01-24T13:09:23Z</time>
      </trkpt>
      <trkpt lat="43.16" lon="5.8768">
        <ele>478.8</ele>
        <time>2022-01-24T13:09:24Z</time>
      </trkpt>
      <trkpt lat="43.16005" lon="5.87668">
        <ele>479.8</ele>
        <time>2022-01-24T13:09:29Z</time>
      </trkpt>
      <trkpt lat="43.16009" lon="5.87655">
        <ele>481</ele>
        <time>2022-01-24T13:09:34Z</time>
      </trkpt>
      <trkpt lat="43.16012" lon="5.87643">
        <ele>482.2</ele>
        <time>2022-01-24T13:09:39Z</time>
      </trkpt>
      <trkpt lat="43.16019" lon="5.87632">
        <ele>483.4</ele>
        <time>2022-01-24T13:09:44Z</time>
      </trkpt>
      <trkpt lat="43.16031" lon="5.87624">
        <ele>484.6</ele>
        <time>2022-01-24T13:09:50Z</time>
      </trkpt>
      <trkpt lat="43.16041" lon="5.87612">
        <ele>485.8</ele>
        <time>2022-01-24T13:09:56Z</time>
      </trkpt>
      <trkpt lat="43.16048" lon="5.87594">
        <ele>487</ele>
        <time>2022-01-24T13:10:03Z</time>
      </trkpt>
      <trkpt lat="43.16055" lon="5.87582">
        <ele>488</ele>
        <time>2022-01-24T13:10:08Z</time>
      </trkpt>
      <trkpt lat="43.16065" lon="5.87577">
        <ele>489.2</ele>
        <time>2022-01-24T13:10:13Z</time>
      </trkpt>
      <trkpt lat="43.16088" lon="5.87593">
        <ele>490.2</ele>
        <time>2022-01-24T13:10:22Z</time>
      </trkpt>
      <trkpt lat="43.16106" lon="5.87623">
        <ele>490.6</ele>
        <time>2022-01-24T13:10:30Z</time>
      </trkpt>
      <trkpt lat="43.16126" lon="5.87693">
        <ele>490.6</ele>
        <time>2022-01-24T13:10:46Z</time>
      </trkpt>
      <trkpt lat="43.16136" lon="5.87739">
        <ele>490.8</ele>
        <time>2022-01-24T13:10:55Z</time>
      </trkpt>
      <trkpt lat="43.16142" lon="5.87816">
        <ele>491</ele>
        <time>2022-01-24T13:11:09Z</time>
      </trkpt>
      <trkpt lat="43.16138" lon="5.87836">
        <ele>491</ele>
        <time>2022-01-24T13:11:12Z</time>
      </trkpt>
      <trkpt lat="43.16159" lon="5.87863">
        <ele>491</ele>
        <time>2022-01-24T13:11:20Z</time>
      </trkpt>
      <trkpt lat="43.16203" lon="5.87892">
        <ele>491.2</ele>
        <time>2022-01-24T13:11:32Z</time>
      </trkpt>
      <trkpt lat="43.1622" lon="5.87914">
        <ele>491.4</ele>
        <time>2022-01-24T13:11:38Z</time>
      </trkpt>
      <trkpt lat="43.16241" lon="5.87951">
        <ele>491.6</ele>
        <time>2022-01-24T13:11:46Z</time>
      </trkpt>
      <trkpt lat="43.16262" lon="5.87996">
        <ele>491.8</ele>
        <time>2022-01-24T13:11:55Z</time>
      </trkpt>
      <trkpt lat="43.16288" lon="5.88063">
        <ele>492</ele>
        <time>2022-01-24T13:12:06Z</time>
      </trkpt>
      <trkpt lat="43.1631" lon="5.88137">
        <ele>491.8</ele>
        <time>2022-01-24T13:12:17Z</time>
      </trkpt>
      <trkpt lat="43.1632" lon="5.88164">
        <ele>491.6</ele>
        <time>2022-01-24T13:12:21Z</time>
      </trkpt>
      <trkpt lat="43.1633" lon="5.88187">
        <ele>491.6</ele>
        <time>2022-01-24T13:12:25Z</time>
      </trkpt>
      <trkpt lat="43.16337" lon="5.88196">
        <ele>491.6</ele>
        <time>2022-01-24T13:12:27Z</time>
      </trkpt>
      <trkpt lat="43.16355" lon="5.88228">
        <ele>492.4</ele>
        <time>2022-01-24T13:12:35Z</time>
      </trkpt>
      <trkpt lat="43.16377" lon="5.8826">
        <ele>493.6</ele>
        <time>2022-01-24T13:12:44Z</time>
      </trkpt>
      <trkpt lat="43.16384" lon="5.88272">
        <ele>493.8</ele>
        <time>2022-01-24T13:12:47Z</time>
      </trkpt>
      <trkpt lat="43.16393" lon="5.88283">
        <ele>494.8</ele>
        <time>2022-01-24T13:12:50Z</time>
      </trkpt>
      <trkpt lat="43.16431" lon="5.88338">
        <ele>495</ele>
        <time>2022-01-24T13:13:03Z</time>
      </trkpt>
      <trkpt lat="43.16455" lon="5.88376">
        <ele>493.6</ele>
        <time>2022-01-24T13:13:11Z</time>
      </trkpt>
      <trkpt lat="43.16457" lon="5.88382">
        <ele>493.6</ele>
        <time>2022-01-24T13:13:12Z</time>
      </trkpt>
      <trkpt lat="43.16469" lon="5.88417">
        <ele>493</ele>
        <time>2022-01-24T13:13:17Z</time>
      </trkpt>
      <trkpt lat="43.16471" lon="5.88424">
        <ele>492.6</ele>
        <time>2022-01-24T13:13:18Z</time>
      </trkpt>
      <trkpt lat="43.16473" lon="5.8843">
        <ele>492.2</ele>
        <time>2022-01-24T13:13:19Z</time>
      </trkpt>
      <trkpt lat="43.16479" lon="5.88447">
        <ele>491.2</ele>
        <time>2022-01-24T13:13:22Z</time>
      </trkpt>
      <trkpt lat="43.16501" lon="5.88512">
        <ele>492.2</ele>
        <time>2022-01-24T13:13:39Z</time>
      </trkpt>
      <trkpt lat="43.1651" lon="5.88528">
        <ele>493.2</ele>
        <time>2022-01-24T13:13:45Z</time>
      </trkpt>
      <trkpt lat="43.16519" lon="5.88545">
        <ele>494.2</ele>
        <time>2022-01-24T13:13:51Z</time>
      </trkpt>
      <trkpt lat="43.16525" lon="5.88555">
        <ele>495.2</ele>
        <time>2022-01-24T13:13:55Z</time>
      </trkpt>
      <trkpt lat="43.16532" lon="5.8857">
        <ele>496.4</ele>
        <time>2022-01-24T13:14:01Z</time>
      </trkpt>
      <trkpt lat="43.16537" lon="5.88585">
        <ele>497.6</ele>
        <time>2022-01-24T13:14:07Z</time>
      </trkpt>
      <trkpt lat="43.16539" lon="5.88606">
        <ele>498.6</ele>
        <time>2022-01-24T13:14:13Z</time>
      </trkpt>
      <trkpt lat="43.1654" lon="5.88624">
        <ele>499.6</ele>
        <time>2022-01-24T13:14:19Z</time>
      </trkpt>
      <trkpt lat="43.16541" lon="5.88627">
        <ele>499.8</ele>
        <time>2022-01-24T13:14:20Z</time>
      </trkpt>
      <trkpt lat="43.16538" lon="5.88658">
        <ele>501</ele>
        <time>2022-01-24T13:14:30Z</time>
      </trkpt>
      <trkpt lat="43.16531" lon="5.88678">
        <ele>502.2</ele>
        <time>2022-01-24T13:14:37Z</time>
      </trkpt>
      <trkpt lat="43.16522" lon="5.88707">
        <ele>503.4</ele>
        <time>2022-01-24T13:14:46Z</time>
      </trkpt>
      <trkpt lat="43.1652" lon="5.88717">
        <ele>503.6</ele>
        <time>2022-01-24T13:14:49Z</time>
      </trkpt>
      <trkpt lat="43.16517" lon="5.88731">
        <ele>504.4</ele>
        <time>2022-01-24T13:14:53Z</time>
      </trkpt>
      <trkpt lat="43.16506" lon="5.88772">
        <ele>505.4</ele>
        <time>2022-01-24T13:15:03Z</time>
      </trkpt>
      <trkpt lat="43.16496" lon="5.88806">
        <ele>506</ele>
        <time>2022-01-24T13:15:11Z</time>
      </trkpt>
      <trkpt lat="43.16462" lon="5.88817">
        <ele>506.8</ele>
        <time>2022-01-24T13:15:22Z</time>
      </trkpt>
      <trkpt lat="43.16409" lon="5.88812">
        <ele>507</ele>
        <time>2022-01-24T13:15:38Z</time>
      </trkpt>
      <trkpt lat="43.16395" lon="5.8882">
        <ele>507.8</ele>
        <time>2022-01-24T13:15:44Z</time>
      </trkpt>
      <trkpt lat="43.16381" lon="5.88822">
        <ele>509</ele>
        <time>2022-01-24T13:15:50Z</time>
      </trkpt>
      <trkpt lat="43.16371" lon="5.88821">
        <ele>510.2</ele>
        <time>2022-01-24T13:15:54Z</time>
      </trkpt>
      <trkpt lat="43.16357" lon="5.88815">
        <ele>511.2</ele>
        <time>2022-01-24T13:16:00Z</time>
      </trkpt>
      <trkpt lat="43.16342" lon="5.88808">
        <ele>512.4</ele>
        <time>2022-01-24T13:16:07Z</time>
      </trkpt>
      <trkpt lat="43.16329" lon="5.88806">
        <ele>513.4</ele>
        <time>2022-01-24T13:16:12Z</time>
      </trkpt>
      <trkpt lat="43.16317" lon="5.88807">
        <ele>514.8</ele>
        <time>2022-01-24T13:16:18Z</time>
      </trkpt>
      <trkpt lat="43.16309" lon="5.88808">
        <ele>515.6</ele>
        <time>2022-01-24T13:16:22Z</time>
      </trkpt>
      <trkpt lat="43.16297" lon="5.8881">
        <ele>516.8</ele>
        <time>2022-01-24T13:16:28Z</time>
      </trkpt>
      <trkpt lat="43.16286" lon="5.88814">
        <ele>517.8</ele>
        <time>2022-01-24T13:16:34Z</time>
      </trkpt>
      <trkpt lat="43.16275" lon="5.88818">
        <ele>519</ele>
        <time>2022-01-24T13:16:39Z</time>
      </trkpt>
      <trkpt lat="43.16261" lon="5.88831">
        <ele>520</ele>
        <time>2022-01-24T13:16:46Z</time>
      </trkpt>
      <trkpt lat="43.16264" lon="5.88863">
        <ele>521.2</ele>
        <time>2022-01-24T13:16:57Z</time>
      </trkpt>
      <trkpt lat="43.16272" lon="5.88883">
        <ele>522.2</ele>
        <time>2022-01-24T13:17:05Z</time>
      </trkpt>
      <trkpt lat="43.16275" lon="5.8889">
        <ele>523.4</ele>
        <time>2022-01-24T13:17:08Z</time>
      </trkpt>
      <trkpt lat="43.1628" lon="5.8891">
        <ele>524.6</ele>
        <time>2022-01-24T13:17:15Z</time>
      </trkpt>
      <trkpt lat="43.16285" lon="5.88926">
        <ele>525.6</ele>
        <time>2022-01-24T13:17:21Z</time>
      </trkpt>
      <trkpt lat="43.16289" lon="5.88939">
        <ele>526.8</ele>
        <time>2022-01-24T13:17:26Z</time>
      </trkpt>
      <trkpt lat="43.16293" lon="5.88953">
        <ele>527.8</ele>
        <time>2022-01-24T13:17:31Z</time>
      </trkpt>
      <trkpt lat="43.16297" lon="5.88974">
        <ele>529</ele>
        <time>2022-01-24T13:17:38Z</time>
      </trkpt>
      <trkpt lat="43.163" lon="5.88989">
        <ele>530</ele>
        <time>2022-01-24T13:17:43Z</time>
      </trkpt>
      <trkpt lat="43.16303" lon="5.89003">
        <ele>531.2</ele>
        <time>2022-01-24T13:17:48Z</time>
      </trkpt>
      <trkpt lat="43.16308" lon="5.89022">
        <ele>532.2</ele>
        <time>2022-01-24T13:17:55Z</time>
      </trkpt>
      <trkpt lat="43.16312" lon="5.89037">
        <ele>533.6</ele>
        <time>2022-01-24T13:18:01Z</time>
      </trkpt>
      <trkpt lat="43.16318" lon="5.89047">
        <ele>534.8</ele>
        <time>2022-01-24T13:18:06Z</time>
      </trkpt>
      <trkpt lat="43.16324" lon="5.89057">
        <ele>535.8</ele>
        <time>2022-01-24T13:18:10Z</time>
      </trkpt>
      <trkpt lat="43.16329" lon="5.89064">
        <ele>537.4</ele>
        <time>2022-01-24T13:18:14Z</time>
      </trkpt>
      <trkpt lat="43.16335" lon="5.89076">
        <ele>538.6</ele>
        <time>2022-01-24T13:18:19Z</time>
      </trkpt>
      <trkpt lat="43.16343" lon="5.89087">
        <ele>539.6</ele>
        <time>2022-01-24T13:18:24Z</time>
      </trkpt>
      <trkpt lat="43.16352" lon="5.891">
        <ele>540.8</ele>
        <time>2022-01-24T13:18:29Z</time>
      </trkpt>
      <trkpt lat="43.16359" lon="5.89112">
        <ele>541.8</ele>
        <time>2022-01-24T13:18:34Z</time>
      </trkpt>
      <trkpt lat="43.16369" lon="5.89129">
        <ele>543</ele>
        <time>2022-01-24T13:18:41Z</time>
      </trkpt>
      <trkpt lat="43.16378" lon="5.89147">
        <ele>544.2</ele>
        <time>2022-01-24T13:18:48Z</time>
      </trkpt>
      <trkpt lat="43.16385" lon="5.89162">
        <ele>545.4</ele>
        <time>2022-01-24T13:18:54Z</time>
      </trkpt>
      <trkpt lat="43.16389" lon="5.8918">
        <ele>546.4</ele>
        <time>2022-01-24T13:19:00Z</time>
      </trkpt>
      <trkpt lat="43.1639" lon="5.89195">
        <ele>547.6</ele>
        <time>2022-01-24T13:19:05Z</time>
      </trkpt>
      <trkpt lat="43.16385" lon="5.89216">
        <ele>548.6</ele>
        <time>2022-01-24T13:19:12Z</time>
      </trkpt>
      <trkpt lat="43.16374" lon="5.89235">
        <ele>549.8</ele>
        <time>2022-01-24T13:19:19Z</time>
      </trkpt>
      <trkpt lat="43.16367" lon="5.89243">
        <ele>550.8</ele>
        <time>2022-01-24T13:19:23Z</time>
      </trkpt>
      <trkpt lat="43.16355" lon="5.89256">
        <ele>552</ele>
        <time>2022-01-24T13:19:30Z</time>
      </trkpt>
      <trkpt lat="43.16344" lon="5.89268">
        <ele>553</ele>
        <time>2022-01-24T13:19:36Z</time>
      </trkpt>
      <trkpt lat="43.16335" lon="5.89281">
        <ele>554.4</ele>
        <time>2022-01-24T13:19:42Z</time>
      </trkpt>
      <trkpt lat="43.16328" lon="5.89293">
        <ele>555.4</ele>
        <time>2022-01-24T13:19:47Z</time>
      </trkpt>
      <trkpt lat="43.16321" lon="5.89306">
        <ele>556.6</ele>
        <time>2022-01-24T13:19:52Z</time>
      </trkpt>
      <trkpt lat="43.16318" lon="5.89316">
        <ele>557.8</ele>
        <time>2022-01-24T13:19:56Z</time>
      </trkpt>
      <trkpt lat="43.16317" lon="5.89325">
        <ele>558.8</ele>
        <time>2022-01-24T13:19:59Z</time>
      </trkpt>
      <trkpt lat="43.16321" lon="5.89339">
        <ele>560</ele>
        <time>2022-01-24T13:20:04Z</time>
      </trkpt>
      <trkpt lat="43.16327" lon="5.89342">
        <ele>561</ele>
        <time>2022-01-24T13:20:07Z</time>
      </trkpt>
      <trkpt lat="43.16329" lon="5.89342">
        <ele>561.4</ele>
        <time>2022-01-24T13:20:08Z</time>
      </trkpt>
      <trkpt lat="43.16337" lon="5.89335">
        <ele>562.4</ele>
        <time>2022-01-24T13:20:12Z</time>
      </trkpt>
      <trkpt lat="43.16343" lon="5.89331">
        <ele>563.6</ele>
        <time>2022-01-24T13:20:15Z</time>
      </trkpt>
      <trkpt lat="43.16352" lon="5.89325">
        <ele>564.6</ele>
        <time>2022-01-24T13:20:20Z</time>
      </trkpt>
      <trkpt lat="43.16365" lon="5.89324">
        <ele>565.8</ele>
        <time>2022-01-24T13:20:26Z</time>
      </trkpt>
      <trkpt lat="43.16376" lon="5.89329">
        <ele>567</ele>
        <time>2022-01-24T13:20:31Z</time>
      </trkpt>
      <trkpt lat="43.16384" lon="5.89335">
        <ele>568</ele>
        <time>2022-01-24T13:20:36Z</time>
      </trkpt>
      <trkpt lat="43.16388" lon="5.89341">
        <ele>568.6</ele>
        <time>2022-01-24T13:20:39Z</time>
      </trkpt>
      <trkpt lat="43.16388" lon="5.89346">
        <ele>569</ele>
        <time>2022-01-24T13:20:41Z</time>
      </trkpt>
      <trkpt lat="43.16386" lon="5.89359">
        <ele>570.2</ele>
        <time>2022-01-24T13:20:46Z</time>
      </trkpt>
      <trkpt lat="43.16383" lon="5.89371">
        <ele>571.4</ele>
        <time>2022-01-24T13:20:51Z</time>
      </trkpt>
      <trkpt lat="43.16383" lon="5.89373">
        <ele>572.6</ele>
        <time>2022-01-24T13:20:56Z</time>
      </trkpt>
      <trkpt lat="43.16382" lon="5.89372">
        <ele>573.4</ele>
        <time>2022-01-24T13:21:03Z</time>
      </trkpt>
      <trkpt lat="43.16383" lon="5.89372">
        <ele>573.4</ele>
        <time>2022-01-24T13:21:17Z</time>
      </trkpt>
      <trkpt lat="43.16383" lon="5.89372">
        <ele>573.4</ele>
        <time>2022-01-24T13:21:23Z</time>
      </trkpt>
      <trkpt lat="43.16383" lon="5.89372">
        <ele>573.4</ele>
        <time>2022-01-24T13:21:30Z</time>
      </trkpt>
      <trkpt lat="43.16383" lon="5.89372">
        <ele>573.2</ele>
        <time>2022-01-24T13:21:39Z</time>
      </trkpt>
      <trkpt lat="43.16383" lon="5.89372">
        <ele>573</ele>
        <time>2022-01-24T13:21:51Z</time>
      </trkpt>
      <trkpt lat="43.16383" lon="5.89373">
        <ele>573.2</ele>
        <time>2022-01-24T13:22:10Z</time>
      </trkpt>
      <trkpt lat="43.1639" lon="5.89375">
        <ele>572.8</ele>
        <time>2022-01-24T13:22:45Z</time>
      </trkpt>
      <trkpt lat="43.16385" lon="5.8937">
        <ele>572.6</ele>
        <time>2022-01-24T13:23:08Z</time>
      </trkpt>
      <trkpt lat="43.16385" lon="5.8937">
        <ele>573.2</ele>
        <time>2022-01-24T13:23:17Z</time>
      </trkpt>
      <trkpt lat="43.16385" lon="5.8937">
        <ele>572.8</ele>
        <time>2022-01-24T13:23:31Z</time>
      </trkpt>
      <trkpt lat="43.16385" lon="5.89371">
        <ele>572.8</ele>
        <time>2022-01-24T13:23:39Z</time>
      </trkpt>
      <trkpt lat="43.16386" lon="5.89369">
        <ele>573</ele>
        <time>2022-01-24T13:23:55Z</time>
      </trkpt>
      <trkpt lat="43.16387" lon="5.89368">
        <ele>573</ele>
        <time>2022-01-24T13:23:59Z</time>
      </trkpt>
      <trkpt lat="43.16387" lon="5.89365">
        <ele>573</ele>
        <time>2022-01-24T13:24:06Z</time>
      </trkpt>
      <trkpt lat="43.16388" lon="5.89336">
        <ele>572.8</ele>
        <time>2022-01-24T13:24:15Z</time>
      </trkpt>
      <trkpt lat="43.1638" lon="5.89326">
        <ele>572.4</ele>
        <time>2022-01-24T13:24:18Z</time>
      </trkpt>
      <trkpt lat="43.16376" lon="5.89323">
        <ele>572.2</ele>
        <time>2022-01-24T13:24:20Z</time>
      </trkpt>
      <trkpt lat="43.16375" lon="5.89321">
        <ele>572</ele>
        <time>2022-01-24T13:24:21Z</time>
      </trkpt>
      <trkpt lat="43.16375" lon="5.89314">
        <ele>571.4</ele>
        <time>2022-01-24T13:24:23Z</time>
      </trkpt>
      <trkpt lat="43.16375" lon="5.89303">
        <ele>570.2</ele>
        <time>2022-01-24T13:24:26Z</time>
      </trkpt>
      <trkpt lat="43.16375" lon="5.89297">
        <ele>569.2</ele>
        <time>2022-01-24T13:24:28Z</time>
      </trkpt>
      <trkpt lat="43.16374" lon="5.89286">
        <ele>567.8</ele>
        <time>2022-01-24T13:24:31Z</time>
      </trkpt>
      <trkpt lat="43.16374" lon="5.89283">
        <ele>566.6</ele>
        <time>2022-01-24T13:24:32Z</time>
      </trkpt>
      <trkpt lat="43.16372" lon="5.89275">
        <ele>565.4</ele>
        <time>2022-01-24T13:24:34Z</time>
      </trkpt>
      <trkpt lat="43.16371" lon="5.89268">
        <ele>563.8</ele>
        <time>2022-01-24T13:24:36Z</time>
      </trkpt>
      <trkpt lat="43.1637" lon="5.89265">
        <ele>562.8</ele>
        <time>2022-01-24T13:24:37Z</time>
      </trkpt>
      <trkpt lat="43.16367" lon="5.8926">
        <ele>561.4</ele>
        <time>2022-01-24T13:24:39Z</time>
      </trkpt>
      <trkpt lat="43.16365" lon="5.89254">
        <ele>559.8</ele>
        <time>2022-01-24T13:24:41Z</time>
      </trkpt>
      <trkpt lat="43.16365" lon="5.89248">
        <ele>558</ele>
        <time>2022-01-24T13:24:43Z</time>
      </trkpt>
      <trkpt lat="43.16365" lon="5.89248">
        <ele>556.8</ele>
        <time>2022-01-24T13:24:45Z</time>
      </trkpt>
      <trkpt lat="43.16366" lon="5.89247">
        <ele>555.2</ele>
        <time>2022-01-24T13:24:47Z</time>
      </trkpt>
      <trkpt lat="43.16367" lon="5.89245">
        <ele>554.4</ele>
        <time>2022-01-24T13:24:48Z</time>
      </trkpt>
      <trkpt lat="43.16368" lon="5.89243">
        <ele>554</ele>
        <time>2022-01-24T13:24:49Z</time>
      </trkpt>
      <trkpt lat="43.16377" lon="5.8923">
        <ele>553</ele>
        <time>2022-01-24T13:24:53Z</time>
      </trkpt>
      <trkpt lat="43.16383" lon="5.89222">
        <ele>552.8</ele>
        <time>2022-01-24T13:24:55Z</time>
      </trkpt>
      <trkpt lat="43.16388" lon="5.89202">
        <ele>552.4</ele>
        <time>2022-01-24T13:24:58Z</time>
      </trkpt>
      <trkpt lat="43.16388" lon="5.89178">
        <ele>552</ele>
        <time>2022-01-24T13:25:01Z</time>
      </trkpt>
      <trkpt lat="43.16377" lon="5.89146">
        <ele>551</ele>
        <time>2022-01-24T13:25:05Z</time>
      </trkpt>
      <trkpt lat="43.16374" lon="5.89138">
        <ele>550</ele>
        <time>2022-01-24T13:25:06Z</time>
      </trkpt>
      <trkpt lat="43.16361" lon="5.89113">
        <ele>548.8</ele>
        <time>2022-01-24T13:25:09Z</time>
      </trkpt>
      <trkpt lat="43.16351" lon="5.89098">
        <ele>547.8</ele>
        <time>2022-01-24T13:25:11Z</time>
      </trkpt>
      <trkpt lat="43.16336" lon="5.89077">
        <ele>546.4</ele>
        <time>2022-01-24T13:25:14Z</time>
      </trkpt>
      <trkpt lat="43.16325" lon="5.8906">
        <ele>545.2</ele>
        <time>2022-01-24T13:25:16Z</time>
      </trkpt>
      <trkpt lat="43.16316" lon="5.89047">
        <ele>544.4</ele>
        <time>2022-01-24T13:25:18Z</time>
      </trkpt>
      <trkpt lat="43.16313" lon="5.8904">
        <ele>544</ele>
        <time>2022-01-24T13:25:19Z</time>
      </trkpt>
      <trkpt lat="43.16307" lon="5.89024">
        <ele>543</ele>
        <time>2022-01-24T13:25:21Z</time>
      </trkpt>
      <trkpt lat="43.16304" lon="5.89014">
        <ele>542.4</ele>
        <time>2022-01-24T13:25:22Z</time>
      </trkpt>
      <trkpt lat="43.16302" lon="5.89003">
        <ele>541.6</ele>
        <time>2022-01-24T13:25:23Z</time>
      </trkpt>
      <trkpt lat="43.16298" lon="5.8898">
        <ele>540.2</ele>
        <time>2022-01-24T13:25:25Z</time>
      </trkpt>
      <trkpt lat="43.16293" lon="5.88956">
        <ele>538.6</ele>
        <time>2022-01-24T13:25:27Z</time>
      </trkpt>
      <trkpt lat="43.16287" lon="5.88933">
        <ele>537.4</ele>
        <time>2022-01-24T13:25:29Z</time>
      </trkpt>
      <trkpt lat="43.1628" lon="5.88909">
        <ele>536</ele>
        <time>2022-01-24T13:25:31Z</time>
      </trkpt>
      <trkpt lat="43.16277" lon="5.88898">
        <ele>535</ele>
        <time>2022-01-24T13:25:32Z</time>
      </trkpt>
      <trkpt lat="43.16269" lon="5.88877">
        <ele>533.4</ele>
        <time>2022-01-24T13:25:34Z</time>
      </trkpt>
      <trkpt lat="43.16261" lon="5.88857">
        <ele>531.8</ele>
        <time>2022-01-24T13:25:36Z</time>
      </trkpt>
      <trkpt lat="43.16259" lon="5.88849">
        <ele>531.2</ele>
        <time>2022-01-24T13:25:37Z</time>
      </trkpt>
      <trkpt lat="43.16258" lon="5.88841">
        <ele>530.6</ele>
        <time>2022-01-24T13:25:38Z</time>
      </trkpt>
      <trkpt lat="43.16261" lon="5.88827">
        <ele>529</ele>
        <time>2022-01-24T13:25:40Z</time>
      </trkpt>
      <trkpt lat="43.16265" lon="5.88822">
        <ele>527.4</ele>
        <time>2022-01-24T13:25:41Z</time>
      </trkpt>
      <trkpt lat="43.16275" lon="5.88816">
        <ele>525.6</ele>
        <time>2022-01-24T13:25:43Z</time>
      </trkpt>
      <trkpt lat="43.1628" lon="5.88814">
        <ele>524.6</ele>
        <time>2022-01-24T13:25:44Z</time>
      </trkpt>
      <trkpt lat="43.16285" lon="5.88812">
        <ele>523.6</ele>
        <time>2022-01-24T13:25:45Z</time>
      </trkpt>
      <trkpt lat="43.16291" lon="5.88811">
        <ele>522.8</ele>
        <time>2022-01-24T13:25:46Z</time>
      </trkpt>
      <trkpt lat="43.16304" lon="5.88808">
        <ele>521.8</ele>
        <time>2022-01-24T13:25:48Z</time>
      </trkpt>
      <trkpt lat="43.16341" lon="5.88809">
        <ele>520.8</ele>
        <time>2022-01-24T13:25:53Z</time>
      </trkpt>
      <trkpt lat="43.16357" lon="5.88814">
        <ele>520.2</ele>
        <time>2022-01-24T13:25:55Z</time>
      </trkpt>
      <trkpt lat="43.16364" lon="5.88817">
        <ele>519.6</ele>
        <time>2022-01-24T13:25:56Z</time>
      </trkpt>
      <trkpt lat="43.16376" lon="5.88822">
        <ele>518.4</ele>
        <time>2022-01-24T13:25:58Z</time>
      </trkpt>
      <trkpt lat="43.16389" lon="5.88821">
        <ele>517.2</ele>
        <time>2022-01-24T13:26:00Z</time>
      </trkpt>
      <trkpt lat="43.16403" lon="5.88817">
        <ele>516.2</ele>
        <time>2022-01-24T13:26:02Z</time>
      </trkpt>
      <trkpt lat="43.16409" lon="5.88813">
        <ele>515.6</ele>
        <time>2022-01-24T13:26:03Z</time>
      </trkpt>
      <trkpt lat="43.16416" lon="5.8881">
        <ele>514.8</ele>
        <time>2022-01-24T13:26:04Z</time>
      </trkpt>
      <trkpt lat="43.16429" lon="5.88807">
        <ele>513.2</ele>
        <time>2022-01-24T13:26:06Z</time>
      </trkpt>
      <trkpt lat="43.16441" lon="5.88807">
        <ele>512.2</ele>
        <time>2022-01-24T13:26:08Z</time>
      </trkpt>
      <trkpt lat="43.16453" lon="5.88811">
        <ele>511.2</ele>
        <time>2022-01-24T13:26:10Z</time>
      </trkpt>
      <trkpt lat="43.16458" lon="5.88814">
        <ele>510.8</ele>
        <time>2022-01-24T13:26:11Z</time>
      </trkpt>
      <trkpt lat="43.16468" lon="5.88817">
        <ele>509</ele>
        <time>2022-01-24T13:26:13Z</time>
      </trkpt>
      <trkpt lat="43.16477" lon="5.88819">
        <ele>507.6</ele>
        <time>2022-01-24T13:26:15Z</time>
      </trkpt>
      <trkpt lat="43.165" lon="5.88791">
        <ele>506.8</ele>
        <time>2022-01-24T13:26:23Z</time>
      </trkpt>
      <trkpt lat="43.16501" lon="5.88785">
        <ele>506.8</ele>
        <time>2022-01-24T13:26:24Z</time>
      </trkpt>
      <trkpt lat="43.16511" lon="5.88747">
        <ele>506.6</ele>
        <time>2022-01-24T13:26:30Z</time>
      </trkpt>
      <trkpt lat="43.16517" lon="5.88729">
        <ele>506.4</ele>
        <time>2022-01-24T13:26:33Z</time>
      </trkpt>
      <trkpt lat="43.16518" lon="5.88718">
        <ele>506.4</ele>
        <time>2022-01-24T13:26:35Z</time>
      </trkpt>
      <trkpt lat="43.16519" lon="5.88712">
        <ele>506.2</ele>
        <time>2022-01-24T13:26:36Z</time>
      </trkpt>
      <trkpt lat="43.16529" lon="5.88684">
        <ele>505.8</ele>
        <time>2022-01-24T13:26:41Z</time>
      </trkpt>
      <trkpt lat="43.16535" lon="5.88671">
        <ele>505.6</ele>
        <time>2022-01-24T13:26:43Z</time>
      </trkpt>
      <trkpt lat="43.16543" lon="5.88632">
        <ele>504.6</ele>
        <time>2022-01-24T13:26:48Z</time>
      </trkpt>
      <trkpt lat="43.16542" lon="5.88624">
        <ele>504.4</ele>
        <time>2022-01-24T13:26:49Z</time>
      </trkpt>
      <trkpt lat="43.1654" lon="5.88597">
        <ele>503.4</ele>
        <time>2022-01-24T13:26:52Z</time>
      </trkpt>
      <trkpt lat="43.16538" lon="5.8858">
        <ele>502.8</ele>
        <time>2022-01-24T13:26:54Z</time>
      </trkpt>
      <trkpt lat="43.16532" lon="5.88565">
        <ele>502.2</ele>
        <time>2022-01-24T13:26:56Z</time>
      </trkpt>
      <trkpt lat="43.16524" lon="5.88549">
        <ele>501.6</ele>
        <time>2022-01-24T13:26:58Z</time>
      </trkpt>
      <trkpt lat="43.16515" lon="5.88534">
        <ele>501</ele>
        <time>2022-01-24T13:27:00Z</time>
      </trkpt>
      <trkpt lat="43.16506" lon="5.88516">
        <ele>500</ele>
        <time>2022-01-24T13:27:02Z</time>
      </trkpt>
      <trkpt lat="43.16502" lon="5.88507">
        <ele>499.4</ele>
        <time>2022-01-24T13:27:03Z</time>
      </trkpt>
      <trkpt lat="43.16498" lon="5.88497">
        <ele>498.8</ele>
        <time>2022-01-24T13:27:04Z</time>
      </trkpt>
      <trkpt lat="43.1649" lon="5.88466">
        <ele>497.4</ele>
        <time>2022-01-24T13:27:07Z</time>
      </trkpt>
      <trkpt lat="43.16479" lon="5.88436">
        <ele>496.4</ele>
        <time>2022-01-24T13:27:10Z</time>
      </trkpt>
      <trkpt lat="43.16474" lon="5.88417">
        <ele>495.2</ele>
        <time>2022-01-24T13:27:12Z</time>
      </trkpt>
      <trkpt lat="43.16469" lon="5.88401">
        <ele>494</ele>
        <time>2022-01-24T13:27:14Z</time>
      </trkpt>
      <trkpt lat="43.16462" lon="5.88382">
        <ele>492.8</ele>
        <time>2022-01-24T13:27:17Z</time>
      </trkpt>
      <trkpt lat="43.16438" lon="5.88344">
        <ele>492.6</ele>
        <time>2022-01-24T13:27:27Z</time>
      </trkpt>
      <trkpt lat="43.16426" lon="5.88331">
        <ele>493</ele>
        <time>2022-01-24T13:27:31Z</time>
      </trkpt>
      <trkpt lat="43.16415" lon="5.88311">
        <ele>494</ele>
        <time>2022-01-24T13:27:36Z</time>
      </trkpt>
      <trkpt lat="43.16392" lon="5.88277">
        <ele>494.6</ele>
        <time>2022-01-24T13:27:45Z</time>
      </trkpt>
      <trkpt lat="43.16371" lon="5.88249">
        <ele>495</ele>
        <time>2022-01-24T13:27:52Z</time>
      </trkpt>
      <trkpt lat="43.16351" lon="5.88213">
        <ele>495</ele>
        <time>2022-01-24T13:27:59Z</time>
      </trkpt>
      <trkpt lat="43.16333" lon="5.88188">
        <ele>493.8</ele>
        <time>2022-01-24T13:28:04Z</time>
      </trkpt>
      <trkpt lat="43.16324" lon="5.8817">
        <ele>493.2</ele>
        <time>2022-01-24T13:28:07Z</time>
      </trkpt>
      <trkpt lat="43.16321" lon="5.88164">
        <ele>493</ele>
        <time>2022-01-24T13:28:08Z</time>
      </trkpt>
      <trkpt lat="43.16314" lon="5.88146">
        <ele>492.4</ele>
        <time>2022-01-24T13:28:11Z</time>
      </trkpt>
      <trkpt lat="43.16309" lon="5.88128">
        <ele>492</ele>
        <time>2022-01-24T13:28:14Z</time>
      </trkpt>
      <trkpt lat="43.16307" lon="5.88122">
        <ele>491.8</ele>
        <time>2022-01-24T13:28:15Z</time>
      </trkpt>
      <trkpt lat="43.16299" lon="5.88095">
        <ele>491.8</ele>
        <time>2022-01-24T13:28:20Z</time>
      </trkpt>
      <trkpt lat="43.16299" lon="5.88091">
        <ele>491.6</ele>
        <time>2022-01-24T13:28:21Z</time>
      </trkpt>
      <trkpt lat="43.16313" lon="5.88091">
        <ele>491.6</ele>
        <time>2022-01-24T13:28:26Z</time>
      </trkpt>
      <trkpt lat="43.16357" lon="5.88133">
        <ele>491</ele>
        <time>2022-01-24T13:28:40Z</time>
      </trkpt>
      <trkpt lat="43.16373" lon="5.88154">
        <ele>492.2</ele>
        <time>2022-01-24T13:28:48Z</time>
      </trkpt>
      <trkpt lat="43.16384" lon="5.88164">
        <ele>493</ele>
        <time>2022-01-24T13:28:53Z</time>
      </trkpt>
      <trkpt lat="43.16401" lon="5.88174">
        <ele>494</ele>
        <time>2022-01-24T13:28:59Z</time>
      </trkpt>
      <trkpt lat="43.16419" lon="5.88184">
        <ele>495</ele>
        <time>2022-01-24T13:29:05Z</time>
      </trkpt>
      <trkpt lat="43.16421" lon="5.88185">
        <ele>495.2</ele>
        <time>2022-01-24T13:29:06Z</time>
      </trkpt>
      <trkpt lat="43.16438" lon="5.88199">
        <ele>496</ele>
        <time>2022-01-24T13:29:13Z</time>
      </trkpt>
      <trkpt lat="43.16443" lon="5.88204">
        <ele>496.2</ele>
        <time>2022-01-24T13:29:15Z</time>
      </trkpt>
      <trkpt lat="43.16474" lon="5.88234">
        <ele>497.2</ele>
        <time>2022-01-24T13:29:26Z</time>
      </trkpt>
      <trkpt lat="43.16477" lon="5.88237">
        <ele>497.4</ele>
        <time>2022-01-24T13:29:27Z</time>
      </trkpt>
      <trkpt lat="43.16518" lon="5.88288">
        <ele>497.8</ele>
        <time>2022-01-24T13:29:41Z</time>
      </trkpt>
      <trkpt lat="43.1657" lon="5.88313">
        <ele>498.2</ele>
        <time>2022-01-24T13:29:57Z</time>
      </trkpt>
      <trkpt lat="43.16573" lon="5.88313">
        <ele>498.2</ele>
        <time>2022-01-24T13:29:58Z</time>
      </trkpt>
      <trkpt lat="43.16625" lon="5.88294">
        <ele>498.6</ele>
        <time>2022-01-24T13:30:13Z</time>
      </trkpt>
      <trkpt lat="43.16661" lon="5.88247">
        <ele>499.2</ele>
        <time>2022-01-24T13:30:27Z</time>
      </trkpt>
      <trkpt lat="43.16684" lon="5.8823">
        <ele>500.2</ele>
        <time>2022-01-24T13:30:35Z</time>
      </trkpt>
      <trkpt lat="43.16691" lon="5.88231">
        <ele>500.6</ele>
        <time>2022-01-24T13:30:37Z</time>
      </trkpt>
      <trkpt lat="43.16696" lon="5.88241">
        <ele>501.2</ele>
        <time>2022-01-24T13:30:42Z</time>
      </trkpt>
      <trkpt lat="43.16695" lon="5.88247">
        <ele>501.4</ele>
        <time>2022-01-24T13:30:44Z</time>
      </trkpt>
      <trkpt lat="43.16694" lon="5.88271">
        <ele>502.4</ele>
        <time>2022-01-24T13:30:51Z</time>
      </trkpt>
      <trkpt lat="43.16691" lon="5.88294">
        <ele>503.6</ele>
        <time>2022-01-24T13:30:57Z</time>
      </trkpt>
      <trkpt lat="43.16688" lon="5.88314">
        <ele>504.6</ele>
        <time>2022-01-24T13:31:03Z</time>
      </trkpt>
      <trkpt lat="43.16685" lon="5.88341">
        <ele>505.8</ele>
        <time>2022-01-24T13:31:10Z</time>
      </trkpt>
      <trkpt lat="43.16677" lon="5.88388">
        <ele>506.6</ele>
        <time>2022-01-24T13:31:21Z</time>
      </trkpt>
      <trkpt lat="43.16678" lon="5.88396">
        <ele>506.8</ele>
        <time>2022-01-24T13:31:23Z</time>
      </trkpt>
      <trkpt lat="43.16678" lon="5.8841">
        <ele>507</ele>
        <time>2022-01-24T13:31:27Z</time>
      </trkpt>
      <trkpt lat="43.16674" lon="5.88439">
        <ele>507.6</ele>
        <time>2022-01-24T13:31:34Z</time>
      </trkpt>
      <trkpt lat="43.16665" lon="5.88486">
        <ele>506.2</ele>
        <time>2022-01-24T13:31:45Z</time>
      </trkpt>
      <trkpt lat="43.16664" lon="5.88492">
        <ele>505.6</ele>
        <time>2022-01-24T13:31:46Z</time>
      </trkpt>
      <trkpt lat="43.16662" lon="5.88505">
        <ele>504</ele>
        <time>2022-01-24T13:31:48Z</time>
      </trkpt>
      <trkpt lat="43.16657" lon="5.88515">
        <ele>502.4</ele>
        <time>2022-01-24T13:31:50Z</time>
      </trkpt>
      <trkpt lat="43.16654" lon="5.88524">
        <ele>501.2</ele>
        <time>2022-01-24T13:31:52Z</time>
      </trkpt>
      <trkpt lat="43.16653" lon="5.88529">
        <ele>500</ele>
        <time>2022-01-24T13:31:53Z</time>
      </trkpt>
      <trkpt lat="43.16652" lon="5.88533">
        <ele>499</ele>
        <time>2022-01-24T13:31:54Z</time>
      </trkpt>
      <trkpt lat="43.16652" lon="5.88536">
        <ele>498.2</ele>
        <time>2022-01-24T13:31:55Z</time>
      </trkpt>
      <trkpt lat="43.16652" lon="5.88538">
        <ele>497.4</ele>
        <time>2022-01-24T13:31:56Z</time>
      </trkpt>
      <trkpt lat="43.16655" lon="5.88537">
        <ele>496</ele>
        <time>2022-01-24T13:31:58Z</time>
      </trkpt>
      <trkpt lat="43.16658" lon="5.88532">
        <ele>494.6</ele>
        <time>2022-01-24T13:32:00Z</time>
      </trkpt>
      <trkpt lat="43.16664" lon="5.88528">
        <ele>492.8</ele>
        <time>2022-01-24T13:32:02Z</time>
      </trkpt>
      <trkpt lat="43.16668" lon="5.88525">
        <ele>491.4</ele>
        <time>2022-01-24T13:32:03Z</time>
      </trkpt>
      <trkpt lat="43.16678" lon="5.88514">
        <ele>490.2</ele>
        <time>2022-01-24T13:32:06Z</time>
      </trkpt>
      <trkpt lat="43.16686" lon="5.88505">
        <ele>489</ele>
        <time>2022-01-24T13:32:09Z</time>
      </trkpt>
      <trkpt lat="43.16688" lon="5.885">
        <ele>487.6</ele>
        <time>2022-01-24T13:32:11Z</time>
      </trkpt>
      <trkpt lat="43.16689" lon="5.88499">
        <ele>486</ele>
        <time>2022-01-24T13:32:13Z</time>
      </trkpt>
      <trkpt lat="43.16689" lon="5.88498">
        <ele>484.8</ele>
        <time>2022-01-24T13:32:16Z</time>
      </trkpt>
      <trkpt lat="43.16689" lon="5.88498">
        <ele>483.8</ele>
        <time>2022-01-24T13:32:18Z</time>
      </trkpt>
      <trkpt lat="43.16692" lon="5.88496">
        <ele>482.8</ele>
        <time>2022-01-24T13:32:23Z</time>
      </trkpt>
      <trkpt lat="43.16707" lon="5.88485">
        <ele>481.6</ele>
        <time>2022-01-24T13:32:29Z</time>
      </trkpt>
      <trkpt lat="43.16718" lon="5.88475">
        <ele>480.8</ele>
        <time>2022-01-24T13:32:32Z</time>
      </trkpt>
      <trkpt lat="43.16722" lon="5.8847">
        <ele>480.4</ele>
        <time>2022-01-24T13:32:33Z</time>
      </trkpt>
      <trkpt lat="43.1673" lon="5.88462">
        <ele>479.2</ele>
        <time>2022-01-24T13:32:35Z</time>
      </trkpt>
      <trkpt lat="43.16739" lon="5.88452">
        <ele>477.2</ele>
        <time>2022-01-24T13:32:38Z</time>
      </trkpt>
      <trkpt lat="43.16744" lon="5.88447">
        <ele>476</ele>
        <time>2022-01-24T13:32:40Z</time>
      </trkpt>
      <trkpt lat="43.16749" lon="5.88442">
        <ele>474.8</ele>
        <time>2022-01-24T13:32:42Z</time>
      </trkpt>
      <trkpt lat="43.16755" lon="5.88438">
        <ele>473.2</ele>
        <time>2022-01-24T13:32:44Z</time>
      </trkpt>
      <trkpt lat="43.16761" lon="5.88434">
        <ele>471.8</ele>
        <time>2022-01-24T13:32:46Z</time>
      </trkpt>
      <trkpt lat="43.16767" lon="5.88432">
        <ele>470.8</ele>
        <time>2022-01-24T13:32:48Z</time>
      </trkpt>
      <trkpt lat="43.16773" lon="5.88429">
        <ele>469.4</ele>
        <time>2022-01-24T13:32:50Z</time>
      </trkpt>
      <trkpt lat="43.16778" lon="5.88428">
        <ele>468.2</ele>
        <time>2022-01-24T13:32:52Z</time>
      </trkpt>
      <trkpt lat="43.16785" lon="5.88429">
        <ele>466.4</ele>
        <time>2022-01-24T13:32:54Z</time>
      </trkpt>
      <trkpt lat="43.16791" lon="5.88429">
        <ele>464.8</ele>
        <time>2022-01-24T13:32:56Z</time>
      </trkpt>
      <trkpt lat="43.16797" lon="5.88429">
        <ele>463.4</ele>
        <time>2022-01-24T13:32:58Z</time>
      </trkpt>
      <trkpt lat="43.16805" lon="5.88429">
        <ele>462.2</ele>
        <time>2022-01-24T13:33:00Z</time>
      </trkpt>
      <trkpt lat="43.16813" lon="5.88429">
        <ele>460.4</ele>
        <time>2022-01-24T13:33:02Z</time>
      </trkpt>
      <trkpt lat="43.16819" lon="5.88428">
        <ele>459.2</ele>
        <time>2022-01-24T13:33:04Z</time>
      </trkpt>
      <trkpt lat="43.16825" lon="5.88427">
        <ele>458.2</ele>
        <time>2022-01-24T13:33:06Z</time>
      </trkpt>
      <trkpt lat="43.16835" lon="5.88425">
        <ele>456.8</ele>
        <time>2022-01-24T13:33:09Z</time>
      </trkpt>
      <trkpt lat="43.1684" lon="5.88427">
        <ele>455.8</ele>
        <time>2022-01-24T13:33:11Z</time>
      </trkpt>
      <trkpt lat="43.16841" lon="5.8843">
        <ele>455</ele>
        <time>2022-01-24T13:33:12Z</time>
      </trkpt>
      <trkpt lat="43.16843" lon="5.88432">
        <ele>454.2</ele>
        <time>2022-01-24T13:33:13Z</time>
      </trkpt>
      <trkpt lat="43.16846" lon="5.8844">
        <ele>453.2</ele>
        <time>2022-01-24T13:33:15Z</time>
      </trkpt>
      <trkpt lat="43.1685" lon="5.88446">
        <ele>451.8</ele>
        <time>2022-01-24T13:33:17Z</time>
      </trkpt>
      <trkpt lat="43.16854" lon="5.88453">
        <ele>450.6</ele>
        <time>2022-01-24T13:33:19Z</time>
      </trkpt>
      <trkpt lat="43.16859" lon="5.88456">
        <ele>450.2</ele>
        <time>2022-01-24T13:33:20Z</time>
      </trkpt>
      <trkpt lat="43.16866" lon="5.88461">
        <ele>449.4</ele>
        <time>2022-01-24T13:33:22Z</time>
      </trkpt>
      <trkpt lat="43.16874" lon="5.88463">
        <ele>448.2</ele>
        <time>2022-01-24T13:33:24Z</time>
      </trkpt>
      <trkpt lat="43.16882" lon="5.88464">
        <ele>447</ele>
        <time>2022-01-24T13:33:26Z</time>
      </trkpt>
      <trkpt lat="43.16892" lon="5.88467">
        <ele>446</ele>
        <time>2022-01-24T13:33:29Z</time>
      </trkpt>
      <trkpt lat="43.16905" lon="5.88464">
        <ele>444.4</ele>
        <time>2022-01-24T13:33:33Z</time>
      </trkpt>
      <trkpt lat="43.16914" lon="5.88459">
        <ele>442.6</ele>
        <time>2022-01-24T13:33:36Z</time>
      </trkpt>
      <trkpt lat="43.1692" lon="5.88457">
        <ele>441.8</ele>
        <time>2022-01-24T13:33:38Z</time>
      </trkpt>
      <trkpt lat="43.16922" lon="5.88458">
        <ele>441.6</ele>
        <time>2022-01-24T13:33:39Z</time>
      </trkpt>
      <trkpt lat="43.16932" lon="5.88464">
        <ele>441.2</ele>
        <time>2022-01-24T13:33:43Z</time>
      </trkpt>
      <trkpt lat="43.16935" lon="5.88464">
        <ele>441.2</ele>
        <time>2022-01-24T13:33:44Z</time>
      </trkpt>
      <trkpt lat="43.16937" lon="5.88466">
        <ele>441</ele>
        <time>2022-01-24T13:33:45Z</time>
      </trkpt>
      <trkpt lat="43.16939" lon="5.88471">
        <ele>440.4</ele>
        <time>2022-01-24T13:33:47Z</time>
      </trkpt>
      <trkpt lat="43.1694" lon="5.88473">
        <ele>439.4</ele>
        <time>2022-01-24T13:33:48Z</time>
      </trkpt>
      <trkpt lat="43.16943" lon="5.88477">
        <ele>438</ele>
        <time>2022-01-24T13:33:50Z</time>
      </trkpt>
      <trkpt lat="43.16947" lon="5.88481">
        <ele>436.8</ele>
        <time>2022-01-24T13:33:52Z</time>
      </trkpt>
      <trkpt lat="43.1695" lon="5.88488">
        <ele>435.6</ele>
        <time>2022-01-24T13:33:54Z</time>
      </trkpt>
      <trkpt lat="43.16953" lon="5.88495">
        <ele>434.4</ele>
        <time>2022-01-24T13:33:56Z</time>
      </trkpt>
      <trkpt lat="43.16957" lon="5.88499">
        <ele>433.6</ele>
        <time>2022-01-24T13:33:58Z</time>
      </trkpt>
      <trkpt lat="43.16959" lon="5.88502">
        <ele>433.2</ele>
        <time>2022-01-24T13:33:59Z</time>
      </trkpt>
      <trkpt lat="43.16961" lon="5.88509">
        <ele>432.2</ele>
        <time>2022-01-24T13:34:01Z</time>
      </trkpt>
      <trkpt lat="43.16962" lon="5.88516">
        <ele>431</ele>
        <time>2022-01-24T13:34:03Z</time>
      </trkpt>
      <trkpt lat="43.16966" lon="5.88519">
        <ele>429.8</ele>
        <time>2022-01-24T13:34:05Z</time>
      </trkpt>
      <trkpt lat="43.16967" lon="5.88519">
        <ele>429.2</ele>
        <time>2022-01-24T13:34:06Z</time>
      </trkpt>
      <trkpt lat="43.16969" lon="5.8852">
        <ele>428.6</ele>
        <time>2022-01-24T13:34:07Z</time>
      </trkpt>
      <trkpt lat="43.16973" lon="5.88526">
        <ele>427.2</ele>
        <time>2022-01-24T13:34:10Z</time>
      </trkpt>
      <trkpt lat="43.16974" lon="5.88532">
        <ele>425.6</ele>
        <time>2022-01-24T13:34:12Z</time>
      </trkpt>
      <trkpt lat="43.16975" lon="5.88539">
        <ele>424.4</ele>
        <time>2022-01-24T13:34:14Z</time>
      </trkpt>
      <trkpt lat="43.16976" lon="5.88545">
        <ele>423</ele>
        <time>2022-01-24T13:34:16Z</time>
      </trkpt>
      <trkpt lat="43.16977" lon="5.8855">
        <ele>421.8</ele>
        <time>2022-01-24T13:34:18Z</time>
      </trkpt>
      <trkpt lat="43.16979" lon="5.88556">
        <ele>420</ele>
        <time>2022-01-24T13:34:20Z</time>
      </trkpt>
      <trkpt lat="43.1698" lon="5.88559">
        <ele>419</ele>
        <time>2022-01-24T13:34:21Z</time>
      </trkpt>
      <trkpt lat="43.1698" lon="5.88564">
        <ele>416.8</ele>
        <time>2022-01-24T13:34:23Z</time>
      </trkpt>
      <trkpt lat="43.1698" lon="5.88568">
        <ele>415.6</ele>
        <time>2022-01-24T13:34:25Z</time>
      </trkpt>
      <trkpt lat="43.16981" lon="5.88571">
        <ele>414</ele>
        <time>2022-01-24T13:34:27Z</time>
      </trkpt>
      <trkpt lat="43.16983" lon="5.88575">
        <ele>412.4</ele>
        <time>2022-01-24T13:34:29Z</time>
      </trkpt>
      <trkpt lat="43.16984" lon="5.88581">
        <ele>411</ele>
        <time>2022-01-24T13:34:31Z</time>
      </trkpt>
      <trkpt lat="43.16985" lon="5.88586">
        <ele>410</ele>
        <time>2022-01-24T13:34:33Z</time>
      </trkpt>
      <trkpt lat="43.16987" lon="5.88591">
        <ele>408.8</ele>
        <time>2022-01-24T13:34:35Z</time>
      </trkpt>
      <trkpt lat="43.16992" lon="5.88598">
        <ele>407</ele>
        <time>2022-01-24T13:34:38Z</time>
      </trkpt>
      <trkpt lat="43.16993" lon="5.88605">
        <ele>405.6</ele>
        <time>2022-01-24T13:34:40Z</time>
      </trkpt>
      <trkpt lat="43.16991" lon="5.88612">
        <ele>404.4</ele>
        <time>2022-01-24T13:34:42Z</time>
      </trkpt>
      <trkpt lat="43.1699" lon="5.88617">
        <ele>403</ele>
        <time>2022-01-24T13:34:44Z</time>
      </trkpt>
      <trkpt lat="43.16989" lon="5.88619">
        <ele>402.2</ele>
        <time>2022-01-24T13:34:45Z</time>
      </trkpt>
      <trkpt lat="43.16989" lon="5.8862">
        <ele>401.6</ele>
        <time>2022-01-24T13:34:46Z</time>
      </trkpt>
      <trkpt lat="43.1699" lon="5.88624">
        <ele>400</ele>
        <time>2022-01-24T13:34:48Z</time>
      </trkpt>
      <trkpt lat="43.16992" lon="5.88632">
        <ele>398.4</ele>
        <time>2022-01-24T13:34:50Z</time>
      </trkpt>
      <trkpt lat="43.16994" lon="5.8864">
        <ele>397</ele>
        <time>2022-01-24T13:34:52Z</time>
      </trkpt>
      <trkpt lat="43.16995" lon="5.88648">
        <ele>395.6</ele>
        <time>2022-01-24T13:34:54Z</time>
      </trkpt>
      <trkpt lat="43.16997" lon="5.88656">
        <ele>394.6</ele>
        <time>2022-01-24T13:34:56Z</time>
      </trkpt>
      <trkpt lat="43.17002" lon="5.88682">
        <ele>393.4</ele>
        <time>2022-01-24T13:35:01Z</time>
      </trkpt>
      <trkpt lat="43.17012" lon="5.88704">
        <ele>393.2</ele>
        <time>2022-01-24T13:35:06Z</time>
      </trkpt>
      <trkpt lat="43.17023" lon="5.8872">
        <ele>393</ele>
        <time>2022-01-24T13:35:10Z</time>
      </trkpt>
      <trkpt lat="43.17031" lon="5.88744">
        <ele>392</ele>
        <time>2022-01-24T13:35:14Z</time>
      </trkpt>
      <trkpt lat="43.17033" lon="5.8875">
        <ele>391.6</ele>
        <time>2022-01-24T13:35:15Z</time>
      </trkpt>
      <trkpt lat="43.17037" lon="5.88762">
        <ele>390.8</ele>
        <time>2022-01-24T13:35:17Z</time>
      </trkpt>
      <trkpt lat="43.17037" lon="5.88782">
        <ele>389.6</ele>
        <time>2022-01-24T13:35:20Z</time>
      </trkpt>
      <trkpt lat="43.17042" lon="5.88797">
        <ele>388.6</ele>
        <time>2022-01-24T13:35:31Z</time>
      </trkpt>
      <trkpt lat="43.17043" lon="5.88798">
        <ele>388</ele>
        <time>2022-01-24T13:35:41Z</time>
      </trkpt>
      <trkpt lat="43.17043" lon="5.88793">
        <ele>388</ele>
        <time>2022-01-24T13:35:58Z</time>
      </trkpt>
      <trkpt lat="43.17043" lon="5.88791">
        <ele>388</ele>
        <time>2022-01-24T13:35:59Z</time>
      </trkpt>
      <trkpt lat="43.1705" lon="5.88764">
        <ele>388</ele>
        <time>2022-01-24T13:36:04Z</time>
      </trkpt>
      <trkpt lat="43.17053" lon="5.88758">
        <ele>388</ele>
        <time>2022-01-24T13:36:05Z</time>
      </trkpt>
      <trkpt lat="43.17064" lon="5.88741">
        <ele>388</ele>
        <time>2022-01-24T13:36:10Z</time>
      </trkpt>
      <trkpt lat="43.17062" lon="5.88727">
        <ele>387.4</ele>
        <time>2022-01-24T13:36:13Z</time>
      </trkpt>
      <trkpt lat="43.17062" lon="5.88719">
        <ele>385.8</ele>
        <time>2022-01-24T13:36:15Z</time>
      </trkpt>
      <trkpt lat="43.17063" lon="5.88713">
        <ele>384.4</ele>
        <time>2022-01-24T13:36:17Z</time>
      </trkpt>
      <trkpt lat="43.17065" lon="5.88705">
        <ele>383.4</ele>
        <time>2022-01-24T13:36:19Z</time>
      </trkpt>
      <trkpt lat="43.17068" lon="5.88691">
        <ele>382</ele>
        <time>2022-01-24T13:36:22Z</time>
      </trkpt>
      <trkpt lat="43.17068" lon="5.88673">
        <ele>380.6</ele>
        <time>2022-01-24T13:36:26Z</time>
      </trkpt>
      <trkpt lat="43.17071" lon="5.88666">
        <ele>379</ele>
        <time>2022-01-24T13:36:29Z</time>
      </trkpt>
      <trkpt lat="43.17073" lon="5.88656">
        <ele>377.8</ele>
        <time>2022-01-24T13:36:32Z</time>
      </trkpt>
      <trkpt lat="43.17072" lon="5.88647">
        <ele>375.8</ele>
        <time>2022-01-24T13:36:35Z</time>
      </trkpt>
      <trkpt lat="43.17076" lon="5.88634">
        <ele>374.6</ele>
        <time>2022-01-24T13:36:38Z</time>
      </trkpt>
      <trkpt lat="43.17077" lon="5.88628">
        <ele>374.4</ele>
        <time>2022-01-24T13:36:39Z</time>
      </trkpt>
      <trkpt lat="43.17085" lon="5.88599">
        <ele>373.6</ele>
        <time>2022-01-24T13:36:44Z</time>
      </trkpt>
      <trkpt lat="43.17088" lon="5.88593">
        <ele>373.6</ele>
        <time>2022-01-24T13:36:45Z</time>
      </trkpt>
      <trkpt lat="43.1709" lon="5.88588">
        <ele>373.6</ele>
        <time>2022-01-24T13:36:46Z</time>
      </trkpt>
      <trkpt lat="43.17101" lon="5.88571">
        <ele>372.4</ele>
        <time>2022-01-24T13:36:50Z</time>
      </trkpt>
      <trkpt lat="43.17105" lon="5.88563">
        <ele>371.2</ele>
        <time>2022-01-24T13:36:52Z</time>
      </trkpt>
      <trkpt lat="43.1711" lon="5.88556">
        <ele>370.2</ele>
        <time>2022-01-24T13:36:54Z</time>
      </trkpt>
      <trkpt lat="43.17115" lon="5.88551">
        <ele>368.8</ele>
        <time>2022-01-24T13:36:56Z</time>
      </trkpt>
      <trkpt lat="43.17121" lon="5.88546">
        <ele>367.6</ele>
        <time>2022-01-24T13:36:58Z</time>
      </trkpt>
      <trkpt lat="43.17129" lon="5.88531">
        <ele>366.2</ele>
        <time>2022-01-24T13:37:01Z</time>
      </trkpt>
      <trkpt lat="43.17138" lon="5.88516">
        <ele>364.8</ele>
        <time>2022-01-24T13:37:05Z</time>
      </trkpt>
      <trkpt lat="43.17147" lon="5.88506">
        <ele>363.6</ele>
        <time>2022-01-24T13:37:09Z</time>
      </trkpt>
      <trkpt lat="43.17163" lon="5.88493">
        <ele>362.2</ele>
        <time>2022-01-24T13:37:14Z</time>
      </trkpt>
      <trkpt lat="43.17173" lon="5.88472">
        <ele>360.8</ele>
        <time>2022-01-24T13:37:20Z</time>
      </trkpt>
      <trkpt lat="43.1718" lon="5.88463">
        <ele>359.6</ele>
        <time>2022-01-24T13:37:23Z</time>
      </trkpt>
      <trkpt lat="43.17193" lon="5.8844">
        <ele>358.4</ele>
        <time>2022-01-24T13:37:28Z</time>
      </trkpt>
      <trkpt lat="43.17203" lon="5.88426">
        <ele>357</ele>
        <time>2022-01-24T13:37:31Z</time>
      </trkpt>
      <trkpt lat="43.1721" lon="5.88417">
        <ele>355.8</ele>
        <time>2022-01-24T13:37:33Z</time>
      </trkpt>
      <trkpt lat="43.17216" lon="5.88408">
        <ele>355</ele>
        <time>2022-01-24T13:37:35Z</time>
      </trkpt>
      <trkpt lat="43.17218" lon="5.88405">
        <ele>354.4</ele>
        <time>2022-01-24T13:37:36Z</time>
      </trkpt>
      <trkpt lat="43.17228" lon="5.88396">
        <ele>353.2</ele>
        <time>2022-01-24T13:37:40Z</time>
      </trkpt>
      <trkpt lat="43.17246" lon="5.88378">
        <ele>352</ele>
        <time>2022-01-24T13:37:46Z</time>
      </trkpt>
      <trkpt lat="43.17258" lon="5.88363">
        <ele>350.8</ele>
        <time>2022-01-24T13:37:50Z</time>
      </trkpt>
      <trkpt lat="43.17273" lon="5.88345">
        <ele>349.8</ele>
        <time>2022-01-24T13:37:54Z</time>
      </trkpt>
      <trkpt lat="43.17276" lon="5.8834">
        <ele>349.4</ele>
        <time>2022-01-24T13:37:55Z</time>
      </trkpt>
      <trkpt lat="43.17282" lon="5.88332">
        <ele>348.6</ele>
        <time>2022-01-24T13:37:57Z</time>
      </trkpt>
      <trkpt lat="43.17295" lon="5.88316">
        <ele>347.4</ele>
        <time>2022-01-24T13:38:01Z</time>
      </trkpt>
      <trkpt lat="43.17297" lon="5.88312">
        <ele>347.4</ele>
        <time>2022-01-24T13:38:02Z</time>
      </trkpt>
      <trkpt lat="43.173" lon="5.88298">
        <ele>345.8</ele>
        <time>2022-01-24T13:38:05Z</time>
      </trkpt>
      <trkpt lat="43.17302" lon="5.88287">
        <ele>344.8</ele>
        <time>2022-01-24T13:38:08Z</time>
      </trkpt>
      <trkpt lat="43.1731" lon="5.88271">
        <ele>343.6</ele>
        <time>2022-01-24T13:38:12Z</time>
      </trkpt>
      <trkpt lat="43.17318" lon="5.88257">
        <ele>342.6</ele>
        <time>2022-01-24T13:38:15Z</time>
      </trkpt>
      <trkpt lat="43.17324" lon="5.88233">
        <ele>341.2</ele>
        <time>2022-01-24T13:38:20Z</time>
      </trkpt>
      <trkpt lat="43.17326" lon="5.88227">
        <ele>340.8</ele>
        <time>2022-01-24T13:38:21Z</time>
      </trkpt>
      <trkpt lat="43.17331" lon="5.88216">
        <ele>339.8</ele>
        <time>2022-01-24T13:38:23Z</time>
      </trkpt>
      <trkpt lat="43.17336" lon="5.88205">
        <ele>338.6</ele>
        <time>2022-01-24T13:38:25Z</time>
      </trkpt>
      <trkpt lat="43.1734" lon="5.88195">
        <ele>337.2</ele>
        <time>2022-01-24T13:38:28Z</time>
      </trkpt>
      <trkpt lat="43.17344" lon="5.88184">
        <ele>336</ele>
        <time>2022-01-24T13:38:31Z</time>
      </trkpt>
      <trkpt lat="43.17348" lon="5.88171">
        <ele>334.6</ele>
        <time>2022-01-24T13:38:34Z</time>
      </trkpt>
      <trkpt lat="43.17356" lon="5.88151">
        <ele>333.2</ele>
        <time>2022-01-24T13:38:38Z</time>
      </trkpt>
      <trkpt lat="43.1736" lon="5.88142">
        <ele>332.2</ele>
        <time>2022-01-24T13:38:40Z</time>
      </trkpt>
      <trkpt lat="43.17364" lon="5.88131">
        <ele>331.6</ele>
        <time>2022-01-24T13:38:42Z</time>
      </trkpt>
      <trkpt lat="43.17369" lon="5.88115">
        <ele>331</ele>
        <time>2022-01-24T13:38:45Z</time>
      </trkpt>
      <trkpt lat="43.17371" lon="5.88109">
        <ele>330.6</ele>
        <time>2022-01-24T13:38:46Z</time>
      </trkpt>
      <trkpt lat="43.17376" lon="5.88089">
        <ele>330</ele>
        <time>2022-01-24T13:38:49Z</time>
      </trkpt>
      <trkpt lat="43.17389" lon="5.88045">
        <ele>328.4</ele>
        <time>2022-01-24T13:38:55Z</time>
      </trkpt>
      <trkpt lat="43.17393" lon="5.8803">
        <ele>328</ele>
        <time>2022-01-24T13:38:57Z</time>
      </trkpt>
      <trkpt lat="43.17399" lon="5.88014">
        <ele>327.4</ele>
        <time>2022-01-24T13:38:59Z</time>
      </trkpt>
      <trkpt lat="43.17408" lon="5.8798">
        <ele>326.2</ele>
        <time>2022-01-24T13:39:03Z</time>
      </trkpt>
      <trkpt lat="43.1741" lon="5.87961">
        <ele>325.2</ele>
        <time>2022-01-24T13:39:06Z</time>
      </trkpt>
      <trkpt lat="43.1741" lon="5.87951">
        <ele>323.8</ele>
        <time>2022-01-24T13:39:09Z</time>
      </trkpt>
      <trkpt lat="43.17409" lon="5.87941">
        <ele>322.2</ele>
        <time>2022-01-24T13:39:12Z</time>
      </trkpt>
      <trkpt lat="43.17408" lon="5.8793">
        <ele>320.6</ele>
        <time>2022-01-24T13:39:14Z</time>
      </trkpt>
      <trkpt lat="43.17407" lon="5.8792">
        <ele>319.2</ele>
        <time>2022-01-24T13:39:16Z</time>
      </trkpt>
      <trkpt lat="43.17408" lon="5.87902">
        <ele>318.4</ele>
        <time>2022-01-24T13:39:19Z</time>
      </trkpt>
      <trkpt lat="43.17412" lon="5.87888">
        <ele>318</ele>
        <time>2022-01-24T13:39:21Z</time>
      </trkpt>
      <trkpt lat="43.17423" lon="5.8786">
        <ele>317.2</ele>
        <time>2022-01-24T13:39:25Z</time>
      </trkpt>
      <trkpt lat="43.17426" lon="5.87853">
        <ele>316.8</ele>
        <time>2022-01-24T13:39:26Z</time>
      </trkpt>
      <trkpt lat="43.17436" lon="5.87823">
        <ele>315.2</ele>
        <time>2022-01-24T13:39:30Z</time>
      </trkpt>
      <trkpt lat="43.17445" lon="5.87794">
        <ele>313.8</ele>
        <time>2022-01-24T13:39:34Z</time>
      </trkpt>
      <trkpt lat="43.17457" lon="5.87751">
        <ele>312.6</ele>
        <time>2022-01-24T13:39:40Z</time>
      </trkpt>
      <trkpt lat="43.17463" lon="5.87732">
        <ele>311.4</ele>
        <time>2022-01-24T13:39:43Z</time>
      </trkpt>
      <trkpt lat="43.1747" lon="5.87709">
        <ele>310.2</ele>
        <time>2022-01-24T13:39:48Z</time>
      </trkpt>
      <trkpt lat="43.17475" lon="5.87692">
        <ele>308.6</ele>
        <time>2022-01-24T13:39:51Z</time>
      </trkpt>
      <trkpt lat="43.17478" lon="5.87679">
        <ele>307.6</ele>
        <time>2022-01-24T13:39:53Z</time>
      </trkpt>
      <trkpt lat="43.17478" lon="5.87647">
        <ele>306.6</ele>
        <time>2022-01-24T13:39:57Z</time>
      </trkpt>
      <trkpt lat="43.17478" lon="5.87639">
        <ele>306.4</ele>
        <time>2022-01-24T13:39:58Z</time>
      </trkpt>
      <trkpt lat="43.17477" lon="5.87591">
        <ele>305.2</ele>
        <time>2022-01-24T13:40:03Z</time>
      </trkpt>
      <trkpt lat="43.17483" lon="5.87557">
        <ele>304</ele>
        <time>2022-01-24T13:40:07Z</time>
      </trkpt>
      <trkpt lat="43.17489" lon="5.87545">
        <ele>303</ele>
        <time>2022-01-24T13:40:09Z</time>
      </trkpt>
      <trkpt lat="43.17502" lon="5.87534">
        <ele>302.2</ele>
        <time>2022-01-24T13:40:13Z</time>
      </trkpt>
      <trkpt lat="43.17539" lon="5.87504">
        <ele>304</ele>
        <time>2022-01-24T13:40:30Z</time>
      </trkpt>
      <trkpt lat="43.17539" lon="5.87505">
        <ele>304.2</ele>
        <time>2022-01-24T13:40:31Z</time>
      </trkpt>
      <trkpt lat="43.17534" lon="5.87514">
        <ele>305.2</ele>
        <time>2022-01-24T13:40:36Z</time>
      </trkpt>
      <trkpt lat="43.17529" lon="5.8752">
        <ele>305.4</ele>
        <time>2022-01-24T13:40:39Z</time>
      </trkpt>
      <trkpt lat="43.17521" lon="5.8753">
        <ele>306.4</ele>
        <time>2022-01-24T13:40:44Z</time>
      </trkpt>
      <trkpt lat="43.17513" lon="5.87538">
        <ele>306.8</ele>
        <time>2022-01-24T13:40:48Z</time>
      </trkpt>
      <trkpt lat="43.17504" lon="5.87549">
        <ele>307.6</ele>
        <time>2022-01-24T13:40:53Z</time>
      </trkpt>
      <trkpt lat="43.17496" lon="5.87566">
        <ele>308.6</ele>
        <time>2022-01-24T13:40:59Z</time>
      </trkpt>
      <trkpt lat="43.17494" lon="5.8758">
        <ele>309.6</ele>
        <time>2022-01-24T13:41:03Z</time>
      </trkpt>
      <trkpt lat="43.175" lon="5.87604">
        <ele>310.8</ele>
        <time>2022-01-24T13:41:10Z</time>
      </trkpt>
      <trkpt lat="43.17506" lon="5.87622">
        <ele>311.8</ele>
        <time>2022-01-24T13:41:16Z</time>
      </trkpt>
      <trkpt lat="43.17512" lon="5.87638">
        <ele>312.8</ele>
        <time>2022-01-24T13:41:21Z</time>
      </trkpt>
      <trkpt lat="43.17517" lon="5.87657">
        <ele>314</ele>
        <time>2022-01-24T13:41:27Z</time>
      </trkpt>
      <trkpt lat="43.17518" lon="5.87678">
        <ele>315</ele>
        <time>2022-01-24T13:41:33Z</time>
      </trkpt>
      <trkpt lat="43.17515" lon="5.87701">
        <ele>316.2</ele>
        <time>2022-01-24T13:41:40Z</time>
      </trkpt>
      <trkpt lat="43.17512" lon="5.87722">
        <ele>317.4</ele>
        <time>2022-01-24T13:41:46Z</time>
      </trkpt>
      <trkpt lat="43.17509" lon="5.87736">
        <ele>318.4</ele>
        <time>2022-01-24T13:41:50Z</time>
      </trkpt>
      <trkpt lat="43.17505" lon="5.87753">
        <ele>319.8</ele>
        <time>2022-01-24T13:41:55Z</time>
      </trkpt>
      <trkpt lat="43.17501" lon="5.87773">
        <ele>320.8</ele>
        <time>2022-01-24T13:42:01Z</time>
      </trkpt>
      <trkpt lat="43.17496" lon="5.87797">
        <ele>322</ele>
        <time>2022-01-24T13:42:08Z</time>
      </trkpt>
      <trkpt lat="43.17493" lon="5.87814">
        <ele>323.2</ele>
        <time>2022-01-24T13:42:13Z</time>
      </trkpt>
      <trkpt lat="43.17489" lon="5.87834">
        <ele>324.2</ele>
        <time>2022-01-24T13:42:19Z</time>
      </trkpt>
      <trkpt lat="43.17485" lon="5.87855">
        <ele>325.4</ele>
        <time>2022-01-24T13:42:25Z</time>
      </trkpt>
      <trkpt lat="43.17481" lon="5.87872">
        <ele>326.4</ele>
        <time>2022-01-24T13:42:30Z</time>
      </trkpt>
      <trkpt lat="43.17477" lon="5.87893">
        <ele>327.6</ele>
        <time>2022-01-24T13:42:36Z</time>
      </trkpt>
      <trkpt lat="43.17473" lon="5.8791">
        <ele>328.6</ele>
        <time>2022-01-24T13:42:41Z</time>
      </trkpt>
      <trkpt lat="43.1747" lon="5.8793">
        <ele>329.6</ele>
        <time>2022-01-24T13:42:47Z</time>
      </trkpt>
      <trkpt lat="43.17466" lon="5.87955">
        <ele>330.8</ele>
        <time>2022-01-24T13:42:54Z</time>
      </trkpt>
      <trkpt lat="43.17463" lon="5.87977">
        <ele>331.8</ele>
        <time>2022-01-24T13:43:00Z</time>
      </trkpt>
      <trkpt lat="43.1746" lon="5.87995">
        <ele>332.8</ele>
        <time>2022-01-24T13:43:05Z</time>
      </trkpt>
      <trkpt lat="43.17458" lon="5.88019">
        <ele>334</ele>
        <time>2022-01-24T13:43:12Z</time>
      </trkpt>
      <trkpt lat="43.17454" lon="5.88036">
        <ele>335</ele>
        <time>2022-01-24T13:43:17Z</time>
      </trkpt>
      <trkpt lat="43.17442" lon="5.88083">
        <ele>337.2</ele>
        <time>2022-01-24T13:43:32Z</time>
      </trkpt>
      <trkpt lat="43.17438" lon="5.881">
        <ele>338.4</ele>
        <time>2022-01-24T13:43:37Z</time>
      </trkpt>
      <trkpt lat="43.17434" lon="5.88118">
        <ele>339.4</ele>
        <time>2022-01-24T13:43:42Z</time>
      </trkpt>
      <trkpt lat="43.1743" lon="5.88138">
        <ele>340.6</ele>
        <time>2022-01-24T13:43:48Z</time>
      </trkpt>
      <trkpt lat="43.17425" lon="5.8816">
        <ele>341.6</ele>
        <time>2022-01-24T13:43:54Z</time>
      </trkpt>
      <trkpt lat="43.17418" lon="5.88184">
        <ele>342.8</ele>
        <time>2022-01-24T13:44:01Z</time>
      </trkpt>
      <trkpt lat="43.17413" lon="5.88201">
        <ele>343.8</ele>
        <time>2022-01-24T13:44:06Z</time>
      </trkpt>
      <trkpt lat="43.17411" lon="5.88215">
        <ele>345</ele>
        <time>2022-01-24T13:44:10Z</time>
      </trkpt>
      <trkpt lat="43.17407" lon="5.88233">
        <ele>345.8</ele>
        <time>2022-01-24T13:44:15Z</time>
      </trkpt>
      <trkpt lat="43.17406" lon="5.8824">
        <ele>346</ele>
        <time>2022-01-24T13:44:17Z</time>
      </trkpt>
      <trkpt lat="43.17399" lon="5.88265">
        <ele>347</ele>
        <time>2022-01-24T13:44:25Z</time>
      </trkpt>
      <trkpt lat="43.17395" lon="5.88283">
        <ele>348.2</ele>
        <time>2022-01-24T13:44:31Z</time>
      </trkpt>
      <trkpt lat="43.1739" lon="5.88305">
        <ele>349.2</ele>
        <time>2022-01-24T13:44:38Z</time>
      </trkpt>
      <trkpt lat="43.17388" lon="5.88324">
        <ele>350.4</ele>
        <time>2022-01-24T13:44:44Z</time>
      </trkpt>
      <trkpt lat="43.17387" lon="5.88343">
        <ele>351.6</ele>
        <time>2022-01-24T13:44:50Z</time>
      </trkpt>
      <trkpt lat="43.17384" lon="5.88362">
        <ele>352.6</ele>
        <time>2022-01-24T13:44:56Z</time>
      </trkpt>
      <trkpt lat="43.17379" lon="5.88377">
        <ele>353.6</ele>
        <time>2022-01-24T13:45:01Z</time>
      </trkpt>
      <trkpt lat="43.17371" lon="5.88392">
        <ele>354.6</ele>
        <time>2022-01-24T13:45:07Z</time>
      </trkpt>
      <trkpt lat="43.17359" lon="5.88412">
        <ele>355.8</ele>
        <time>2022-01-24T13:45:15Z</time>
      </trkpt>
      <trkpt lat="43.17349" lon="5.88424">
        <ele>356.8</ele>
        <time>2022-01-24T13:45:20Z</time>
      </trkpt>
      <trkpt lat="43.17337" lon="5.88425">
        <ele>358</ele>
        <time>2022-01-24T13:45:24Z</time>
      </trkpt>
      <trkpt lat="43.17313" lon="5.88419">
        <ele>359.2</ele>
        <time>2022-01-24T13:45:32Z</time>
      </trkpt>
      <trkpt lat="43.17295" lon="5.88434">
        <ele>360.2</ele>
        <time>2022-01-24T13:45:40Z</time>
      </trkpt>
      <trkpt lat="43.17281" lon="5.8845">
        <ele>361.4</ele>
        <time>2022-01-24T13:45:47Z</time>
      </trkpt>
      <trkpt lat="43.1727" lon="5.8846">
        <ele>362.4</ele>
        <time>2022-01-24T13:45:53Z</time>
      </trkpt>
      <trkpt lat="43.17258" lon="5.88468">
        <ele>363.6</ele>
        <time>2022-01-24T13:45:59Z</time>
      </trkpt>
      <trkpt lat="43.17246" lon="5.88475">
        <ele>364.8</ele>
        <time>2022-01-24T13:46:05Z</time>
      </trkpt>
      <trkpt lat="43.17236" lon="5.88482">
        <ele>366</ele>
        <time>2022-01-24T13:46:10Z</time>
      </trkpt>
      <trkpt lat="43.17228" lon="5.88487">
        <ele>366.8</ele>
        <time>2022-01-24T13:46:14Z</time>
      </trkpt>
      <trkpt lat="43.17226" lon="5.88489">
        <ele>367</ele>
        <time>2022-01-24T13:46:15Z</time>
      </trkpt>
      <trkpt lat="43.17214" lon="5.88502">
        <ele>368.2</ele>
        <time>2022-01-24T13:46:21Z</time>
      </trkpt>
      <trkpt lat="43.17199" lon="5.88519">
        <ele>369.2</ele>
        <time>2022-01-24T13:46:28Z</time>
      </trkpt>
      <trkpt lat="43.17179" lon="5.88537">
        <ele>370.4</ele>
        <time>2022-01-24T13:46:36Z</time>
      </trkpt>
      <trkpt lat="43.17161" lon="5.88553">
        <ele>371.6</ele>
        <time>2022-01-24T13:46:44Z</time>
      </trkpt>
      <trkpt lat="43.17144" lon="5.88567">
        <ele>372.6</ele>
        <time>2022-01-24T13:46:51Z</time>
      </trkpt>
      <trkpt lat="43.17129" lon="5.88582">
        <ele>373.6</ele>
        <time>2022-01-24T13:46:58Z</time>
      </trkpt>
      <trkpt lat="43.17118" lon="5.88598">
        <ele>374.8</ele>
        <time>2022-01-24T13:47:04Z</time>
      </trkpt>
      <trkpt lat="43.17112" lon="5.88619">
        <ele>375.8</ele>
        <time>2022-01-24T13:47:10Z</time>
      </trkpt>
      <trkpt lat="43.17107" lon="5.88641">
        <ele>377</ele>
        <time>2022-01-24T13:47:16Z</time>
      </trkpt>
      <trkpt lat="43.17102" lon="5.88666">
        <ele>378.2</ele>
        <time>2022-01-24T13:47:23Z</time>
      </trkpt>
      <trkpt lat="43.17098" lon="5.88684">
        <ele>379.2</ele>
        <time>2022-01-24T13:47:28Z</time>
      </trkpt>
      <trkpt lat="43.17091" lon="5.88704">
        <ele>380.2</ele>
        <time>2022-01-24T13:47:34Z</time>
      </trkpt>
      <trkpt lat="43.17084" lon="5.88724">
        <ele>381.2</ele>
        <time>2022-01-24T13:47:40Z</time>
      </trkpt>
      <trkpt lat="43.17076" lon="5.88741">
        <ele>382.4</ele>
        <time>2022-01-24T13:47:45Z</time>
      </trkpt>
      <trkpt lat="43.17067" lon="5.88754">
        <ele>383.4</ele>
        <time>2022-01-24T13:47:50Z</time>
      </trkpt>
      <trkpt lat="43.17052" lon="5.88769">
        <ele>384.6</ele>
        <time>2022-01-24T13:47:57Z</time>
      </trkpt>
      <trkpt lat="43.17045" lon="5.88786">
        <ele>385.8</ele>
        <time>2022-01-24T13:48:02Z</time>
      </trkpt>
      <trkpt lat="43.17039" lon="5.88808">
        <ele>386.8</ele>
        <time>2022-01-24T13:48:08Z</time>
      </trkpt>
      <trkpt lat="43.17015" lon="5.88821">
        <ele>388</ele>
        <time>2022-01-24T13:48:17Z</time>
      </trkpt>
      <trkpt lat="43.17002" lon="5.88818">
        <ele>389</ele>
        <time>2022-01-24T13:48:22Z</time>
      </trkpt>
      <trkpt lat="43.16992" lon="5.88809">
        <ele>390</ele>
        <time>2022-01-24T13:48:26Z</time>
      </trkpt>
      <trkpt lat="43.16977" lon="5.88791">
        <ele>391.2</ele>
        <time>2022-01-24T13:48:32Z</time>
      </trkpt>
      <trkpt lat="43.1694" lon="5.88743">
        <ele>392.2</ele>
        <time>2022-01-24T13:48:46Z</time>
      </trkpt>
      <trkpt lat="43.16927" lon="5.88732">
        <ele>392.4</ele>
        <time>2022-01-24T13:48:50Z</time>
      </trkpt>
      <trkpt lat="43.16906" lon="5.88713">
        <ele>392.4</ele>
        <time>2022-01-24T13:48:55Z</time>
      </trkpt>
      <trkpt lat="43.16872" lon="5.88683">
        <ele>391.4</ele>
        <time>2022-01-24T13:49:01Z</time>
      </trkpt>
      <trkpt lat="43.16866" lon="5.88677">
        <ele>391</ele>
        <time>2022-01-24T13:49:02Z</time>
      </trkpt>
      <trkpt lat="43.16854" lon="5.88666">
        <ele>389.6</ele>
        <time>2022-01-24T13:49:04Z</time>
      </trkpt>
      <trkpt lat="43.16844" lon="5.88658">
        <ele>388.4</ele>
        <time>2022-01-24T13:49:06Z</time>
      </trkpt>
      <trkpt lat="43.1684" lon="5.88656">
        <ele>387.6</ele>
        <time>2022-01-24T13:49:07Z</time>
      </trkpt>
      <trkpt lat="43.16836" lon="5.88656">
        <ele>386.8</ele>
        <time>2022-01-24T13:49:08Z</time>
      </trkpt>
      <trkpt lat="43.1683" lon="5.88669">
        <ele>385.2</ele>
        <time>2022-01-24T13:49:11Z</time>
      </trkpt>
      <trkpt lat="43.16825" lon="5.88679">
        <ele>383.2</ele>
        <time>2022-01-24T13:49:13Z</time>
      </trkpt>
      <trkpt lat="43.1682" lon="5.8869">
        <ele>382</ele>
        <time>2022-01-24T13:49:15Z</time>
      </trkpt>
      <trkpt lat="43.16806" lon="5.88719">
        <ele>381</ele>
        <time>2022-01-24T13:49:20Z</time>
      </trkpt>
      <trkpt lat="43.168" lon="5.88733">
        <ele>380.8</ele>
        <time>2022-01-24T13:49:22Z</time>
      </trkpt>
      <trkpt lat="43.16791" lon="5.88751">
        <ele>380.8</ele>
        <time>2022-01-24T13:49:25Z</time>
      </trkpt>
      <trkpt lat="43.16779" lon="5.88815">
        <ele>380.2</ele>
        <time>2022-01-24T13:49:33Z</time>
      </trkpt>
      <trkpt lat="43.16756" lon="5.88882">
        <ele>380.8</ele>
        <time>2022-01-24T13:49:47Z</time>
      </trkpt>
      <trkpt lat="43.16752" lon="5.88917">
        <ele>381.8</ele>
        <time>2022-01-24T13:49:53Z</time>
      </trkpt>
      <trkpt lat="43.16751" lon="5.8895">
        <ele>381.8</ele>
        <time>2022-01-24T13:49:57Z</time>
      </trkpt>
      <trkpt lat="43.16747" lon="5.88988">
        <ele>381.6</ele>
        <time>2022-01-24T13:50:01Z</time>
      </trkpt>
      <trkpt lat="43.16743" lon="5.89008">
        <ele>380.8</ele>
        <time>2022-01-24T13:50:03Z</time>
      </trkpt>
      <trkpt lat="43.1674" lon="5.8904">
        <ele>379.4</ele>
        <time>2022-01-24T13:50:06Z</time>
      </trkpt>
      <trkpt lat="43.16743" lon="5.8907">
        <ele>378.2</ele>
        <time>2022-01-24T13:50:09Z</time>
      </trkpt>
      <trkpt lat="43.16746" lon="5.89099">
        <ele>377</ele>
        <time>2022-01-24T13:50:12Z</time>
      </trkpt>
      <trkpt lat="43.16746" lon="5.89118">
        <ele>376</ele>
        <time>2022-01-24T13:50:14Z</time>
      </trkpt>
      <trkpt lat="43.16744" lon="5.89128">
        <ele>375.8</ele>
        <time>2022-01-24T13:50:15Z</time>
      </trkpt>
      <trkpt lat="43.16738" lon="5.89162">
        <ele>374.8</ele>
        <time>2022-01-24T13:50:19Z</time>
      </trkpt>
      <trkpt lat="43.16738" lon="5.8917">
        <ele>374.6</ele>
        <time>2022-01-24T13:50:20Z</time>
      </trkpt>
      <trkpt lat="43.16738" lon="5.89196">
        <ele>373.2</ele>
        <time>2022-01-24T13:50:24Z</time>
      </trkpt>
      <trkpt lat="43.16738" lon="5.89208">
        <ele>373</ele>
        <time>2022-01-24T13:50:26Z</time>
      </trkpt>
      <trkpt lat="43.1674" lon="5.89279">
        <ele>374.2</ele>
        <time>2022-01-24T13:50:40Z</time>
      </trkpt>
      <trkpt lat="43.16741" lon="5.89297">
        <ele>374.8</ele>
        <time>2022-01-24T13:50:44Z</time>
      </trkpt>
      <trkpt lat="43.16739" lon="5.89312">
        <ele>375.2</ele>
        <time>2022-01-24T13:50:47Z</time>
      </trkpt>
      <trkpt lat="43.16734" lon="5.89334">
        <ele>376.4</ele>
        <time>2022-01-24T13:50:52Z</time>
      </trkpt>
      <trkpt lat="43.1673" lon="5.89352">
        <ele>377.4</ele>
        <time>2022-01-24T13:50:56Z</time>
      </trkpt>
      <trkpt lat="43.16722" lon="5.89372">
        <ele>378.6</ele>
        <time>2022-01-24T13:51:01Z</time>
      </trkpt>
      <trkpt lat="43.16709" lon="5.89394">
        <ele>379.6</ele>
        <time>2022-01-24T13:51:06Z</time>
      </trkpt>
      <trkpt lat="43.16706" lon="5.89421">
        <ele>380</ele>
        <time>2022-01-24T13:51:11Z</time>
      </trkpt>
      <trkpt lat="43.16707" lon="5.89436">
        <ele>380</ele>
        <time>2022-01-24T13:51:13Z</time>
      </trkpt>
      <trkpt lat="43.1672" lon="5.89478">
        <ele>380.2</ele>
        <time>2022-01-24T13:51:19Z</time>
      </trkpt>
      <trkpt lat="43.16722" lon="5.89504">
        <ele>380.2</ele>
        <time>2022-01-24T13:51:23Z</time>
      </trkpt>
      <trkpt lat="43.16696" lon="5.8954">
        <ele>380</ele>
        <time>2022-01-24T13:51:31Z</time>
      </trkpt>
      <trkpt lat="43.16683" lon="5.8955">
        <ele>380.4</ele>
        <time>2022-01-24T13:51:34Z</time>
      </trkpt>
      <trkpt lat="43.16674" lon="5.89556">
        <ele>380.6</ele>
        <time>2022-01-24T13:51:36Z</time>
      </trkpt>
      <trkpt lat="43.16622" lon="5.89589">
        <ele>378.8</ele>
        <time>2022-01-24T13:51:45Z</time>
      </trkpt>
      <trkpt lat="43.16608" lon="5.89595">
        <ele>377.4</ele>
        <time>2022-01-24T13:51:47Z</time>
      </trkpt>
      <trkpt lat="43.16599" lon="5.89599">
        <ele>376</ele>
        <time>2022-01-24T13:51:49Z</time>
      </trkpt>
      <trkpt lat="43.16593" lon="5.89601">
        <ele>374.6</ele>
        <time>2022-01-24T13:51:51Z</time>
      </trkpt>
      <trkpt lat="43.16589" lon="5.89602">
        <ele>373.4</ele>
        <time>2022-01-24T13:51:53Z</time>
      </trkpt>
      <trkpt lat="43.16585" lon="5.89603">
        <ele>371.8</ele>
        <time>2022-01-24T13:51:55Z</time>
      </trkpt>
      <trkpt lat="43.16582" lon="5.89605">
        <ele>370</ele>
        <time>2022-01-24T13:51:57Z</time>
      </trkpt>
      <trkpt lat="43.16576" lon="5.89608">
        <ele>368.6</ele>
        <time>2022-01-24T13:52:00Z</time>
      </trkpt>
      <trkpt lat="43.16569" lon="5.89613">
        <ele>367.4</ele>
        <time>2022-01-24T13:52:02Z</time>
      </trkpt>
      <trkpt lat="43.16555" lon="5.89625">
        <ele>366.6</ele>
        <time>2022-01-24T13:52:05Z</time>
      </trkpt>
      <trkpt lat="43.16548" lon="5.89629">
        <ele>366.4</ele>
        <time>2022-01-24T13:52:06Z</time>
      </trkpt>
      <trkpt lat="43.16524" lon="5.8964">
        <ele>365.2</ele>
        <time>2022-01-24T13:52:09Z</time>
      </trkpt>
      <trkpt lat="43.16515" lon="5.89641">
        <ele>365</ele>
        <time>2022-01-24T13:52:10Z</time>
      </trkpt>
      <trkpt lat="43.16506" lon="5.89642">
        <ele>364.2</ele>
        <time>2022-01-24T13:52:11Z</time>
      </trkpt>
      <trkpt lat="43.16479" lon="5.89638">
        <ele>362.6</ele>
        <time>2022-01-24T13:52:14Z</time>
      </trkpt>
      <trkpt lat="43.16462" lon="5.8964">
        <ele>360.6</ele>
        <time>2022-01-24T13:52:16Z</time>
      </trkpt>
      <trkpt lat="43.16446" lon="5.89642">
        <ele>359</ele>
        <time>2022-01-24T13:52:18Z</time>
      </trkpt>
      <trkpt lat="43.16432" lon="5.89644">
        <ele>357.6</ele>
        <time>2022-01-24T13:52:20Z</time>
      </trkpt>
      <trkpt lat="43.16419" lon="5.89646">
        <ele>356.6</ele>
        <time>2022-01-24T13:52:22Z</time>
      </trkpt>
      <trkpt lat="43.16401" lon="5.89653">
        <ele>355.2</ele>
        <time>2022-01-24T13:52:25Z</time>
      </trkpt>
      <trkpt lat="43.16361" lon="5.89666">
        <ele>354.2</ele>
        <time>2022-01-24T13:52:30Z</time>
      </trkpt>
      <trkpt lat="43.16334" lon="5.89669">
        <ele>352.8</ele>
        <time>2022-01-24T13:52:33Z</time>
      </trkpt>
      <trkpt lat="43.16326" lon="5.89669">
        <ele>352.2</ele>
        <time>2022-01-24T13:52:34Z</time>
      </trkpt>
      <trkpt lat="43.16318" lon="5.8967">
        <ele>351.8</ele>
        <time>2022-01-24T13:52:35Z</time>
      </trkpt>
      <trkpt lat="43.16303" lon="5.89673">
        <ele>350.6</ele>
        <time>2022-01-24T13:52:37Z</time>
      </trkpt>
      <trkpt lat="43.16288" lon="5.89675">
        <ele>349.4</ele>
        <time>2022-01-24T13:52:39Z</time>
      </trkpt>
      <trkpt lat="43.16271" lon="5.89675">
        <ele>347.8</ele>
        <time>2022-01-24T13:52:41Z</time>
      </trkpt>
      <trkpt lat="43.16255" lon="5.89671">
        <ele>346.2</ele>
        <time>2022-01-24T13:52:43Z</time>
      </trkpt>
      <trkpt lat="43.16242" lon="5.89661">
        <ele>344.4</ele>
        <time>2022-01-24T13:52:45Z</time>
      </trkpt>
      <trkpt lat="43.1623" lon="5.89651">
        <ele>342.6</ele>
        <time>2022-01-24T13:52:47Z</time>
      </trkpt>
      <trkpt lat="43.16219" lon="5.89647">
        <ele>341.6</ele>
        <time>2022-01-24T13:52:49Z</time>
      </trkpt>
      <trkpt lat="43.16214" lon="5.89646">
        <ele>341</ele>
        <time>2022-01-24T13:52:50Z</time>
      </trkpt>
      <trkpt lat="43.16209" lon="5.89647">
        <ele>340.4</ele>
        <time>2022-01-24T13:52:51Z</time>
      </trkpt>
      <trkpt lat="43.16197" lon="5.89649">
        <ele>339.8</ele>
        <time>2022-01-24T13:52:53Z</time>
      </trkpt>
      <trkpt lat="43.16174" lon="5.89666">
        <ele>339.4</ele>
        <time>2022-01-24T13:52:58Z</time>
      </trkpt>
      <trkpt lat="43.16149" lon="5.89656">
        <ele>338.2</ele>
        <time>2022-01-24T13:53:03Z</time>
      </trkpt>
      <trkpt lat="43.1614" lon="5.89655">
        <ele>337</ele>
        <time>2022-01-24T13:53:05Z</time>
      </trkpt>
      <trkpt lat="43.1613" lon="5.89661">
        <ele>335.4</ele>
        <time>2022-01-24T13:53:07Z</time>
      </trkpt>
      <trkpt lat="43.16122" lon="5.8967">
        <ele>333.6</ele>
        <time>2022-01-24T13:53:09Z</time>
      </trkpt>
      <trkpt lat="43.16118" lon="5.89673">
        <ele>332.4</ele>
        <time>2022-01-24T13:53:10Z</time>
      </trkpt>
      <trkpt lat="43.16108" lon="5.89679">
        <ele>331</ele>
        <time>2022-01-24T13:53:12Z</time>
      </trkpt>
      <trkpt lat="43.16097" lon="5.89687">
        <ele>329.8</ele>
        <time>2022-01-24T13:53:14Z</time>
      </trkpt>
      <trkpt lat="43.16081" lon="5.89699">
        <ele>328</ele>
        <time>2022-01-24T13:53:17Z</time>
      </trkpt>
      <trkpt lat="43.16068" lon="5.89706">
        <ele>327</ele>
        <time>2022-01-24T13:53:19Z</time>
      </trkpt>
      <trkpt lat="43.16063" lon="5.89709">
        <ele>326.2</ele>
        <time>2022-01-24T13:53:20Z</time>
      </trkpt>
      <trkpt lat="43.16057" lon="5.89712">
        <ele>325.6</ele>
        <time>2022-01-24T13:53:21Z</time>
      </trkpt>
      <trkpt lat="43.16052" lon="5.89715">
        <ele>325</ele>
        <time>2022-01-24T13:53:22Z</time>
      </trkpt>
      <trkpt lat="43.16046" lon="5.89719">
        <ele>324.4</ele>
        <time>2022-01-24T13:53:23Z</time>
      </trkpt>
      <trkpt lat="43.16034" lon="5.89727">
        <ele>323</ele>
        <time>2022-01-24T13:53:25Z</time>
      </trkpt>
      <trkpt lat="43.16028" lon="5.89732">
        <ele>321.8</ele>
        <time>2022-01-24T13:53:26Z</time>
      </trkpt>
      <trkpt lat="43.1602" lon="5.89739">
        <ele>320.4</ele>
        <time>2022-01-24T13:53:28Z</time>
      </trkpt>
      <trkpt lat="43.16016" lon="5.89742">
        <ele>319.2</ele>
        <time>2022-01-24T13:53:30Z</time>
      </trkpt>
      <trkpt lat="43.16016" lon="5.89743">
        <ele>318</ele>
        <time>2022-01-24T13:53:32Z</time>
      </trkpt>
      <trkpt lat="43.16017" lon="5.89743">
        <ele>316.4</ele>
        <time>2022-01-24T13:53:34Z</time>
      </trkpt>
      <trkpt lat="43.16017" lon="5.89744">
        <ele>315</ele>
        <time>2022-01-24T13:53:36Z</time>
      </trkpt>
      <trkpt lat="43.16017" lon="5.89744">
        <ele>313.6</ele>
        <time>2022-01-24T13:53:39Z</time>
      </trkpt>
      <trkpt lat="43.16017" lon="5.89744">
        <ele>312.8</ele>
        <time>2022-01-24T13:53:57Z</time>
      </trkpt>
      <trkpt lat="43.16017" lon="5.89744">
        <ele>313</ele>
        <time>2022-01-24T13:54:09Z</time>
      </trkpt>
      <trkpt lat="43.16017" lon="5.89744">
        <ele>312.8</ele>
        <time>2022-01-24T13:54:26Z</time>
      </trkpt>
      <trkpt lat="43.16017" lon="5.89744">
        <ele>312.8</ele>
        <time>2022-01-24T13:54:29Z</time>
      </trkpt>
      <trkpt lat="43.16017" lon="5.89744">
        <ele>312.8</ele>
        <time>2022-01-24T13:54:37Z</time>
      </trkpt>
      <trkpt lat="43.16017" lon="5.89744">
        <ele>312.8</ele>
        <time>2022-01-24T13:54:40Z</time>
      </trkpt>
      <trkpt lat="43.16017" lon="5.89744">
        <ele>312.8</ele>
        <time>2022-01-24T13:54:43Z</time>
      </trkpt>
      <trkpt lat="43.16017" lon="5.89744">
        <ele>312.8</ele>
        <time>2022-01-24T13:54:51Z</time>
      </trkpt>
      <trkpt lat="43.16017" lon="5.89744">
        <ele>313.4</ele>
        <time>2022-01-24T13:54:56Z</time>
      </trkpt>
      <trkpt lat="43.16015" lon="5.89743">
        <ele>313.8</ele>
        <time>2022-01-24T13:55:12Z</time>
      </trkpt>
      <trkpt lat="43.1601" lon="5.89731">
        <ele>313.8</ele>
        <time>2022-01-24T13:55:16Z</time>
      </trkpt>
      <trkpt lat="43.16009" lon="5.89725">
        <ele>313.8</ele>
        <time>2022-01-24T13:55:17Z</time>
      </trkpt>
      <trkpt lat="43.16003" lon="5.89694">
        <ele>313.6</ele>
        <time>2022-01-24T13:55:21Z</time>
      </trkpt>
      <trkpt lat="43.15995" lon="5.89672">
        <ele>312.6</ele>
        <time>2022-01-24T13:55:24Z</time>
      </trkpt>
      <trkpt lat="43.15988" lon="5.89665">
        <ele>311.8</ele>
        <time>2022-01-24T13:55:26Z</time>
      </trkpt>
      <trkpt lat="43.1598" lon="5.89667">
        <ele>310.2</ele>
        <time>2022-01-24T13:55:28Z</time>
      </trkpt>
      <trkpt lat="43.15973" lon="5.89676">
        <ele>308.6</ele>
        <time>2022-01-24T13:55:30Z</time>
      </trkpt>
      <trkpt lat="43.1597" lon="5.89682">
        <ele>307.4</ele>
        <time>2022-01-24T13:55:31Z</time>
      </trkpt>
      <trkpt lat="43.15966" lon="5.89689">
        <ele>306.2</ele>
        <time>2022-01-24T13:55:32Z</time>
      </trkpt>
      <trkpt lat="43.15963" lon="5.89694">
        <ele>305</ele>
        <time>2022-01-24T13:55:33Z</time>
      </trkpt>
      <trkpt lat="43.15961" lon="5.89697">
        <ele>303.8</ele>
        <time>2022-01-24T13:55:34Z</time>
      </trkpt>
      <trkpt lat="43.15959" lon="5.89698">
        <ele>302.6</ele>
        <time>2022-01-24T13:55:35Z</time>
      </trkpt>
      <trkpt lat="43.15959" lon="5.89697">
        <ele>301.4</ele>
        <time>2022-01-24T13:55:36Z</time>
      </trkpt>
      <trkpt lat="43.15959" lon="5.89695">
        <ele>299.8</ele>
        <time>2022-01-24T13:55:37Z</time>
      </trkpt>
      <trkpt lat="43.15958" lon="5.89691">
        <ele>298.6</ele>
        <time>2022-01-24T13:55:38Z</time>
      </trkpt>
      <trkpt lat="43.15958" lon="5.89688">
        <ele>297.2</ele>
        <time>2022-01-24T13:55:39Z</time>
      </trkpt>
      <trkpt lat="43.15957" lon="5.89684">
        <ele>295.8</ele>
        <time>2022-01-24T13:55:40Z</time>
      </trkpt>
      <trkpt lat="43.15956" lon="5.89681">
        <ele>294.4</ele>
        <time>2022-01-24T13:55:41Z</time>
      </trkpt>
      <trkpt lat="43.15956" lon="5.89678">
        <ele>293.2</ele>
        <time>2022-01-24T13:55:42Z</time>
      </trkpt>
      <trkpt lat="43.15955" lon="5.89676">
        <ele>292.6</ele>
        <time>2022-01-24T13:55:43Z</time>
      </trkpt>
      <trkpt lat="43.15953" lon="5.89674">
        <ele>292</ele>
        <time>2022-01-24T13:55:44Z</time>
      </trkpt>
      <trkpt lat="43.15953" lon="5.89669">
        <ele>291</ele>
        <time>2022-01-24T13:55:46Z</time>
      </trkpt>
      <trkpt lat="43.15952" lon="5.89668">
        <ele>289.6</ele>
        <time>2022-01-24T13:55:47Z</time>
      </trkpt>
      <trkpt lat="43.15947" lon="5.89664">
        <ele>288.2</ele>
        <time>2022-01-24T13:55:49Z</time>
      </trkpt>
      <trkpt lat="43.15944" lon="5.89659">
        <ele>287</ele>
        <time>2022-01-24T13:55:51Z</time>
      </trkpt>
      <trkpt lat="43.15941" lon="5.89655">
        <ele>286</ele>
        <time>2022-01-24T13:55:53Z</time>
      </trkpt>
      <trkpt lat="43.15937" lon="5.8965">
        <ele>284.8</ele>
        <time>2022-01-24T13:55:55Z</time>
      </trkpt>
      <trkpt lat="43.15934" lon="5.89641">
        <ele>283.4</ele>
        <time>2022-01-24T13:55:57Z</time>
      </trkpt>
      <trkpt lat="43.15936" lon="5.89631">
        <ele>282</ele>
        <time>2022-01-24T13:55:59Z</time>
      </trkpt>
      <trkpt lat="43.15936" lon="5.8962">
        <ele>280.6</ele>
        <time>2022-01-24T13:56:01Z</time>
      </trkpt>
      <trkpt lat="43.15933" lon="5.89611">
        <ele>279.2</ele>
        <time>2022-01-24T13:56:03Z</time>
      </trkpt>
      <trkpt lat="43.1593" lon="5.89608">
        <ele>277.2</ele>
        <time>2022-01-24T13:56:05Z</time>
      </trkpt>
      <trkpt lat="43.15928" lon="5.89606">
        <ele>276.6</ele>
        <time>2022-01-24T13:56:06Z</time>
      </trkpt>
      <trkpt lat="43.15926" lon="5.89603">
        <ele>276.2</ele>
        <time>2022-01-24T13:56:07Z</time>
      </trkpt>
      <trkpt lat="43.15923" lon="5.89601">
        <ele>275.6</ele>
        <time>2022-01-24T13:56:08Z</time>
      </trkpt>
      <trkpt lat="43.15919" lon="5.89601">
        <ele>275</ele>
        <time>2022-01-24T13:56:09Z</time>
      </trkpt>
      <trkpt lat="43.15908" lon="5.896">
        <ele>273.8</ele>
        <time>2022-01-24T13:56:11Z</time>
      </trkpt>
      <trkpt lat="43.15902" lon="5.89599">
        <ele>273</ele>
        <time>2022-01-24T13:56:12Z</time>
      </trkpt>
      <trkpt lat="43.15896" lon="5.89598">
        <ele>272.6</ele>
        <time>2022-01-24T13:56:13Z</time>
      </trkpt>
      <trkpt lat="43.1589" lon="5.89596">
        <ele>272.2</ele>
        <time>2022-01-24T13:56:14Z</time>
      </trkpt>
      <trkpt lat="43.1588" lon="5.89592">
        <ele>271.4</ele>
        <time>2022-01-24T13:56:16Z</time>
      </trkpt>
      <trkpt lat="43.15871" lon="5.89589">
        <ele>270.6</ele>
        <time>2022-01-24T13:56:18Z</time>
      </trkpt>
      <trkpt lat="43.15868" lon="5.89587">
        <ele>270</ele>
        <time>2022-01-24T13:56:19Z</time>
      </trkpt>
      <trkpt lat="43.15861" lon="5.89584">
        <ele>268.8</ele>
        <time>2022-01-24T13:56:21Z</time>
      </trkpt>
      <trkpt lat="43.15854" lon="5.89584">
        <ele>267.6</ele>
        <time>2022-01-24T13:56:23Z</time>
      </trkpt>
      <trkpt lat="43.15849" lon="5.89585">
        <ele>267.2</ele>
        <time>2022-01-24T13:56:24Z</time>
      </trkpt>
      <trkpt lat="43.15832" lon="5.89588">
        <ele>266.8</ele>
        <time>2022-01-24T13:56:28Z</time>
      </trkpt>
      <trkpt lat="43.15828" lon="5.89588">
        <ele>266.8</ele>
        <time>2022-01-24T13:56:29Z</time>
      </trkpt>
      <trkpt lat="43.15817" lon="5.8959">
        <ele>265.4</ele>
        <time>2022-01-24T13:56:32Z</time>
      </trkpt>
      <trkpt lat="43.15809" lon="5.89589">
        <ele>264.2</ele>
        <time>2022-01-24T13:56:34Z</time>
      </trkpt>
      <trkpt lat="43.158" lon="5.89587">
        <ele>262.6</ele>
        <time>2022-01-24T13:56:36Z</time>
      </trkpt>
      <trkpt lat="43.15795" lon="5.89586">
        <ele>261.6</ele>
        <time>2022-01-24T13:56:37Z</time>
      </trkpt>
      <trkpt lat="43.1579" lon="5.89585">
        <ele>260.8</ele>
        <time>2022-01-24T13:56:38Z</time>
      </trkpt>
      <trkpt lat="43.15785" lon="5.89583">
        <ele>259.8</ele>
        <time>2022-01-24T13:56:39Z</time>
      </trkpt>
      <trkpt lat="43.15776" lon="5.89579">
        <ele>258.4</ele>
        <time>2022-01-24T13:56:41Z</time>
      </trkpt>
      <trkpt lat="43.1577" lon="5.89578">
        <ele>257.2</ele>
        <time>2022-01-24T13:56:43Z</time>
      </trkpt>
      <trkpt lat="43.15767" lon="5.89578">
        <ele>256</ele>
        <time>2022-01-24T13:56:44Z</time>
      </trkpt>
      <trkpt lat="43.1576" lon="5.89579">
        <ele>254.8</ele>
        <time>2022-01-24T13:56:46Z</time>
      </trkpt>
      <trkpt lat="43.15752" lon="5.89579">
        <ele>252.8</ele>
        <time>2022-01-24T13:56:48Z</time>
      </trkpt>
      <trkpt lat="43.15747" lon="5.89577">
        <ele>251.2</ele>
        <time>2022-01-24T13:56:50Z</time>
      </trkpt>
      <trkpt lat="43.15736" lon="5.89577">
        <ele>249.6</ele>
        <time>2022-01-24T13:56:53Z</time>
      </trkpt>
      <trkpt lat="43.15731" lon="5.8958">
        <ele>248</ele>
        <time>2022-01-24T13:56:55Z</time>
      </trkpt>
      <trkpt lat="43.15726" lon="5.89583">
        <ele>245.2</ele>
        <time>2022-01-24T13:56:57Z</time>
      </trkpt>
      <trkpt lat="43.15722" lon="5.89584">
        <ele>243.4</ele>
        <time>2022-01-24T13:56:59Z</time>
      </trkpt>
      <trkpt lat="43.15719" lon="5.89588">
        <ele>241.6</ele>
        <time>2022-01-24T13:57:01Z</time>
      </trkpt>
      <trkpt lat="43.15714" lon="5.89594">
        <ele>239.8</ele>
        <time>2022-01-24T13:57:03Z</time>
      </trkpt>
      <trkpt lat="43.15712" lon="5.89602">
        <ele>238.2</ele>
        <time>2022-01-24T13:57:05Z</time>
      </trkpt>
      <trkpt lat="43.15712" lon="5.8961">
        <ele>236.6</ele>
        <time>2022-01-24T13:57:07Z</time>
      </trkpt>
      <trkpt lat="43.15709" lon="5.89614">
        <ele>235.4</ele>
        <time>2022-01-24T13:57:09Z</time>
      </trkpt>
      <trkpt lat="43.15706" lon="5.89615">
        <ele>234.6</ele>
        <time>2022-01-24T13:57:10Z</time>
      </trkpt>
      <trkpt lat="43.15703" lon="5.89616">
        <ele>234.2</ele>
        <time>2022-01-24T13:57:11Z</time>
      </trkpt>
      <trkpt lat="43.15695" lon="5.89622">
        <ele>233</ele>
        <time>2022-01-24T13:57:14Z</time>
      </trkpt>
      <trkpt lat="43.1569" lon="5.89625">
        <ele>231.8</ele>
        <time>2022-01-24T13:57:16Z</time>
      </trkpt>
      <trkpt lat="43.15686" lon="5.89629">
        <ele>230.6</ele>
        <time>2022-01-24T13:57:18Z</time>
      </trkpt>
      <trkpt lat="43.15683" lon="5.89633">
        <ele>229.2</ele>
        <time>2022-01-24T13:57:20Z</time>
      </trkpt>
      <trkpt lat="43.15678" lon="5.89633">
        <ele>227.6</ele>
        <time>2022-01-24T13:57:22Z</time>
      </trkpt>
      <trkpt lat="43.1567" lon="5.89633">
        <ele>226</ele>
        <time>2022-01-24T13:57:24Z</time>
      </trkpt>
      <trkpt lat="43.15661" lon="5.89626">
        <ele>224.6</ele>
        <time>2022-01-24T13:57:27Z</time>
      </trkpt>
      <trkpt lat="43.15657" lon="5.89624">
        <ele>223.2</ele>
        <time>2022-01-24T13:57:29Z</time>
      </trkpt>
      <trkpt lat="43.15654" lon="5.89623">
        <ele>221.6</ele>
        <time>2022-01-24T13:57:31Z</time>
      </trkpt>
      <trkpt lat="43.15653" lon="5.89628">
        <ele>220.2</ele>
        <time>2022-01-24T13:57:34Z</time>
      </trkpt>
      <trkpt lat="43.15651" lon="5.89635">
        <ele>219</ele>
        <time>2022-01-24T13:57:37Z</time>
      </trkpt>
      <trkpt lat="43.15655" lon="5.89644">
        <ele>217.6</ele>
        <time>2022-01-24T13:57:40Z</time>
      </trkpt>
      <trkpt lat="43.15655" lon="5.8965">
        <ele>217.2</ele>
        <time>2022-01-24T13:57:42Z</time>
      </trkpt>
      <trkpt lat="43.15653" lon="5.89652">
        <ele>217</ele>
        <time>2022-01-24T13:57:44Z</time>
      </trkpt>
      <trkpt lat="43.15651" lon="5.89658">
        <ele>216.6</ele>
        <time>2022-01-24T13:57:51Z</time>
      </trkpt>
      <trkpt lat="43.15651" lon="5.89662">
        <ele>215.6</ele>
        <time>2022-01-24T13:57:55Z</time>
      </trkpt>
      <trkpt lat="43.1565" lon="5.8967">
        <ele>215</ele>
        <time>2022-01-24T13:57:58Z</time>
      </trkpt>
      <trkpt lat="43.15648" lon="5.89677">
        <ele>214.6</ele>
        <time>2022-01-24T13:58:00Z</time>
      </trkpt>
      <trkpt lat="43.15646" lon="5.89681">
        <ele>214.2</ele>
        <time>2022-01-24T13:58:02Z</time>
      </trkpt>
      <trkpt lat="43.15642" lon="5.89681">
        <ele>214</ele>
        <time>2022-01-24T13:58:06Z</time>
      </trkpt>
      <trkpt lat="43.15641" lon="5.89679">
        <ele>212.8</ele>
        <time>2022-01-24T13:58:07Z</time>
      </trkpt>
      <trkpt lat="43.1564" lon="5.89677">
        <ele>212.4</ele>
        <time>2022-01-24T13:58:08Z</time>
      </trkpt>
      <trkpt lat="43.15639" lon="5.89677">
        <ele>211.8</ele>
        <time>2022-01-24T13:58:09Z</time>
      </trkpt>
      <trkpt lat="43.15637" lon="5.89679">
        <ele>211</ele>
        <time>2022-01-24T13:58:11Z</time>
      </trkpt>
      <trkpt lat="43.15635" lon="5.8968">
        <ele>210.6</ele>
        <time>2022-01-24T13:58:12Z</time>
      </trkpt>
      <trkpt lat="43.15633" lon="5.89681">
        <ele>210.4</ele>
        <time>2022-01-24T13:58:14Z</time>
      </trkpt>
      <trkpt lat="43.15623" lon="5.8968">
        <ele>209.4</ele>
        <time>2022-01-24T13:58:20Z</time>
      </trkpt>
      <trkpt lat="43.15618" lon="5.89681">
        <ele>208</ele>
        <time>2022-01-24T13:58:23Z</time>
      </trkpt>
      <trkpt lat="43.15613" lon="5.89683">
        <ele>207</ele>
        <time>2022-01-24T13:58:26Z</time>
      </trkpt>
      <trkpt lat="43.1561" lon="5.89681">
        <ele>205.6</ele>
        <time>2022-01-24T13:58:28Z</time>
      </trkpt>
      <trkpt lat="43.15608" lon="5.89681">
        <ele>205.2</ele>
        <time>2022-01-24T13:58:29Z</time>
      </trkpt>
      <trkpt lat="43.15605" lon="5.89679">
        <ele>204.2</ele>
        <time>2022-01-24T13:58:31Z</time>
      </trkpt>
      <trkpt lat="43.15601" lon="5.89675">
        <ele>203.2</ele>
        <time>2022-01-24T13:58:34Z</time>
      </trkpt>
      <trkpt lat="43.15603" lon="5.89668">
        <ele>202</ele>
        <time>2022-01-24T13:58:38Z</time>
      </trkpt>
      <trkpt lat="43.15605" lon="5.89662">
        <ele>200.8</ele>
        <time>2022-01-24T13:58:41Z</time>
      </trkpt>
      <trkpt lat="43.15621" lon="5.89626">
        <ele>202</ele>
        <time>2022-01-24T13:58:55Z</time>
      </trkpt>
      <trkpt lat="43.15629" lon="5.89609">
        <ele>203.2</ele>
        <time>2022-01-24T13:59:02Z</time>
      </trkpt>
      <trkpt lat="43.15634" lon="5.89599">
        <ele>204.2</ele>
        <time>2022-01-24T13:59:06Z</time>
      </trkpt>
      <trkpt lat="43.1564" lon="5.89583">
        <ele>205.4</ele>
        <time>2022-01-24T13:59:12Z</time>
      </trkpt>
      <trkpt lat="43.15645" lon="5.89573">
        <ele>206.6</ele>
        <time>2022-01-24T13:59:16Z</time>
      </trkpt>
      <trkpt lat="43.15651" lon="5.89564">
        <ele>207.8</ele>
        <time>2022-01-24T13:59:20Z</time>
      </trkpt>
      <trkpt lat="43.15659" lon="5.89552">
        <ele>209</ele>
        <time>2022-01-24T13:59:25Z</time>
      </trkpt>
      <trkpt lat="43.15667" lon="5.89543">
        <ele>210</ele>
        <time>2022-01-24T13:59:30Z</time>
      </trkpt>
      <trkpt lat="43.15675" lon="5.89534">
        <ele>211.2</ele>
        <time>2022-01-24T13:59:35Z</time>
      </trkpt>
      <trkpt lat="43.15681" lon="5.89527">
        <ele>212.2</ele>
        <time>2022-01-24T13:59:38Z</time>
      </trkpt>
      <trkpt lat="43.1569" lon="5.89517">
        <ele>213.2</ele>
        <time>2022-01-24T13:59:43Z</time>
      </trkpt>
      <trkpt lat="43.15699" lon="5.89506">
        <ele>214.4</ele>
        <time>2022-01-24T13:59:48Z</time>
      </trkpt>
      <trkpt lat="43.15704" lon="5.89497">
        <ele>215.6</ele>
        <time>2022-01-24T13:59:52Z</time>
      </trkpt>
      <trkpt lat="43.15704" lon="5.89486">
        <ele>216.6</ele>
        <time>2022-01-24T13:59:56Z</time>
      </trkpt>
      <trkpt lat="43.15703" lon="5.89483">
        <ele>216.8</ele>
        <time>2022-01-24T13:59:57Z</time>
      </trkpt>
      <trkpt lat="43.15695" lon="5.89478">
        <ele>218.2</ele>
        <time>2022-01-24T14:00:01Z</time>
      </trkpt>
      <trkpt lat="43.15692" lon="5.89477">
        <ele>218.6</ele>
        <time>2022-01-24T14:00:03Z</time>
      </trkpt>
      <trkpt lat="43.15687" lon="5.89474">
        <ele>219.2</ele>
        <time>2022-01-24T14:00:05Z</time>
      </trkpt>
      <trkpt lat="43.15676" lon="5.89465">
        <ele>220.4</ele>
        <time>2022-01-24T14:00:10Z</time>
      </trkpt>
      <trkpt lat="43.15666" lon="5.89455">
        <ele>221.6</ele>
        <time>2022-01-24T14:00:15Z</time>
      </trkpt>
      <trkpt lat="43.15656" lon="5.89449">
        <ele>222.8</ele>
        <time>2022-01-24T14:00:19Z</time>
      </trkpt>
      <trkpt lat="43.15644" lon="5.8944">
        <ele>224</ele>
        <time>2022-01-24T14:00:24Z</time>
      </trkpt>
      <trkpt lat="43.15637" lon="5.89434">
        <ele>225</ele>
        <time>2022-01-24T14:00:27Z</time>
      </trkpt>
      <trkpt lat="43.15629" lon="5.89427">
        <ele>226.2</ele>
        <time>2022-01-24T14:00:31Z</time>
      </trkpt>
      <trkpt lat="43.15621" lon="5.89419">
        <ele>227.4</ele>
        <time>2022-01-24T14:00:35Z</time>
      </trkpt>
      <trkpt lat="43.15611" lon="5.89409">
        <ele>228.4</ele>
        <time>2022-01-24T14:00:40Z</time>
      </trkpt>
      <trkpt lat="43.15606" lon="5.894">
        <ele>229.4</ele>
        <time>2022-01-24T14:00:44Z</time>
      </trkpt>
      <trkpt lat="43.15602" lon="5.89385">
        <ele>230.6</ele>
        <time>2022-01-24T14:00:50Z</time>
      </trkpt>
      <trkpt lat="43.15602" lon="5.89373">
        <ele>231.8</ele>
        <time>2022-01-24T14:00:54Z</time>
      </trkpt>
      <trkpt lat="43.15602" lon="5.89358">
        <ele>232.8</ele>
        <time>2022-01-24T14:00:59Z</time>
      </trkpt>
      <trkpt lat="43.15604" lon="5.89348">
        <ele>234.2</ele>
        <time>2022-01-24T14:01:03Z</time>
      </trkpt>
      <trkpt lat="43.15607" lon="5.89338">
        <ele>235.4</ele>
        <time>2022-01-24T14:01:07Z</time>
      </trkpt>
      <trkpt lat="43.15612" lon="5.89324">
        <ele>236.6</ele>
        <time>2022-01-24T14:01:12Z</time>
      </trkpt>
      <trkpt lat="43.15616" lon="5.89311">
        <ele>237.8</ele>
        <time>2022-01-24T14:01:17Z</time>
      </trkpt>
      <trkpt lat="43.15622" lon="5.89295">
        <ele>239</ele>
        <time>2022-01-24T14:01:23Z</time>
      </trkpt>
      <trkpt lat="43.15629" lon="5.89278">
        <ele>240</ele>
        <time>2022-01-24T14:01:29Z</time>
      </trkpt>
      <trkpt lat="43.15634" lon="5.89267">
        <ele>241</ele>
        <time>2022-01-24T14:01:34Z</time>
      </trkpt>
      <trkpt lat="43.15638" lon="5.89256">
        <ele>242.2</ele>
        <time>2022-01-24T14:01:38Z</time>
      </trkpt>
      <trkpt lat="43.15645" lon="5.89243">
        <ele>243.2</ele>
        <time>2022-01-24T14:01:43Z</time>
      </trkpt>
      <trkpt lat="43.15647" lon="5.89236">
        <ele>243.8</ele>
        <time>2022-01-24T14:01:46Z</time>
      </trkpt>
      <trkpt lat="43.15651" lon="5.89229">
        <ele>244.4</ele>
        <time>2022-01-24T14:01:49Z</time>
      </trkpt>
      <trkpt lat="43.15658" lon="5.89214">
        <ele>245.6</ele>
        <time>2022-01-24T14:01:54Z</time>
      </trkpt>
      <trkpt lat="43.15664" lon="5.89199">
        <ele>246.8</ele>
        <time>2022-01-24T14:01:59Z</time>
      </trkpt>
      <trkpt lat="43.15672" lon="5.89182">
        <ele>248</ele>
        <time>2022-01-24T14:02:05Z</time>
      </trkpt>
      <trkpt lat="43.15678" lon="5.89174">
        <ele>249</ele>
        <time>2022-01-24T14:02:09Z</time>
      </trkpt>
      <trkpt lat="43.15682" lon="5.89166">
        <ele>250</ele>
        <time>2022-01-24T14:02:12Z</time>
      </trkpt>
      <trkpt lat="43.15687" lon="5.89157">
        <ele>251</ele>
        <time>2022-01-24T14:02:16Z</time>
      </trkpt>
      <trkpt lat="43.15696" lon="5.89143">
        <ele>252</ele>
        <time>2022-01-24T14:02:22Z</time>
      </trkpt>
      <trkpt lat="43.15703" lon="5.89129">
        <ele>253.2</ele>
        <time>2022-01-24T14:02:27Z</time>
      </trkpt>
      <trkpt lat="43.15706" lon="5.89115">
        <ele>254.4</ele>
        <time>2022-01-24T14:02:31Z</time>
      </trkpt>
      <trkpt lat="43.15705" lon="5.89111">
        <ele>254.6</ele>
        <time>2022-01-24T14:02:32Z</time>
      </trkpt>
      <trkpt lat="43.15699" lon="5.89099">
        <ele>255.4</ele>
        <time>2022-01-24T14:02:36Z</time>
      </trkpt>
      <trkpt lat="43.15694" lon="5.89095">
        <ele>255.8</ele>
        <time>2022-01-24T14:02:38Z</time>
      </trkpt>
      <trkpt lat="43.15681" lon="5.89084">
        <ele>256.6</ele>
        <time>2022-01-24T14:02:43Z</time>
      </trkpt>
      <trkpt lat="43.15644" lon="5.89073">
        <ele>257.6</ele>
        <time>2022-01-24T14:02:54Z</time>
      </trkpt>
      <trkpt lat="43.15614" lon="5.8907">
        <ele>258.6</ele>
        <time>2022-01-24T14:03:05Z</time>
      </trkpt>
      <trkpt lat="43.15601" lon="5.8907">
        <ele>259.8</ele>
        <time>2022-01-24T14:03:10Z</time>
      </trkpt>
      <trkpt lat="43.15592" lon="5.8907">
        <ele>260.8</ele>
        <time>2022-01-24T14:03:14Z</time>
      </trkpt>
      <trkpt lat="43.15579" lon="5.89069">
        <ele>262.2</ele>
        <time>2022-01-24T14:03:19Z</time>
      </trkpt>
      <trkpt lat="43.15569" lon="5.89066">
        <ele>263.4</ele>
        <time>2022-01-24T14:03:23Z</time>
      </trkpt>
      <trkpt lat="43.15559" lon="5.89061">
        <ele>264.4</ele>
        <time>2022-01-24T14:03:28Z</time>
      </trkpt>
      <trkpt lat="43.15549" lon="5.89054">
        <ele>265.6</ele>
        <time>2022-01-24T14:03:33Z</time>
      </trkpt>
      <trkpt lat="43.15544" lon="5.89044">
        <ele>266.8</ele>
        <time>2022-01-24T14:03:37Z</time>
      </trkpt>
      <trkpt lat="43.15543" lon="5.89036">
        <ele>267.6</ele>
        <time>2022-01-24T14:03:40Z</time>
      </trkpt>
      <trkpt lat="43.15543" lon="5.89034">
        <ele>267.8</ele>
        <time>2022-01-24T14:03:41Z</time>
      </trkpt>
      <trkpt lat="43.15545" lon="5.89016">
        <ele>268.8</ele>
        <time>2022-01-24T14:03:47Z</time>
      </trkpt>
      <trkpt lat="43.15547" lon="5.88999">
        <ele>270</ele>
        <time>2022-01-24T14:03:52Z</time>
      </trkpt>
      <trkpt lat="43.15547" lon="5.88988">
        <ele>271.2</ele>
        <time>2022-01-24T14:03:56Z</time>
      </trkpt>
      <trkpt lat="43.15547" lon="5.88972">
        <ele>272.2</ele>
        <time>2022-01-24T14:04:01Z</time>
      </trkpt>
      <trkpt lat="43.15547" lon="5.88955">
        <ele>273.2</ele>
        <time>2022-01-24T14:04:06Z</time>
      </trkpt>
      <trkpt lat="43.15544" lon="5.88936">
        <ele>274.6</ele>
        <time>2022-01-24T14:04:12Z</time>
      </trkpt>
      <trkpt lat="43.15541" lon="5.88925">
        <ele>275.6</ele>
        <time>2022-01-24T14:04:15Z</time>
      </trkpt>
      <trkpt lat="43.15535" lon="5.88904">
        <ele>276.6</ele>
        <time>2022-01-24T14:04:21Z</time>
      </trkpt>
      <trkpt lat="43.15526" lon="5.8888">
        <ele>277.8</ele>
        <time>2022-01-24T14:04:28Z</time>
      </trkpt>
      <trkpt lat="43.15517" lon="5.88864">
        <ele>279</ele>
        <time>2022-01-24T14:04:34Z</time>
      </trkpt>
      <trkpt lat="43.15508" lon="5.88852">
        <ele>280.2</ele>
        <time>2022-01-24T14:04:39Z</time>
      </trkpt>
      <trkpt lat="43.155" lon="5.8884">
        <ele>281.4</ele>
        <time>2022-01-24T14:04:44Z</time>
      </trkpt>
      <trkpt lat="43.1549" lon="5.8883">
        <ele>282.6</ele>
        <time>2022-01-24T14:04:49Z</time>
      </trkpt>
      <trkpt lat="43.15482" lon="5.88823">
        <ele>283.6</ele>
        <time>2022-01-24T14:04:53Z</time>
      </trkpt>
      <trkpt lat="43.15474" lon="5.88814">
        <ele>284.6</ele>
        <time>2022-01-24T14:04:57Z</time>
      </trkpt>
      <trkpt lat="43.15473" lon="5.88813">
        <ele>284.8</ele>
        <time>2022-01-24T14:04:58Z</time>
      </trkpt>
      <trkpt lat="43.15463" lon="5.88802">
        <ele>286</ele>
        <time>2022-01-24T14:05:03Z</time>
      </trkpt>
      <trkpt lat="43.15456" lon="5.88794">
        <ele>287</ele>
        <time>2022-01-24T14:05:07Z</time>
      </trkpt>
      <trkpt lat="43.15452" lon="5.88787">
        <ele>288</ele>
        <time>2022-01-24T14:05:10Z</time>
      </trkpt>
      <trkpt lat="43.15444" lon="5.88773">
        <ele>289</ele>
        <time>2022-01-24T14:05:15Z</time>
      </trkpt>
      <trkpt lat="43.15441" lon="5.88761">
        <ele>290</ele>
        <time>2022-01-24T14:05:19Z</time>
      </trkpt>
      <trkpt lat="43.15439" lon="5.88747">
        <ele>291</ele>
        <time>2022-01-24T14:05:23Z</time>
      </trkpt>
      <trkpt lat="43.15446" lon="5.88735">
        <ele>292</ele>
        <time>2022-01-24T14:05:27Z</time>
      </trkpt>
      <trkpt lat="43.15479" lon="5.88726">
        <ele>293.4</ele>
        <time>2022-01-24T14:05:39Z</time>
      </trkpt>
      <trkpt lat="43.155" lon="5.88719">
        <ele>294.6</ele>
        <time>2022-01-24T14:05:47Z</time>
      </trkpt>
      <trkpt lat="43.15522" lon="5.8871">
        <ele>295.6</ele>
        <time>2022-01-24T14:05:56Z</time>
      </trkpt>
      <trkpt lat="43.15533" lon="5.88706">
        <ele>296.8</ele>
        <time>2022-01-24T14:06:01Z</time>
      </trkpt>
      <trkpt lat="43.15547" lon="5.88702">
        <ele>297.8</ele>
        <time>2022-01-24T14:06:07Z</time>
      </trkpt>
      <trkpt lat="43.15558" lon="5.88697">
        <ele>298.6</ele>
        <time>2022-01-24T14:06:12Z</time>
      </trkpt>
      <trkpt lat="43.1556" lon="5.88696">
        <ele>298.8</ele>
        <time>2022-01-24T14:06:13Z</time>
      </trkpt>
      <trkpt lat="43.15569" lon="5.88691">
        <ele>299.6</ele>
        <time>2022-01-24T14:06:17Z</time>
      </trkpt>
      <trkpt lat="43.15572" lon="5.88688">
        <ele>300</ele>
        <time>2022-01-24T14:06:19Z</time>
      </trkpt>
      <trkpt lat="43.15584" lon="5.88677">
        <ele>301.2</ele>
        <time>2022-01-24T14:06:25Z</time>
      </trkpt>
      <trkpt lat="43.15591" lon="5.88671">
        <ele>302</ele>
        <time>2022-01-24T14:06:29Z</time>
      </trkpt>
      <trkpt lat="43.15593" lon="5.88669">
        <ele>302.2</ele>
        <time>2022-01-24T14:06:30Z</time>
      </trkpt>
      <trkpt lat="43.156" lon="5.88661">
        <ele>303.4</ele>
        <time>2022-01-24T14:06:34Z</time>
      </trkpt>
      <trkpt lat="43.15611" lon="5.88652">
        <ele>304.4</ele>
        <time>2022-01-24T14:06:40Z</time>
      </trkpt>
      <trkpt lat="43.15613" lon="5.88651">
        <ele>304.6</ele>
        <time>2022-01-24T14:06:41Z</time>
      </trkpt>
      <trkpt lat="43.15621" lon="5.88647">
        <ele>305.6</ele>
        <time>2022-01-24T14:06:45Z</time>
      </trkpt>
      <trkpt lat="43.15633" lon="5.88643">
        <ele>306.8</ele>
        <time>2022-01-24T14:06:51Z</time>
      </trkpt>
      <trkpt lat="43.15644" lon="5.88639">
        <ele>307.8</ele>
        <time>2022-01-24T14:06:56Z</time>
      </trkpt>
      <trkpt lat="43.15656" lon="5.88635">
        <ele>309</ele>
        <time>2022-01-24T14:07:02Z</time>
      </trkpt>
      <trkpt lat="43.15668" lon="5.8863">
        <ele>310.2</ele>
        <time>2022-01-24T14:07:08Z</time>
      </trkpt>
      <trkpt lat="43.15681" lon="5.88627">
        <ele>311.4</ele>
        <time>2022-01-24T14:07:14Z</time>
      </trkpt>
      <trkpt lat="43.15692" lon="5.88627">
        <ele>312.6</ele>
        <time>2022-01-24T14:07:19Z</time>
      </trkpt>
      <trkpt lat="43.15702" lon="5.8863">
        <ele>313.8</ele>
        <time>2022-01-24T14:07:24Z</time>
      </trkpt>
      <trkpt lat="43.15713" lon="5.88631">
        <ele>315</ele>
        <time>2022-01-24T14:07:29Z</time>
      </trkpt>
      <trkpt lat="43.15727" lon="5.88638">
        <ele>316</ele>
        <time>2022-01-24T14:07:36Z</time>
      </trkpt>
      <trkpt lat="43.15736" lon="5.88643">
        <ele>317.2</ele>
        <time>2022-01-24T14:07:40Z</time>
      </trkpt>
      <trkpt lat="43.15746" lon="5.8865">
        <ele>318.2</ele>
        <time>2022-01-24T14:07:45Z</time>
      </trkpt>
      <trkpt lat="43.15755" lon="5.88658">
        <ele>319.4</ele>
        <time>2022-01-24T14:07:50Z</time>
      </trkpt>
      <trkpt lat="43.15763" lon="5.88662">
        <ele>320.4</ele>
        <time>2022-01-24T14:07:54Z</time>
      </trkpt>
      <trkpt lat="43.15771" lon="5.88668">
        <ele>321.6</ele>
        <time>2022-01-24T14:07:58Z</time>
      </trkpt>
      <trkpt lat="43.15781" lon="5.88673">
        <ele>322.8</ele>
        <time>2022-01-24T14:08:03Z</time>
      </trkpt>
      <trkpt lat="43.15791" lon="5.88678">
        <ele>323.8</ele>
        <time>2022-01-24T14:08:08Z</time>
      </trkpt>
      <trkpt lat="43.15801" lon="5.88685">
        <ele>325</ele>
        <time>2022-01-24T14:08:14Z</time>
      </trkpt>
      <trkpt lat="43.15807" lon="5.88691">
        <ele>326.2</ele>
        <time>2022-01-24T14:08:17Z</time>
      </trkpt>
      <trkpt lat="43.15817" lon="5.88699">
        <ele>327.2</ele>
        <time>2022-01-24T14:08:22Z</time>
      </trkpt>
      <trkpt lat="43.15828" lon="5.88708">
        <ele>328.4</ele>
        <time>2022-01-24T14:08:28Z</time>
      </trkpt>
      <trkpt lat="43.15834" lon="5.88712">
        <ele>329.6</ele>
        <time>2022-01-24T14:08:31Z</time>
      </trkpt>
      <trkpt lat="43.15845" lon="5.88717">
        <ele>330.6</ele>
        <time>2022-01-24T14:08:36Z</time>
      </trkpt>
      <trkpt lat="43.15857" lon="5.88723">
        <ele>331.6</ele>
        <time>2022-01-24T14:08:42Z</time>
      </trkpt>
      <trkpt lat="43.15868" lon="5.88725">
        <ele>332.8</ele>
        <time>2022-01-24T14:08:47Z</time>
      </trkpt>
      <trkpt lat="43.1588" lon="5.88725">
        <ele>333.8</ele>
        <time>2022-01-24T14:08:52Z</time>
      </trkpt>
      <trkpt lat="43.1589" lon="5.88725">
        <ele>335</ele>
        <time>2022-01-24T14:08:57Z</time>
      </trkpt>
      <trkpt lat="43.15903" lon="5.88726">
        <ele>336.2</ele>
        <time>2022-01-24T14:09:03Z</time>
      </trkpt>
      <trkpt lat="43.15912" lon="5.88729">
        <ele>337.2</ele>
        <time>2022-01-24T14:09:07Z</time>
      </trkpt>
      <trkpt lat="43.15922" lon="5.88734">
        <ele>338.2</ele>
        <time>2022-01-24T14:09:12Z</time>
      </trkpt>
      <trkpt lat="43.1593" lon="5.88736">
        <ele>339.2</ele>
        <time>2022-01-24T14:09:16Z</time>
      </trkpt>
      <trkpt lat="43.15941" lon="5.88737">
        <ele>340.2</ele>
        <time>2022-01-24T14:09:22Z</time>
      </trkpt>
      <trkpt lat="43.15952" lon="5.88735">
        <ele>341.4</ele>
        <time>2022-01-24T14:09:28Z</time>
      </trkpt>
      <trkpt lat="43.15963" lon="5.88734">
        <ele>342.4</ele>
        <time>2022-01-24T14:09:34Z</time>
      </trkpt>
      <trkpt lat="43.15973" lon="5.88735">
        <ele>343.4</ele>
        <time>2022-01-24T14:09:39Z</time>
      </trkpt>
      <trkpt lat="43.15985" lon="5.88733">
        <ele>344.6</ele>
        <time>2022-01-24T14:09:45Z</time>
      </trkpt>
      <trkpt lat="43.15999" lon="5.88725">
        <ele>345.8</ele>
        <time>2022-01-24T14:09:53Z</time>
      </trkpt>
      <trkpt lat="43.16013" lon="5.88717">
        <ele>347</ele>
        <time>2022-01-24T14:10:01Z</time>
      </trkpt>
      <trkpt lat="43.16021" lon="5.88712">
        <ele>348</ele>
        <time>2022-01-24T14:10:05Z</time>
      </trkpt>
      <trkpt lat="43.16028" lon="5.88699">
        <ele>349.2</ele>
        <time>2022-01-24T14:10:10Z</time>
      </trkpt>
      <trkpt lat="43.1603" lon="5.8868">
        <ele>350.2</ele>
        <time>2022-01-24T14:10:15Z</time>
      </trkpt>
      <trkpt lat="43.16012" lon="5.88636">
        <ele>351.4</ele>
        <time>2022-01-24T14:10:28Z</time>
      </trkpt>
      <trkpt lat="43.15995" lon="5.88619">
        <ele>352.4</ele>
        <time>2022-01-24T14:10:36Z</time>
      </trkpt>
      <trkpt lat="43.15989" lon="5.88601">
        <ele>353.4</ele>
        <time>2022-01-24T14:10:41Z</time>
      </trkpt>
      <trkpt lat="43.15973" lon="5.88581">
        <ele>354.6</ele>
        <time>2022-01-24T14:10:48Z</time>
      </trkpt>
      <trkpt lat="43.15952" lon="5.88576">
        <ele>355.8</ele>
        <time>2022-01-24T14:10:55Z</time>
      </trkpt>
      <trkpt lat="43.15938" lon="5.88568">
        <ele>357</ele>
        <time>2022-01-24T14:11:00Z</time>
      </trkpt>
      <trkpt lat="43.15929" lon="5.88553">
        <ele>358.2</ele>
        <time>2022-01-24T14:11:05Z</time>
      </trkpt>
      <trkpt lat="43.15923" lon="5.88539">
        <ele>359.6</ele>
        <time>2022-01-24T14:11:09Z</time>
      </trkpt>
      <trkpt lat="43.1592" lon="5.88523">
        <ele>360.8</ele>
        <time>2022-01-24T14:11:13Z</time>
      </trkpt>
      <trkpt lat="43.1592" lon="5.88508">
        <ele>362</ele>
        <time>2022-01-24T14:11:17Z</time>
      </trkpt>
      <trkpt lat="43.15923" lon="5.88493">
        <ele>363.2</ele>
        <time>2022-01-24T14:11:21Z</time>
      </trkpt>
      <trkpt lat="43.15929" lon="5.88479">
        <ele>364.2</ele>
        <time>2022-01-24T14:11:25Z</time>
      </trkpt>
      <trkpt lat="43.15934" lon="5.88469">
        <ele>365.4</ele>
        <time>2022-01-24T14:11:28Z</time>
      </trkpt>
      <trkpt lat="43.15936" lon="5.88441">
        <ele>366.8</ele>
        <time>2022-01-24T14:11:35Z</time>
      </trkpt>
      <trkpt lat="43.15929" lon="5.88429">
        <ele>368.2</ele>
        <time>2022-01-24T14:11:39Z</time>
      </trkpt>
      <trkpt lat="43.1592" lon="5.88417">
        <ele>369.4</ele>
        <time>2022-01-24T14:11:43Z</time>
      </trkpt>
      <trkpt lat="43.15911" lon="5.88399">
        <ele>370.6</ele>
        <time>2022-01-24T14:11:48Z</time>
      </trkpt>
      <trkpt lat="43.15913" lon="5.88386">
        <ele>371.6</ele>
        <time>2022-01-24T14:11:51Z</time>
      </trkpt>
      <trkpt lat="43.15916" lon="5.88374">
        <ele>372.6</ele>
        <time>2022-01-24T14:11:54Z</time>
      </trkpt>
      <trkpt lat="43.1592" lon="5.88364">
        <ele>374</ele>
        <time>2022-01-24T14:11:57Z</time>
      </trkpt>
      <trkpt lat="43.15925" lon="5.88349">
        <ele>375.2</ele>
        <time>2022-01-24T14:12:01Z</time>
      </trkpt>
      <trkpt lat="43.15931" lon="5.88336">
        <ele>376.4</ele>
        <time>2022-01-24T14:12:05Z</time>
      </trkpt>
      <trkpt lat="43.15936" lon="5.88322">
        <ele>377.8</ele>
        <time>2022-01-24T14:12:09Z</time>
      </trkpt>
      <trkpt lat="43.15938" lon="5.88307">
        <ele>379</ele>
        <time>2022-01-24T14:12:13Z</time>
      </trkpt>
      <trkpt lat="43.15937" lon="5.88288">
        <ele>380.4</ele>
        <time>2022-01-24T14:12:18Z</time>
      </trkpt>
      <trkpt lat="43.15935" lon="5.88273">
        <ele>381.6</ele>
        <time>2022-01-24T14:12:22Z</time>
      </trkpt>
      <trkpt lat="43.15932" lon="5.88262">
        <ele>382.6</ele>
        <time>2022-01-24T14:12:25Z</time>
      </trkpt>
      <trkpt lat="43.15925" lon="5.88249">
        <ele>383.8</ele>
        <time>2022-01-24T14:12:29Z</time>
      </trkpt>
      <trkpt lat="43.1592" lon="5.88229">
        <ele>385</ele>
        <time>2022-01-24T14:12:34Z</time>
      </trkpt>
      <trkpt lat="43.15922" lon="5.88216">
        <ele>386</ele>
        <time>2022-01-24T14:12:37Z</time>
      </trkpt>
      <trkpt lat="43.15926" lon="5.882">
        <ele>387</ele>
        <time>2022-01-24T14:12:41Z</time>
      </trkpt>
      <trkpt lat="43.1593" lon="5.88181">
        <ele>388.2</ele>
        <time>2022-01-24T14:12:46Z</time>
      </trkpt>
      <trkpt lat="43.15928" lon="5.88162">
        <ele>389.2</ele>
        <time>2022-01-24T14:12:50Z</time>
      </trkpt>
      <trkpt lat="43.1592" lon="5.88143">
        <ele>390.6</ele>
        <time>2022-01-24T14:12:55Z</time>
      </trkpt>
      <trkpt lat="43.15914" lon="5.88128">
        <ele>391.8</ele>
        <time>2022-01-24T14:12:59Z</time>
      </trkpt>
      <trkpt lat="43.15915" lon="5.88111">
        <ele>393.2</ele>
        <time>2022-01-24T14:13:03Z</time>
      </trkpt>
      <trkpt lat="43.15918" lon="5.881">
        <ele>394.4</ele>
        <time>2022-01-24T14:13:06Z</time>
      </trkpt>
      <trkpt lat="43.15919" lon="5.88093">
        <ele>395.4</ele>
        <time>2022-01-24T14:13:08Z</time>
      </trkpt>
      <trkpt lat="43.1592" lon="5.88081">
        <ele>396.6</ele>
        <time>2022-01-24T14:13:12Z</time>
      </trkpt>
      <trkpt lat="43.15917" lon="5.88066">
        <ele>397.8</ele>
        <time>2022-01-24T14:13:17Z</time>
      </trkpt>
      <trkpt lat="43.15913" lon="5.88053">
        <ele>398.8</ele>
        <time>2022-01-24T14:13:22Z</time>
      </trkpt>
      <trkpt lat="43.15907" lon="5.88038">
        <ele>400</ele>
        <time>2022-01-24T14:13:28Z</time>
      </trkpt>
      <trkpt lat="43.159" lon="5.88026">
        <ele>401</ele>
        <time>2022-01-24T14:13:33Z</time>
      </trkpt>
      <trkpt lat="43.15891" lon="5.88014">
        <ele>402.2</ele>
        <time>2022-01-24T14:13:38Z</time>
      </trkpt>
      <trkpt lat="43.15881" lon="5.88007">
        <ele>403</ele>
        <time>2022-01-24T14:13:42Z</time>
      </trkpt>
      <trkpt lat="43.15878" lon="5.88006">
        <ele>403.2</ele>
        <time>2022-01-24T14:13:43Z</time>
      </trkpt>
      <trkpt lat="43.15863" lon="5.88003">
        <ele>404.2</ele>
        <time>2022-01-24T14:13:48Z</time>
      </trkpt>
      <trkpt lat="43.15838" lon="5.88003">
        <ele>405.2</ele>
        <time>2022-01-24T14:13:57Z</time>
      </trkpt>
      <trkpt lat="43.15814" lon="5.88002">
        <ele>406.2</ele>
        <time>2022-01-24T14:14:08Z</time>
      </trkpt>
      <trkpt lat="43.15812" lon="5.88001">
        <ele>406.4</ele>
        <time>2022-01-24T14:14:09Z</time>
      </trkpt>
      <trkpt lat="43.158" lon="5.87995">
        <ele>407.6</ele>
        <time>2022-01-24T14:14:15Z</time>
      </trkpt>
      <trkpt lat="43.15792" lon="5.87993">
        <ele>409</ele>
        <time>2022-01-24T14:14:22Z</time>
      </trkpt>
      <trkpt lat="43.15792" lon="5.87993">
        <ele>410</ele>
        <time>2022-01-24T14:14:28Z</time>
      </trkpt>
      <trkpt lat="43.15792" lon="5.87993">
        <ele>410.2</ele>
        <time>2022-01-24T14:14:39Z</time>
      </trkpt>
      <trkpt lat="43.15792" lon="5.87993">
        <ele>410</ele>
        <time>2022-01-24T14:14:50Z</time>
      </trkpt>
      <trkpt lat="43.15762" lon="5.8799">
        <ele>411.2</ele>
        <time>2022-01-24T14:15:16Z</time>
      </trkpt>
      <trkpt lat="43.1575" lon="5.8799">
        <ele>412.4</ele>
        <time>2022-01-24T14:15:21Z</time>
      </trkpt>
      <trkpt lat="43.15738" lon="5.87992">
        <ele>413.6</ele>
        <time>2022-01-24T14:15:26Z</time>
      </trkpt>
      <trkpt lat="43.15726" lon="5.87994">
        <ele>414.8</ele>
        <time>2022-01-24T14:15:31Z</time>
      </trkpt>
      <trkpt lat="43.15713" lon="5.87997">
        <ele>415.8</ele>
        <time>2022-01-24T14:15:36Z</time>
      </trkpt>
      <trkpt lat="43.15703" lon="5.88">
        <ele>417.4</ele>
        <time>2022-01-24T14:15:40Z</time>
      </trkpt>
      <trkpt lat="43.15693" lon="5.88004">
        <ele>418.6</ele>
        <time>2022-01-24T14:15:44Z</time>
      </trkpt>
      <trkpt lat="43.15681" lon="5.88007">
        <ele>419.6</ele>
        <time>2022-01-24T14:15:49Z</time>
      </trkpt>
      <trkpt lat="43.15666" lon="5.88007">
        <ele>421</ele>
        <time>2022-01-24T14:15:55Z</time>
      </trkpt>
      <trkpt lat="43.15659" lon="5.88005">
        <ele>422.2</ele>
        <time>2022-01-24T14:15:58Z</time>
      </trkpt>
      <trkpt lat="43.15647" lon="5.88">
        <ele>423.4</ele>
        <time>2022-01-24T14:16:03Z</time>
      </trkpt>
      <trkpt lat="43.15637" lon="5.87992">
        <ele>424.6</ele>
        <time>2022-01-24T14:16:08Z</time>
      </trkpt>
      <trkpt lat="43.15629" lon="5.87981">
        <ele>425.6</ele>
        <time>2022-01-24T14:16:13Z</time>
      </trkpt>
      <trkpt lat="43.15626" lon="5.87972">
        <ele>426</ele>
        <time>2022-01-24T14:16:15Z</time>
      </trkpt>
      <trkpt lat="43.15625" lon="5.87954">
        <ele>426</ele>
        <time>2022-01-24T14:16:18Z</time>
      </trkpt>
      <trkpt lat="43.15621" lon="5.87932">
        <ele>426</ele>
        <time>2022-01-24T14:16:22Z</time>
      </trkpt>
      <trkpt lat="43.15613" lon="5.87943">
        <ele>424.4</ele>
        <time>2022-01-24T14:16:29Z</time>
      </trkpt>
      <trkpt lat="43.15611" lon="5.87946">
        <ele>423.8</ele>
        <time>2022-01-24T14:16:30Z</time>
      </trkpt>
      <trkpt lat="43.15607" lon="5.8795">
        <ele>423</ele>
        <time>2022-01-24T14:16:32Z</time>
      </trkpt>
      <trkpt lat="43.15602" lon="5.87954">
        <ele>422</ele>
        <time>2022-01-24T14:16:34Z</time>
      </trkpt>
      <trkpt lat="43.156" lon="5.87954">
        <ele>421.6</ele>
        <time>2022-01-24T14:16:35Z</time>
      </trkpt>
      <trkpt lat="43.15598" lon="5.87951">
        <ele>420</ele>
        <time>2022-01-24T14:16:37Z</time>
      </trkpt>
      <trkpt lat="43.15598" lon="5.87951">
        <ele>418.4</ele>
        <time>2022-01-24T14:16:39Z</time>
      </trkpt>
      <trkpt lat="43.15598" lon="5.87951">
        <ele>416.6</ele>
        <time>2022-01-24T14:16:41Z</time>
      </trkpt>
      <trkpt lat="43.15598" lon="5.87951">
        <ele>415.4</ele>
        <time>2022-01-24T14:16:42Z</time>
      </trkpt>
      <trkpt lat="43.15596" lon="5.87948">
        <ele>414</ele>
        <time>2022-01-24T14:16:44Z</time>
      </trkpt>
      <trkpt lat="43.1559" lon="5.87936">
        <ele>412.8</ele>
        <time>2022-01-24T14:16:47Z</time>
      </trkpt>
      <trkpt lat="43.15582" lon="5.87918">
        <ele>412.6</ele>
        <time>2022-01-24T14:16:51Z</time>
      </trkpt>
      <trkpt lat="43.15576" lon="5.8791">
        <ele>411.6</ele>
        <time>2022-01-24T14:16:54Z</time>
      </trkpt>
      <trkpt lat="43.15573" lon="5.87904">
        <ele>410.4</ele>
        <time>2022-01-24T14:16:56Z</time>
      </trkpt>
      <trkpt lat="43.1557" lon="5.87898">
        <ele>409</ele>
        <time>2022-01-24T14:16:58Z</time>
      </trkpt>
      <trkpt lat="43.15566" lon="5.87892">
        <ele>407.4</ele>
        <time>2022-01-24T14:17:00Z</time>
      </trkpt>
      <trkpt lat="43.15563" lon="5.87885">
        <ele>406.4</ele>
        <time>2022-01-24T14:17:02Z</time>
      </trkpt>
      <trkpt lat="43.15561" lon="5.87879">
        <ele>404.8</ele>
        <time>2022-01-24T14:17:04Z</time>
      </trkpt>
      <trkpt lat="43.15559" lon="5.87872">
        <ele>403.2</ele>
        <time>2022-01-24T14:17:06Z</time>
      </trkpt>
      <trkpt lat="43.15558" lon="5.87863">
        <ele>401.8</ele>
        <time>2022-01-24T14:17:08Z</time>
      </trkpt>
      <trkpt lat="43.1556" lon="5.87848">
        <ele>400.4</ele>
        <time>2022-01-24T14:17:11Z</time>
      </trkpt>
      <trkpt lat="43.15565" lon="5.87828">
        <ele>399.2</ele>
        <time>2022-01-24T14:17:14Z</time>
      </trkpt>
      <trkpt lat="43.15568" lon="5.87821">
        <ele>399</ele>
        <time>2022-01-24T14:17:15Z</time>
      </trkpt>
      <trkpt lat="43.15577" lon="5.87805">
        <ele>398</ele>
        <time>2022-01-24T14:17:18Z</time>
      </trkpt>
      <trkpt lat="43.15586" lon="5.87793">
        <ele>396.8</ele>
        <time>2022-01-24T14:17:21Z</time>
      </trkpt>
      <trkpt lat="43.15596" lon="5.87781">
        <ele>396</ele>
        <time>2022-01-24T14:17:24Z</time>
      </trkpt>
      <trkpt lat="43.15599" lon="5.87777">
        <ele>395.8</ele>
        <time>2022-01-24T14:17:25Z</time>
      </trkpt>
      <trkpt lat="43.15606" lon="5.87768">
        <ele>394.6</ele>
        <time>2022-01-24T14:17:28Z</time>
      </trkpt>
      <trkpt lat="43.15613" lon="5.87761">
        <ele>394</ele>
        <time>2022-01-24T14:17:30Z</time>
      </trkpt>
      <trkpt lat="43.15617" lon="5.87758">
        <ele>393.4</ele>
        <time>2022-01-24T14:17:31Z</time>
      </trkpt>
      <trkpt lat="43.15624" lon="5.87746">
        <ele>392.2</ele>
        <time>2022-01-24T14:17:34Z</time>
      </trkpt>
      <trkpt lat="43.15637" lon="5.87728">
        <ele>390.8</ele>
        <time>2022-01-24T14:17:39Z</time>
      </trkpt>
      <trkpt lat="43.15651" lon="5.87714">
        <ele>389.4</ele>
        <time>2022-01-24T14:17:43Z</time>
      </trkpt>
      <trkpt lat="43.15663" lon="5.87705">
        <ele>388.2</ele>
        <time>2022-01-24T14:17:47Z</time>
      </trkpt>
      <trkpt lat="43.15679" lon="5.87699">
        <ele>387</ele>
        <time>2022-01-24T14:17:52Z</time>
      </trkpt>
      <trkpt lat="43.1569" lon="5.87697">
        <ele>386</ele>
        <time>2022-01-24T14:17:55Z</time>
      </trkpt>
      <trkpt lat="43.15694" lon="5.87696">
        <ele>385.8</ele>
        <time>2022-01-24T14:17:56Z</time>
      </trkpt>
      <trkpt lat="43.15721" lon="5.87691">
        <ele>385.2</ele>
        <time>2022-01-24T14:18:02Z</time>
      </trkpt>
      <trkpt lat="43.15745" lon="5.8769">
        <ele>385</ele>
        <time>2022-01-24T14:18:06Z</time>
      </trkpt>
      <trkpt lat="43.1575" lon="5.87689">
        <ele>384.8</ele>
        <time>2022-01-24T14:18:07Z</time>
      </trkpt>
      <trkpt lat="43.1577" lon="5.87675">
        <ele>383.8</ele>
        <time>2022-01-24T14:18:11Z</time>
      </trkpt>
      <trkpt lat="43.15773" lon="5.87672">
        <ele>383.4</ele>
        <time>2022-01-24T14:18:12Z</time>
      </trkpt>
      <trkpt lat="43.1578" lon="5.87665">
        <ele>382.8</ele>
        <time>2022-01-24T14:18:14Z</time>
      </trkpt>
      <trkpt lat="43.15785" lon="5.87663">
        <ele>382.4</ele>
        <time>2022-01-24T14:18:15Z</time>
      </trkpt>
      <trkpt lat="43.15797" lon="5.87658">
        <ele>381.2</ele>
        <time>2022-01-24T14:18:18Z</time>
      </trkpt>
      <trkpt lat="43.15809" lon="5.87654">
        <ele>380.4</ele>
        <time>2022-01-24T14:18:21Z</time>
      </trkpt>
      <trkpt lat="43.15829" lon="5.87647">
        <ele>379.4</ele>
        <time>2022-01-24T14:18:26Z</time>
      </trkpt>
      <trkpt lat="43.15834" lon="5.87644">
        <ele>379.2</ele>
        <time>2022-01-24T14:18:27Z</time>
      </trkpt>
      <trkpt lat="43.15837" lon="5.87606">
        <ele>378.4</ele>
        <time>2022-01-24T14:18:33Z</time>
      </trkpt>
      <trkpt lat="43.15833" lon="5.87591">
        <ele>377.2</ele>
        <time>2022-01-24T14:18:35Z</time>
      </trkpt>
      <trkpt lat="43.15832" lon="5.87579">
        <ele>376.6</ele>
        <time>2022-01-24T14:18:37Z</time>
      </trkpt>
      <trkpt lat="43.15831" lon="5.87572">
        <ele>376.2</ele>
        <time>2022-01-24T14:18:38Z</time>
      </trkpt>
      <trkpt lat="43.15823" lon="5.87547">
        <ele>375.2</ele>
        <time>2022-01-24T14:18:43Z</time>
      </trkpt>
      <trkpt lat="43.15822" lon="5.87544">
        <ele>374</ele>
        <time>2022-01-24T14:18:49Z</time>
      </trkpt>
      <trkpt lat="43.15822" lon="5.87544">
        <ele>372.8</ele>
        <time>2022-01-24T14:18:51Z</time>
      </trkpt>
      <trkpt lat="43.15822" lon="5.87543">
        <ele>372.4</ele>
        <time>2022-01-24T14:19:03Z</time>
      </trkpt>
      <trkpt lat="43.15823" lon="5.87543">
        <ele>373.4</ele>
        <time>2022-01-24T14:19:12Z</time>
      </trkpt>
      <trkpt lat="43.15823" lon="5.87543">
        <ele>374</ele>
        <time>2022-01-24T14:19:15Z</time>
      </trkpt>
      <trkpt lat="43.15824" lon="5.87543">
        <ele>374.8</ele>
        <time>2022-01-24T14:19:20Z</time>
      </trkpt>
      <trkpt lat="43.15824" lon="5.87543">
        <ele>375</ele>
        <time>2022-01-24T14:19:22Z</time>
      </trkpt>
      <trkpt lat="43.15824" lon="5.87543">
        <ele>376</ele>
        <time>2022-01-24T14:19:25Z</time>
      </trkpt>
      <trkpt lat="43.15824" lon="5.87543">
        <ele>376.8</ele>
        <time>2022-01-24T14:19:31Z</time>
      </trkpt>
      <trkpt lat="43.15824" lon="5.87543">
        <ele>377.2</ele>
        <time>2022-01-24T14:19:33Z</time>
      </trkpt>
      <trkpt lat="43.15824" lon="5.87543">
        <ele>377.6</ele>
        <time>2022-01-24T14:19:37Z</time>
      </trkpt>
      <trkpt lat="43.15824" lon="5.87543">
        <ele>377.8</ele>
        <time>2022-01-24T14:19:41Z</time>
      </trkpt>
      <trkpt lat="43.15824" lon="5.87543">
        <ele>378.2</ele>
        <time>2022-01-24T14:19:46Z</time>
      </trkpt>
      <trkpt lat="43.15824" lon="5.87543">
        <ele>378.8</ele>
        <time>2022-01-24T14:19:52Z</time>
      </trkpt>
      <trkpt lat="43.15824" lon="5.87543">
        <ele>379.2</ele>
        <time>2022-01-24T14:19:56Z</time>
      </trkpt>
      <trkpt lat="43.15824" lon="5.87543">
        <ele>380</ele>
        <time>2022-01-24T14:20:15Z</time>
      </trkpt>
      <trkpt lat="43.15824" lon="5.87543">
        <ele>380.2</ele>
        <time>2022-01-24T14:20:17Z</time>
      </trkpt>
      <trkpt lat="43.15824" lon="5.87535">
        <ele>380.6</ele>
        <time>2022-01-24T14:20:28Z</time>
      </trkpt>
      <trkpt lat="43.15824" lon="5.87529">
        <ele>380.6</ele>
        <time>2022-01-24T14:20:34Z</time>
      </trkpt>
      <trkpt lat="43.15828" lon="5.87514">
        <ele>380.2</ele>
        <time>2022-01-24T14:20:38Z</time>
      </trkpt>
      <trkpt lat="43.15839" lon="5.87489">
        <ele>380</ele>
        <time>2022-01-24T14:20:42Z</time>
      </trkpt>
      <trkpt lat="43.15834" lon="5.87465">
        <ele>379.2</ele>
        <time>2022-01-24T14:20:46Z</time>
      </trkpt>
      <trkpt lat="43.15825" lon="5.87455">
        <ele>378.4</ele>
        <time>2022-01-24T14:20:48Z</time>
      </trkpt>
      <trkpt lat="43.15821" lon="5.87449">
        <ele>377.8</ele>
        <time>2022-01-24T14:20:49Z</time>
      </trkpt>
      <trkpt lat="43.15811" lon="5.87438">
        <ele>376.6</ele>
        <time>2022-01-24T14:20:51Z</time>
      </trkpt>
      <trkpt lat="43.15795" lon="5.87424">
        <ele>375.4</ele>
        <time>2022-01-24T14:20:54Z</time>
      </trkpt>
      <trkpt lat="43.15778" lon="5.8741">
        <ele>374.6</ele>
        <time>2022-01-24T14:20:57Z</time>
      </trkpt>
      <trkpt lat="43.15775" lon="5.87403">
        <ele>373.8</ele>
        <time>2022-01-24T14:20:58Z</time>
      </trkpt>
      <trkpt lat="43.15769" lon="5.87388">
        <ele>372.4</ele>
        <time>2022-01-24T14:21:00Z</time>
      </trkpt>
      <trkpt lat="43.15761" lon="5.87376">
        <ele>371.2</ele>
        <time>2022-01-24T14:21:02Z</time>
      </trkpt>
      <trkpt lat="43.1575" lon="5.87367">
        <ele>370</ele>
        <time>2022-01-24T14:21:04Z</time>
      </trkpt>
      <trkpt lat="43.15745" lon="5.87364">
        <ele>369.2</ele>
        <time>2022-01-24T14:21:05Z</time>
      </trkpt>
      <trkpt lat="43.15741" lon="5.87362">
        <ele>368.4</ele>
        <time>2022-01-24T14:21:06Z</time>
      </trkpt>
      <trkpt lat="43.15734" lon="5.87357">
        <ele>366.6</ele>
        <time>2022-01-24T14:21:08Z</time>
      </trkpt>
      <trkpt lat="43.15733" lon="5.87353">
        <ele>366</ele>
        <time>2022-01-24T14:21:09Z</time>
      </trkpt>
      <trkpt lat="43.1573" lon="5.87346">
        <ele>365.2</ele>
        <time>2022-01-24T14:21:11Z</time>
      </trkpt>
      <trkpt lat="43.15727" lon="5.87341">
        <ele>364.2</ele>
        <time>2022-01-24T14:21:13Z</time>
      </trkpt>
      <trkpt lat="43.15704" lon="5.87323">
        <ele>363</ele>
        <time>2022-01-24T14:21:20Z</time>
      </trkpt>
      <trkpt lat="43.157" lon="5.87319">
        <ele>363</ele>
        <time>2022-01-24T14:21:21Z</time>
      </trkpt>
      <trkpt lat="43.15689" lon="5.87283">
        <ele>362.4</ele>
        <time>2022-01-24T14:21:27Z</time>
      </trkpt>
      <trkpt lat="43.15689" lon="5.87271">
        <ele>361.8</ele>
        <time>2022-01-24T14:21:29Z</time>
      </trkpt>
      <trkpt lat="43.15689" lon="5.87259">
        <ele>360.8</ele>
        <time>2022-01-24T14:21:31Z</time>
      </trkpt>
      <trkpt lat="43.15689" lon="5.87252">
        <ele>360.4</ele>
        <time>2022-01-24T14:21:32Z</time>
      </trkpt>
      <trkpt lat="43.15692" lon="5.8724">
        <ele>359.6</ele>
        <time>2022-01-24T14:21:34Z</time>
      </trkpt>
      <trkpt lat="43.15695" lon="5.87228">
        <ele>358.4</ele>
        <time>2022-01-24T14:21:36Z</time>
      </trkpt>
      <trkpt lat="43.15698" lon="5.87207">
        <ele>357.4</ele>
        <time>2022-01-24T14:21:40Z</time>
      </trkpt>
      <trkpt lat="43.157" lon="5.87201">
        <ele>357.2</ele>
        <time>2022-01-24T14:21:41Z</time>
      </trkpt>
      <trkpt lat="43.15706" lon="5.87192">
        <ele>356.2</ele>
        <time>2022-01-24T14:21:43Z</time>
      </trkpt>
      <trkpt lat="43.15716" lon="5.8718">
        <ele>354.4</ele>
        <time>2022-01-24T14:21:46Z</time>
      </trkpt>
      <trkpt lat="43.15721" lon="5.87172">
        <ele>353.4</ele>
        <time>2022-01-24T14:21:48Z</time>
      </trkpt>
      <trkpt lat="43.15724" lon="5.87164">
        <ele>352.4</ele>
        <time>2022-01-24T14:21:50Z</time>
      </trkpt>
      <trkpt lat="43.15724" lon="5.87159">
        <ele>351.8</ele>
        <time>2022-01-24T14:21:51Z</time>
      </trkpt>
      <trkpt lat="43.15722" lon="5.87149">
        <ele>351</ele>
        <time>2022-01-24T14:21:53Z</time>
      </trkpt>
      <trkpt lat="43.15712" lon="5.87107">
        <ele>350</ele>
        <time>2022-01-24T14:22:03Z</time>
      </trkpt>
      <trkpt lat="43.157" lon="5.87095">
        <ele>348.4</ele>
        <time>2022-01-24T14:22:07Z</time>
      </trkpt>
      <trkpt lat="43.15689" lon="5.87085">
        <ele>347.4</ele>
        <time>2022-01-24T14:22:10Z</time>
      </trkpt>
      <trkpt lat="43.1568" lon="5.87077">
        <ele>346.6</ele>
        <time>2022-01-24T14:22:12Z</time>
      </trkpt>
      <trkpt lat="43.15676" lon="5.87073">
        <ele>346</ele>
        <time>2022-01-24T14:22:13Z</time>
      </trkpt>
      <trkpt lat="43.15668" lon="5.87067">
        <ele>345</ele>
        <time>2022-01-24T14:22:15Z</time>
      </trkpt>
      <trkpt lat="43.15659" lon="5.87061">
        <ele>343.8</ele>
        <time>2022-01-24T14:22:17Z</time>
      </trkpt>
      <trkpt lat="43.15654" lon="5.87058">
        <ele>343.4</ele>
        <time>2022-01-24T14:22:18Z</time>
      </trkpt>
      <trkpt lat="43.15647" lon="5.87019">
        <ele>342.4</ele>
        <time>2022-01-24T14:22:25Z</time>
      </trkpt>
      <trkpt lat="43.15648" lon="5.87014">
        <ele>342</ele>
        <time>2022-01-24T14:22:26Z</time>
      </trkpt>
      <trkpt lat="43.15651" lon="5.87002">
        <ele>341.2</ele>
        <time>2022-01-24T14:22:28Z</time>
      </trkpt>
      <trkpt lat="43.15653" lon="5.86986">
        <ele>339.2</ele>
        <time>2022-01-24T14:22:31Z</time>
      </trkpt>
      <trkpt lat="43.15654" lon="5.86976">
        <ele>338.2</ele>
        <time>2022-01-24T14:22:33Z</time>
      </trkpt>
      <trkpt lat="43.15655" lon="5.86963">
        <ele>336.6</ele>
        <time>2022-01-24T14:22:36Z</time>
      </trkpt>
      <trkpt lat="43.15656" lon="5.86953">
        <ele>335.2</ele>
        <time>2022-01-24T14:22:38Z</time>
      </trkpt>
      <trkpt lat="43.15657" lon="5.86941">
        <ele>334.2</ele>
        <time>2022-01-24T14:22:40Z</time>
      </trkpt>
      <trkpt lat="43.15656" lon="5.86935">
        <ele>333.2</ele>
        <time>2022-01-24T14:22:41Z</time>
      </trkpt>
      <trkpt lat="43.15654" lon="5.86928">
        <ele>332.6</ele>
        <time>2022-01-24T14:22:42Z</time>
      </trkpt>
      <trkpt lat="43.15653" lon="5.86921">
        <ele>332</ele>
        <time>2022-01-24T14:22:43Z</time>
      </trkpt>
      <trkpt lat="43.15652" lon="5.86917">
        <ele>331.2</ele>
        <time>2022-01-24T14:22:44Z</time>
      </trkpt>
      <trkpt lat="43.15651" lon="5.86912">
        <ele>329.6</ele>
        <time>2022-01-24T14:22:46Z</time>
      </trkpt>
      <trkpt lat="43.15651" lon="5.86912">
        <ele>328.2</ele>
        <time>2022-01-24T14:22:49Z</time>
      </trkpt>
      <trkpt lat="43.15652" lon="5.86912">
        <ele>327</ele>
        <time>2022-01-24T14:22:50Z</time>
      </trkpt>
      <trkpt lat="43.15652" lon="5.86912">
        <ele>326</ele>
        <time>2022-01-24T14:22:54Z</time>
      </trkpt>
      <trkpt lat="43.15644" lon="5.86905">
        <ele>325.8</ele>
        <time>2022-01-24T14:23:02Z</time>
      </trkpt>
      <trkpt lat="43.15643" lon="5.86904">
        <ele>325.8</ele>
        <time>2022-01-24T14:23:03Z</time>
      </trkpt>
      <trkpt lat="43.15635" lon="5.86904">
        <ele>325</ele>
        <time>2022-01-24T14:23:07Z</time>
      </trkpt>
      <trkpt lat="43.15632" lon="5.86904">
        <ele>324.6</ele>
        <time>2022-01-24T14:23:08Z</time>
      </trkpt>
      <trkpt lat="43.15627" lon="5.86904">
        <ele>323.4</ele>
        <time>2022-01-24T14:23:10Z</time>
      </trkpt>
      <trkpt lat="43.15622" lon="5.86901">
        <ele>322.4</ele>
        <time>2022-01-24T14:23:12Z</time>
      </trkpt>
      <trkpt lat="43.15605" lon="5.86891">
        <ele>321.4</ele>
        <time>2022-01-24T14:23:17Z</time>
      </trkpt>
      <trkpt lat="43.15599" lon="5.86888">
        <ele>319.4</ele>
        <time>2022-01-24T14:23:19Z</time>
      </trkpt>
      <trkpt lat="43.15591" lon="5.86885">
        <ele>318</ele>
        <time>2022-01-24T14:23:21Z</time>
      </trkpt>
      <trkpt lat="43.15586" lon="5.86881">
        <ele>317</ele>
        <time>2022-01-24T14:23:23Z</time>
      </trkpt>
      <trkpt lat="43.15579" lon="5.86876">
        <ele>316</ele>
        <time>2022-01-24T14:23:25Z</time>
      </trkpt>
      <trkpt lat="43.15576" lon="5.86873">
        <ele>315.4</ele>
        <time>2022-01-24T14:23:26Z</time>
      </trkpt>
      <trkpt lat="43.15572" lon="5.8687">
        <ele>314.8</ele>
        <time>2022-01-24T14:23:27Z</time>
      </trkpt>
      <trkpt lat="43.15566" lon="5.86863">
        <ele>313.2</ele>
        <time>2022-01-24T14:23:29Z</time>
      </trkpt>
      <trkpt lat="43.1556" lon="5.86857">
        <ele>311.8</ele>
        <time>2022-01-24T14:23:31Z</time>
      </trkpt>
      <trkpt lat="43.15554" lon="5.8685">
        <ele>310.4</ele>
        <time>2022-01-24T14:23:33Z</time>
      </trkpt>
      <trkpt lat="43.15548" lon="5.86845">
        <ele>309.2</ele>
        <time>2022-01-24T14:23:35Z</time>
      </trkpt>
      <trkpt lat="43.15539" lon="5.86838">
        <ele>307.8</ele>
        <time>2022-01-24T14:23:38Z</time>
      </trkpt>
      <trkpt lat="43.15531" lon="5.86832">
        <ele>306</ele>
        <time>2022-01-24T14:23:40Z</time>
      </trkpt>
      <trkpt lat="43.15526" lon="5.86828">
        <ele>305.2</ele>
        <time>2022-01-24T14:23:41Z</time>
      </trkpt>
      <trkpt lat="43.15522" lon="5.86824">
        <ele>304.6</ele>
        <time>2022-01-24T14:23:42Z</time>
      </trkpt>
      <trkpt lat="43.15513" lon="5.86816">
        <ele>303.6</ele>
        <time>2022-01-24T14:23:44Z</time>
      </trkpt>
      <trkpt lat="43.15503" lon="5.86808">
        <ele>302</ele>
        <time>2022-01-24T14:23:46Z</time>
      </trkpt>
      <trkpt lat="43.1549" lon="5.86798">
        <ele>300.6</ele>
        <time>2022-01-24T14:23:49Z</time>
      </trkpt>
      <trkpt lat="43.15475" lon="5.86789">
        <ele>299.2</ele>
        <time>2022-01-24T14:23:52Z</time>
      </trkpt>
      <trkpt lat="43.15465" lon="5.86781">
        <ele>297.8</ele>
        <time>2022-01-24T14:23:54Z</time>
      </trkpt>
      <trkpt lat="43.15454" lon="5.86772">
        <ele>296.2</ele>
        <time>2022-01-24T14:23:56Z</time>
      </trkpt>
      <trkpt lat="43.1545" lon="5.86769">
        <ele>296</ele>
        <time>2022-01-24T14:23:57Z</time>
      </trkpt>
      <trkpt lat="43.1544" lon="5.86763">
        <ele>294.6</ele>
        <time>2022-01-24T14:23:59Z</time>
      </trkpt>
      <trkpt lat="43.15433" lon="5.86757">
        <ele>293.4</ele>
        <time>2022-01-24T14:24:01Z</time>
      </trkpt>
      <trkpt lat="43.15427" lon="5.86753">
        <ele>292.4</ele>
        <time>2022-01-24T14:24:03Z</time>
      </trkpt>
      <trkpt lat="43.1542" lon="5.86748">
        <ele>290.8</ele>
        <time>2022-01-24T14:24:05Z</time>
      </trkpt>
      <trkpt lat="43.15414" lon="5.86743">
        <ele>289.4</ele>
        <time>2022-01-24T14:24:07Z</time>
      </trkpt>
      <trkpt lat="43.15406" lon="5.86734">
        <ele>288.2</ele>
        <time>2022-01-24T14:24:10Z</time>
      </trkpt>
      <trkpt lat="43.15385" lon="5.86712">
        <ele>287.2</ele>
        <time>2022-01-24T14:24:18Z</time>
      </trkpt>
      <trkpt lat="43.15375" lon="5.86705">
        <ele>286.2</ele>
        <time>2022-01-24T14:24:23Z</time>
      </trkpt>
      <trkpt lat="43.15373" lon="5.86706">
        <ele>286.2</ele>
        <time>2022-01-24T14:24:24Z</time>
      </trkpt>
      <trkpt lat="43.15364" lon="5.86708">
        <ele>284.6</ele>
        <time>2022-01-24T14:24:27Z</time>
      </trkpt>
      <trkpt lat="43.15356" lon="5.8671">
        <ele>283.2</ele>
        <time>2022-01-24T14:24:30Z</time>
      </trkpt>
      <trkpt lat="43.15351" lon="5.8671">
        <ele>282.8</ele>
        <time>2022-01-24T14:24:32Z</time>
      </trkpt>
      <trkpt lat="43.15347" lon="5.86713">
        <ele>282</ele>
        <time>2022-01-24T14:24:34Z</time>
      </trkpt>
      <trkpt lat="43.15343" lon="5.86715">
        <ele>280.6</ele>
        <time>2022-01-24T14:24:36Z</time>
      </trkpt>
      <trkpt lat="43.1534" lon="5.86717">
        <ele>280</ele>
        <time>2022-01-24T14:24:37Z</time>
      </trkpt>
      <trkpt lat="43.15337" lon="5.86718">
        <ele>279.2</ele>
        <time>2022-01-24T14:24:38Z</time>
      </trkpt>
      <trkpt lat="43.15333" lon="5.86721">
        <ele>278.2</ele>
        <time>2022-01-24T14:24:40Z</time>
      </trkpt>
      <trkpt lat="43.15329" lon="5.86724">
        <ele>277</ele>
        <time>2022-01-24T14:24:42Z</time>
      </trkpt>
      <trkpt lat="43.15324" lon="5.86727">
        <ele>276</ele>
        <time>2022-01-24T14:24:44Z</time>
      </trkpt>
      <trkpt lat="43.1532" lon="5.86729">
        <ele>275</ele>
        <time>2022-01-24T14:24:46Z</time>
      </trkpt>
      <trkpt lat="43.15319" lon="5.86731">
        <ele>274.4</ele>
        <time>2022-01-24T14:24:47Z</time>
      </trkpt>
      <trkpt lat="43.15318" lon="5.86733">
        <ele>273.6</ele>
        <time>2022-01-24T14:24:48Z</time>
      </trkpt>
      <trkpt lat="43.15315" lon="5.86737">
        <ele>272.2</ele>
        <time>2022-01-24T14:24:50Z</time>
      </trkpt>
      <trkpt lat="43.15311" lon="5.8674">
        <ele>271.2</ele>
        <time>2022-01-24T14:24:52Z</time>
      </trkpt>
      <trkpt lat="43.15307" lon="5.86743">
        <ele>269.6</ele>
        <time>2022-01-24T14:24:54Z</time>
      </trkpt>
      <trkpt lat="43.15305" lon="5.86748">
        <ele>268.6</ele>
        <time>2022-01-24T14:24:56Z</time>
      </trkpt>
      <trkpt lat="43.15303" lon="5.86754">
        <ele>267.2</ele>
        <time>2022-01-24T14:24:58Z</time>
      </trkpt>
      <trkpt lat="43.15303" lon="5.8676">
        <ele>265.8</ele>
        <time>2022-01-24T14:25:00Z</time>
      </trkpt>
      <trkpt lat="43.15302" lon="5.86765">
        <ele>264.6</ele>
        <time>2022-01-24T14:25:02Z</time>
      </trkpt>
      <trkpt lat="43.153" lon="5.8677">
        <ele>263.4</ele>
        <time>2022-01-24T14:25:04Z</time>
      </trkpt>
      <trkpt lat="43.15299" lon="5.86775">
        <ele>262.2</ele>
        <time>2022-01-24T14:25:06Z</time>
      </trkpt>
      <trkpt lat="43.15296" lon="5.8678">
        <ele>260.4</ele>
        <time>2022-01-24T14:25:08Z</time>
      </trkpt>
      <trkpt lat="43.15294" lon="5.86785">
        <ele>259.2</ele>
        <time>2022-01-24T14:25:10Z</time>
      </trkpt>
      <trkpt lat="43.15292" lon="5.86789">
        <ele>258.2</ele>
        <time>2022-01-24T14:25:12Z</time>
      </trkpt>
      <trkpt lat="43.1529" lon="5.86793">
        <ele>257</ele>
        <time>2022-01-24T14:25:14Z</time>
      </trkpt>
      <trkpt lat="43.15289" lon="5.86795">
        <ele>255.4</ele>
        <time>2022-01-24T14:25:16Z</time>
      </trkpt>
      <trkpt lat="43.15287" lon="5.86797">
        <ele>253.8</ele>
        <time>2022-01-24T14:25:18Z</time>
      </trkpt>
      <trkpt lat="43.15286" lon="5.86799">
        <ele>252.4</ele>
        <time>2022-01-24T14:25:20Z</time>
      </trkpt>
      <trkpt lat="43.15284" lon="5.868">
        <ele>251.4</ele>
        <time>2022-01-24T14:25:22Z</time>
      </trkpt>
      <trkpt lat="43.1528" lon="5.86802">
        <ele>250.8</ele>
        <time>2022-01-24T14:25:24Z</time>
      </trkpt>
      <trkpt lat="43.15275" lon="5.86803">
        <ele>250.2</ele>
        <time>2022-01-24T14:25:26Z</time>
      </trkpt>
      <trkpt lat="43.15263" lon="5.86806">
        <ele>249.2</ele>
        <time>2022-01-24T14:25:31Z</time>
      </trkpt>
      <trkpt lat="43.15256" lon="5.86808">
        <ele>247.8</ele>
        <time>2022-01-24T14:25:35Z</time>
      </trkpt>
      <trkpt lat="43.15251" lon="5.86811">
        <ele>246.2</ele>
        <time>2022-01-24T14:25:38Z</time>
      </trkpt>
      <trkpt lat="43.15248" lon="5.86814">
        <ele>245</ele>
        <time>2022-01-24T14:25:40Z</time>
      </trkpt>
      <trkpt lat="43.15242" lon="5.86817">
        <ele>243.6</ele>
        <time>2022-01-24T14:25:42Z</time>
      </trkpt>
      <trkpt lat="43.15232" lon="5.86817">
        <ele>242.2</ele>
        <time>2022-01-24T14:25:45Z</time>
      </trkpt>
      <trkpt lat="43.15228" lon="5.86817">
        <ele>241.2</ele>
        <time>2022-01-24T14:25:47Z</time>
      </trkpt>
      <trkpt lat="43.15222" lon="5.86816">
        <ele>239.8</ele>
        <time>2022-01-24T14:25:50Z</time>
      </trkpt>
      <trkpt lat="43.15217" lon="5.86816">
        <ele>238.8</ele>
        <time>2022-01-24T14:25:52Z</time>
      </trkpt>
      <trkpt lat="43.15215" lon="5.86814">
        <ele>238.4</ele>
        <time>2022-01-24T14:25:53Z</time>
      </trkpt>
      <trkpt lat="43.15213" lon="5.86812">
        <ele>237.6</ele>
        <time>2022-01-24T14:25:54Z</time>
      </trkpt>
      <trkpt lat="43.15207" lon="5.86808">
        <ele>236.4</ele>
        <time>2022-01-24T14:25:57Z</time>
      </trkpt>
      <trkpt lat="43.15204" lon="5.86803">
        <ele>235.4</ele>
        <time>2022-01-24T14:25:59Z</time>
      </trkpt>
      <trkpt lat="43.15201" lon="5.86801">
        <ele>235</ele>
        <time>2022-01-24T14:26:00Z</time>
      </trkpt>
      <trkpt lat="43.15194" lon="5.86793">
        <ele>234</ele>
        <time>2022-01-24T14:26:03Z</time>
      </trkpt>
      <trkpt lat="43.15188" lon="5.86781">
        <ele>233</ele>
        <time>2022-01-24T14:26:06Z</time>
      </trkpt>
      <trkpt lat="43.15182" lon="5.8677">
        <ele>231.8</ele>
        <time>2022-01-24T14:26:09Z</time>
      </trkpt>
      <trkpt lat="43.15175" lon="5.86755">
        <ele>230.2</ele>
        <time>2022-01-24T14:26:13Z</time>
      </trkpt>
      <trkpt lat="43.15169" lon="5.8674">
        <ele>228.8</ele>
        <time>2022-01-24T14:26:16Z</time>
      </trkpt>
      <trkpt lat="43.15166" lon="5.86734">
        <ele>227</ele>
        <time>2022-01-24T14:26:18Z</time>
      </trkpt>
      <trkpt lat="43.15163" lon="5.86731">
        <ele>225.8</ele>
        <time>2022-01-24T14:26:20Z</time>
      </trkpt>
      <trkpt lat="43.15159" lon="5.86728">
        <ele>224.2</ele>
        <time>2022-01-24T14:26:22Z</time>
      </trkpt>
      <trkpt lat="43.15155" lon="5.86724">
        <ele>223</ele>
        <time>2022-01-24T14:26:24Z</time>
      </trkpt>
      <trkpt lat="43.15151" lon="5.86721">
        <ele>222.4</ele>
        <time>2022-01-24T14:26:26Z</time>
      </trkpt>
      <trkpt lat="43.1515" lon="5.86722">
        <ele>222</ele>
        <time>2022-01-24T14:26:27Z</time>
      </trkpt>
      <trkpt lat="43.15147" lon="5.86727">
        <ele>220.6</ele>
        <time>2022-01-24T14:26:29Z</time>
      </trkpt>
      <trkpt lat="43.15143" lon="5.86738">
        <ele>219.2</ele>
        <time>2022-01-24T14:26:32Z</time>
      </trkpt>
      <trkpt lat="43.1514" lon="5.86747">
        <ele>218</ele>
        <time>2022-01-24T14:26:34Z</time>
      </trkpt>
      <trkpt lat="43.15135" lon="5.86757">
        <ele>217</ele>
        <time>2022-01-24T14:26:37Z</time>
      </trkpt>
      <trkpt lat="43.15127" lon="5.86771">
        <ele>215.8</ele>
        <time>2022-01-24T14:26:41Z</time>
      </trkpt>
      <trkpt lat="43.15121" lon="5.86781">
        <ele>214.6</ele>
        <time>2022-01-24T14:26:45Z</time>
      </trkpt>
      <trkpt lat="43.15114" lon="5.86786">
        <ele>213.2</ele>
        <time>2022-01-24T14:26:48Z</time>
      </trkpt>
      <trkpt lat="43.15109" lon="5.86788">
        <ele>212.2</ele>
        <time>2022-01-24T14:26:50Z</time>
      </trkpt>
      <trkpt lat="43.15107" lon="5.8679">
        <ele>210.8</ele>
        <time>2022-01-24T14:26:51Z</time>
      </trkpt>
      <trkpt lat="43.15102" lon="5.86794">
        <ele>209.8</ele>
        <time>2022-01-24T14:26:53Z</time>
      </trkpt>
      <trkpt lat="43.151" lon="5.86797">
        <ele>209.2</ele>
        <time>2022-01-24T14:26:54Z</time>
      </trkpt>
      <trkpt lat="43.15098" lon="5.86799">
        <ele>208.8</ele>
        <time>2022-01-24T14:26:55Z</time>
      </trkpt>
      <trkpt lat="43.15091" lon="5.86811">
        <ele>207.2</ele>
        <time>2022-01-24T14:26:58Z</time>
      </trkpt>
      <trkpt lat="43.15085" lon="5.86825">
        <ele>205.8</ele>
        <time>2022-01-24T14:27:01Z</time>
      </trkpt>
      <trkpt lat="43.1508" lon="5.86839">
        <ele>204.8</ele>
        <time>2022-01-24T14:27:04Z</time>
      </trkpt>
      <trkpt lat="43.15076" lon="5.86854">
        <ele>203</ele>
        <time>2022-01-24T14:27:07Z</time>
      </trkpt>
      <trkpt lat="43.15072" lon="5.86862">
        <ele>202</ele>
        <time>2022-01-24T14:27:09Z</time>
      </trkpt>
      <trkpt lat="43.15069" lon="5.86867">
        <ele>201.6</ele>
        <time>2022-01-24T14:27:10Z</time>
      </trkpt>
      <trkpt lat="43.15061" lon="5.86873">
        <ele>200.4</ele>
        <time>2022-01-24T14:27:12Z</time>
      </trkpt>
      <trkpt lat="43.15054" lon="5.86877">
        <ele>199.4</ele>
        <time>2022-01-24T14:27:14Z</time>
      </trkpt>
      <trkpt lat="43.15042" lon="5.86881">
        <ele>198</ele>
        <time>2022-01-24T14:27:17Z</time>
      </trkpt>
      <trkpt lat="43.15038" lon="5.86883">
        <ele>197.4</ele>
        <time>2022-01-24T14:27:18Z</time>
      </trkpt>
      <trkpt lat="43.15034" lon="5.86885">
        <ele>196.8</ele>
        <time>2022-01-24T14:27:19Z</time>
      </trkpt>
      <trkpt lat="43.15025" lon="5.86888">
        <ele>195.8</ele>
        <time>2022-01-24T14:27:21Z</time>
      </trkpt>
      <trkpt lat="43.15021" lon="5.8689">
        <ele>195.2</ele>
        <time>2022-01-24T14:27:22Z</time>
      </trkpt>
      <trkpt lat="43.15015" lon="5.86893">
        <ele>194</ele>
        <time>2022-01-24T14:27:24Z</time>
      </trkpt>
      <trkpt lat="43.15009" lon="5.86895">
        <ele>192.8</ele>
        <time>2022-01-24T14:27:26Z</time>
      </trkpt>
      <trkpt lat="43.15002" lon="5.86897">
        <ele>191.4</ele>
        <time>2022-01-24T14:27:28Z</time>
      </trkpt>
      <trkpt lat="43.14992" lon="5.86901">
        <ele>189.8</ele>
        <time>2022-01-24T14:27:31Z</time>
      </trkpt>
      <trkpt lat="43.14981" lon="5.86907">
        <ele>188.6</ele>
        <time>2022-01-24T14:27:34Z</time>
      </trkpt>
      <trkpt lat="43.14975" lon="5.86912">
        <ele>187.6</ele>
        <time>2022-01-24T14:27:36Z</time>
      </trkpt>
      <trkpt lat="43.14964" lon="5.8692">
        <ele>186.4</ele>
        <time>2022-01-24T14:27:39Z</time>
      </trkpt>
      <trkpt lat="43.14957" lon="5.86922">
        <ele>185.4</ele>
        <time>2022-01-24T14:27:41Z</time>
      </trkpt>
      <trkpt lat="43.14947" lon="5.86921">
        <ele>183.6</ele>
        <time>2022-01-24T14:27:44Z</time>
      </trkpt>
      <trkpt lat="43.1494" lon="5.86921">
        <ele>182.4</ele>
        <time>2022-01-24T14:27:46Z</time>
      </trkpt>
      <trkpt lat="43.14931" lon="5.86918">
        <ele>181.4</ele>
        <time>2022-01-24T14:27:49Z</time>
      </trkpt>
      <trkpt lat="43.14921" lon="5.86914">
        <ele>180.2</ele>
        <time>2022-01-24T14:27:52Z</time>
      </trkpt>
      <trkpt lat="43.14912" lon="5.86912">
        <ele>179.2</ele>
        <time>2022-01-24T14:27:55Z</time>
      </trkpt>
      <trkpt lat="43.14897" lon="5.86912">
        <ele>177.8</ele>
        <time>2022-01-24T14:27:59Z</time>
      </trkpt>
      <trkpt lat="43.14887" lon="5.86913">
        <ele>176.6</ele>
        <time>2022-01-24T14:28:02Z</time>
      </trkpt>
      <trkpt lat="43.1488" lon="5.86915">
        <ele>175.4</ele>
        <time>2022-01-24T14:28:04Z</time>
      </trkpt>
      <trkpt lat="43.14872" lon="5.86921">
        <ele>174.4</ele>
        <time>2022-01-24T14:28:07Z</time>
      </trkpt>
      <trkpt lat="43.14868" lon="5.86926">
        <ele>173.2</ele>
        <time>2022-01-24T14:28:09Z</time>
      </trkpt>
      <trkpt lat="43.14865" lon="5.86933">
        <ele>172</ele>
        <time>2022-01-24T14:28:12Z</time>
      </trkpt>
      <trkpt lat="43.14864" lon="5.86937">
        <ele>170.8</ele>
        <time>2022-01-24T14:28:15Z</time>
      </trkpt>
      <trkpt lat="43.14864" lon="5.86937">
        <ele>169.6</ele>
        <time>2022-01-24T14:28:18Z</time>
      </trkpt>
      <trkpt lat="43.14862" lon="5.86946">
        <ele>168.4</ele>
        <time>2022-01-24T14:28:21Z</time>
      </trkpt>
      <trkpt lat="43.14871" lon="5.86966">
        <ele>168</ele>
        <time>2022-01-24T14:28:27Z</time>
      </trkpt>
      <trkpt lat="43.14881" lon="5.86977">
        <ele>167.2</ele>
        <time>2022-01-24T14:28:32Z</time>
      </trkpt>
      <trkpt lat="43.14886" lon="5.86983">
        <ele>166</ele>
        <time>2022-01-24T14:28:35Z</time>
      </trkpt>
      <trkpt lat="43.1489" lon="5.86989">
        <ele>164.6</ele>
        <time>2022-01-24T14:28:38Z</time>
      </trkpt>
      <trkpt lat="43.14899" lon="5.87">
        <ele>163.4</ele>
        <time>2022-01-24T14:28:42Z</time>
      </trkpt>
      <trkpt lat="43.14903" lon="5.87005">
        <ele>162.4</ele>
        <time>2022-01-24T14:28:44Z</time>
      </trkpt>
      <trkpt lat="43.14908" lon="5.87013">
        <ele>161</ele>
        <time>2022-01-24T14:28:47Z</time>
      </trkpt>
      <trkpt lat="43.1492" lon="5.87027">
        <ele>159.8</ele>
        <time>2022-01-24T14:28:52Z</time>
      </trkpt>
      <trkpt lat="43.14928" lon="5.87035">
        <ele>158.4</ele>
        <time>2022-01-24T14:28:56Z</time>
      </trkpt>
      <trkpt lat="43.14938" lon="5.87043">
        <ele>157.4</ele>
        <time>2022-01-24T14:29:00Z</time>
      </trkpt>
      <trkpt lat="43.14946" lon="5.87048">
        <ele>156</ele>
        <time>2022-01-24T14:29:03Z</time>
      </trkpt>
      <trkpt lat="43.14959" lon="5.87051">
        <ele>154.8</ele>
        <time>2022-01-24T14:29:07Z</time>
      </trkpt>
      <trkpt lat="43.14965" lon="5.8705">
        <ele>153.8</ele>
        <time>2022-01-24T14:29:09Z</time>
      </trkpt>
      <trkpt lat="43.14972" lon="5.8705">
        <ele>152.8</ele>
        <time>2022-01-24T14:29:11Z</time>
      </trkpt>
      <trkpt lat="43.14981" lon="5.87047">
        <ele>151.2</ele>
        <time>2022-01-24T14:29:14Z</time>
      </trkpt>
      <trkpt lat="43.1499" lon="5.87047">
        <ele>150</ele>
        <time>2022-01-24T14:29:17Z</time>
      </trkpt>
      <trkpt lat="43.14994" lon="5.87048">
        <ele>149</ele>
        <time>2022-01-24T14:29:19Z</time>
      </trkpt>
      <trkpt lat="43.14999" lon="5.87049">
        <ele>147.6</ele>
        <time>2022-01-24T14:29:21Z</time>
      </trkpt>
      <trkpt lat="43.15005" lon="5.87051">
        <ele>146.4</ele>
        <time>2022-01-24T14:29:23Z</time>
      </trkpt>
      <trkpt lat="43.15011" lon="5.87053">
        <ele>145.4</ele>
        <time>2022-01-24T14:29:25Z</time>
      </trkpt>
      <trkpt lat="43.15012" lon="5.87056">
        <ele>145</ele>
        <time>2022-01-24T14:29:26Z</time>
      </trkpt>
      <trkpt lat="43.15009" lon="5.8706">
        <ele>143.8</ele>
        <time>2022-01-24T14:29:29Z</time>
      </trkpt>
      <trkpt lat="43.15001" lon="5.87067">
        <ele>142.8</ele>
        <time>2022-01-24T14:29:32Z</time>
      </trkpt>
      <trkpt lat="43.14991" lon="5.87076">
        <ele>141.8</ele>
        <time>2022-01-24T14:29:35Z</time>
      </trkpt>
      <trkpt lat="43.14971" lon="5.8709">
        <ele>140.4</ele>
        <time>2022-01-24T14:29:39Z</time>
      </trkpt>
      <trkpt lat="43.14959" lon="5.87097">
        <ele>139.8</ele>
        <time>2022-01-24T14:29:41Z</time>
      </trkpt>
      <trkpt lat="43.14947" lon="5.87103">
        <ele>138.8</ele>
        <time>2022-01-24T14:29:43Z</time>
      </trkpt>
      <trkpt lat="43.14931" lon="5.87108">
        <ele>137.2</ele>
        <time>2022-01-24T14:29:46Z</time>
      </trkpt>
      <trkpt lat="43.14923" lon="5.87111">
        <ele>135.8</ele>
        <time>2022-01-24T14:29:48Z</time>
      </trkpt>
      <trkpt lat="43.14915" lon="5.87112">
        <ele>134.2</ele>
        <time>2022-01-24T14:29:51Z</time>
      </trkpt>
      <trkpt lat="43.1491" lon="5.8711">
        <ele>132.8</ele>
        <time>2022-01-24T14:29:53Z</time>
      </trkpt>
      <trkpt lat="43.14901" lon="5.8711">
        <ele>131.6</ele>
        <time>2022-01-24T14:29:55Z</time>
      </trkpt>
      <trkpt lat="43.14882" lon="5.8711">
        <ele>130.6</ele>
        <time>2022-01-24T14:29:59Z</time>
      </trkpt>
      <trkpt lat="43.14866" lon="5.87108">
        <ele>129.4</ele>
        <time>2022-01-24T14:30:02Z</time>
      </trkpt>
      <trkpt lat="43.14846" lon="5.87109">
        <ele>128.4</ele>
        <time>2022-01-24T14:30:05Z</time>
      </trkpt>
      <trkpt lat="43.14828" lon="5.87108">
        <ele>127.2</ele>
        <time>2022-01-24T14:30:08Z</time>
      </trkpt>
      <trkpt lat="43.14802" lon="5.87103">
        <ele>125.8</ele>
        <time>2022-01-24T14:30:12Z</time>
      </trkpt>
      <trkpt lat="43.14787" lon="5.87101">
        <ele>125.2</ele>
        <time>2022-01-24T14:30:14Z</time>
      </trkpt>
      <trkpt lat="43.14779" lon="5.871">
        <ele>124.8</ele>
        <time>2022-01-24T14:30:15Z</time>
      </trkpt>
      <trkpt lat="43.14765" lon="5.87104">
        <ele>123.2</ele>
        <time>2022-01-24T14:30:17Z</time>
      </trkpt>
      <trkpt lat="43.14744" lon="5.87126">
        <ele>122</ele>
        <time>2022-01-24T14:30:21Z</time>
      </trkpt>
      <trkpt lat="43.14736" lon="5.87154">
        <ele>120.6</ele>
        <time>2022-01-24T14:30:24Z</time>
      </trkpt>
      <trkpt lat="43.14734" lon="5.87164">
        <ele>120.2</ele>
        <time>2022-01-24T14:30:25Z</time>
      </trkpt>
      <trkpt lat="43.14732" lon="5.87175">
        <ele>119.6</ele>
        <time>2022-01-24T14:30:26Z</time>
      </trkpt>
      <trkpt lat="43.14726" lon="5.87209">
        <ele>118</ele>
        <time>2022-01-24T14:30:29Z</time>
      </trkpt>
      <trkpt lat="43.14723" lon="5.87245">
        <ele>117</ele>
        <time>2022-01-24T14:30:32Z</time>
      </trkpt>
      <trkpt lat="43.1472" lon="5.87268">
        <ele>116</ele>
        <time>2022-01-24T14:30:34Z</time>
      </trkpt>
      <trkpt lat="43.14718" lon="5.87289">
        <ele>114.6</ele>
        <time>2022-01-24T14:30:36Z</time>
      </trkpt>
      <trkpt lat="43.14717" lon="5.87311">
        <ele>113.2</ele>
        <time>2022-01-24T14:30:39Z</time>
      </trkpt>
      <trkpt lat="43.14716" lon="5.87317">
        <ele>112.8</ele>
        <time>2022-01-24T14:30:41Z</time>
      </trkpt>
      <trkpt lat="43.14716" lon="5.8732">
        <ele>112.2</ele>
        <time>2022-01-24T14:30:43Z</time>
      </trkpt>
      <trkpt lat="43.14718" lon="5.87328">
        <ele>110.8</ele>
        <time>2022-01-24T14:30:46Z</time>
      </trkpt>
      <trkpt lat="43.14729" lon="5.87352">
        <ele>109.8</ele>
        <time>2022-01-24T14:30:51Z</time>
      </trkpt>
      <trkpt lat="43.14733" lon="5.87376">
        <ele>109.4</ele>
        <time>2022-01-24T14:30:56Z</time>
      </trkpt>
      <trkpt lat="43.14734" lon="5.87385">
        <ele>109.2</ele>
        <time>2022-01-24T14:30:58Z</time>
      </trkpt>
      <trkpt lat="43.14744" lon="5.87428">
        <ele>109.6</ele>
        <time>2022-01-24T14:31:09Z</time>
      </trkpt>
      <trkpt lat="43.14749" lon="5.87427">
        <ele>109.8</ele>
        <time>2022-01-24T14:31:13Z</time>
      </trkpt>
      <trkpt lat="43.1475" lon="5.87419">
        <ele>110.4</ele>
        <time>2022-01-24T14:31:16Z</time>
      </trkpt>
      <trkpt lat="43.14752" lon="5.87416">
        <ele>110.8</ele>
        <time>2022-01-24T14:31:19Z</time>
      </trkpt>
      <trkpt lat="43.14754" lon="5.8741">
        <ele>111.4</ele>
        <time>2022-01-24T14:31:22Z</time>
      </trkpt>
      <trkpt lat="43.14754" lon="5.87408">
        <ele>111.8</ele>
        <time>2022-01-24T14:31:23Z</time>
      </trkpt>
      <trkpt lat="43.14754" lon="5.87402">
        <ele>113.2</ele>
        <time>2022-01-24T14:31:26Z</time>
      </trkpt>
      <trkpt lat="43.14754" lon="5.87393">
        <ele>114.2</ele>
        <time>2022-01-24T14:31:30Z</time>
      </trkpt>
      <trkpt lat="43.14754" lon="5.87383">
        <ele>115.4</ele>
        <time>2022-01-24T14:31:34Z</time>
      </trkpt>
      <trkpt lat="43.14756" lon="5.87373">
        <ele>116.6</ele>
        <time>2022-01-24T14:31:38Z</time>
      </trkpt>
      <trkpt lat="43.14759" lon="5.87367">
        <ele>117.6</ele>
        <time>2022-01-24T14:31:42Z</time>
      </trkpt>
      <trkpt lat="43.14763" lon="5.87371">
        <ele>118.8</ele>
        <time>2022-01-24T14:31:45Z</time>
      </trkpt>
      <trkpt lat="43.14766" lon="5.87373">
        <ele>119.8</ele>
        <time>2022-01-24T14:31:48Z</time>
      </trkpt>
      <trkpt lat="43.14769" lon="5.87378">
        <ele>120.8</ele>
        <time>2022-01-24T14:31:51Z</time>
      </trkpt>
      <trkpt lat="43.14775" lon="5.87384">
        <ele>122.2</ele>
        <time>2022-01-24T14:31:55Z</time>
      </trkpt>
      <trkpt lat="43.14781" lon="5.87391">
        <ele>123.2</ele>
        <time>2022-01-24T14:31:59Z</time>
      </trkpt>
      <trkpt lat="43.14785" lon="5.87397">
        <ele>124.4</ele>
        <time>2022-01-24T14:32:02Z</time>
      </trkpt>
      <trkpt lat="43.14793" lon="5.87404">
        <ele>125.4</ele>
        <time>2022-01-24T14:32:06Z</time>
      </trkpt>
      <trkpt lat="43.14801" lon="5.87413">
        <ele>126.6</ele>
        <time>2022-01-24T14:32:11Z</time>
      </trkpt>
      <trkpt lat="43.14807" lon="5.8742">
        <ele>127.6</ele>
        <time>2022-01-24T14:32:15Z</time>
      </trkpt>
      <trkpt lat="43.14811" lon="5.87427">
        <ele>128.8</ele>
        <time>2022-01-24T14:32:18Z</time>
      </trkpt>
      <trkpt lat="43.14815" lon="5.87437">
        <ele>129.8</ele>
        <time>2022-01-24T14:32:22Z</time>
      </trkpt>
      <trkpt lat="43.14816" lon="5.87452">
        <ele>130.8</ele>
        <time>2022-01-24T14:32:28Z</time>
      </trkpt>
      <trkpt lat="43.14819" lon="5.87468">
        <ele>132</ele>
        <time>2022-01-24T14:32:33Z</time>
      </trkpt>
      <trkpt lat="43.14823" lon="5.87482">
        <ele>133.2</ele>
        <time>2022-01-24T14:32:37Z</time>
      </trkpt>
      <trkpt lat="43.14825" lon="5.87493">
        <ele>134.4</ele>
        <time>2022-01-24T14:32:41Z</time>
      </trkpt>
      <trkpt lat="43.14827" lon="5.87507">
        <ele>135.6</ele>
        <time>2022-01-24T14:32:46Z</time>
      </trkpt>
      <trkpt lat="43.1483" lon="5.8752">
        <ele>136.6</ele>
        <time>2022-01-24T14:32:51Z</time>
      </trkpt>
      <trkpt lat="43.14831" lon="5.87533">
        <ele>137.8</ele>
        <time>2022-01-24T14:32:56Z</time>
      </trkpt>
      <trkpt lat="43.14832" lon="5.87543">
        <ele>139</ele>
        <time>2022-01-24T14:33:00Z</time>
      </trkpt>
      <trkpt lat="43.14834" lon="5.87553">
        <ele>140.4</ele>
        <time>2022-01-24T14:33:04Z</time>
      </trkpt>
      <trkpt lat="43.14836" lon="5.87563">
        <ele>141.8</ele>
        <time>2022-01-24T14:33:08Z</time>
      </trkpt>
      <trkpt lat="43.14838" lon="5.87573">
        <ele>143</ele>
        <time>2022-01-24T14:33:12Z</time>
      </trkpt>
      <trkpt lat="43.14839" lon="5.87583">
        <ele>144</ele>
        <time>2022-01-24T14:33:16Z</time>
      </trkpt>
      <trkpt lat="43.1484" lon="5.87597">
        <ele>145.2</ele>
        <time>2022-01-24T14:33:21Z</time>
      </trkpt>
      <trkpt lat="43.14842" lon="5.87606">
        <ele>146.4</ele>
        <time>2022-01-24T14:33:24Z</time>
      </trkpt>
      <trkpt lat="43.14844" lon="5.87617">
        <ele>147.4</ele>
        <time>2022-01-24T14:33:28Z</time>
      </trkpt>
      <trkpt lat="43.14846" lon="5.87625">
        <ele>148.4</ele>
        <time>2022-01-24T14:33:31Z</time>
      </trkpt>
      <trkpt lat="43.14849" lon="5.87634">
        <ele>149.6</ele>
        <time>2022-01-24T14:33:35Z</time>
      </trkpt>
      <trkpt lat="43.14853" lon="5.87643">
        <ele>150.8</ele>
        <time>2022-01-24T14:33:39Z</time>
      </trkpt>
      <trkpt lat="43.14855" lon="5.8765">
        <ele>152.2</ele>
        <time>2022-01-24T14:33:42Z</time>
      </trkpt>
      <trkpt lat="43.14859" lon="5.87658">
        <ele>153.2</ele>
        <time>2022-01-24T14:33:46Z</time>
      </trkpt>
      <trkpt lat="43.14864" lon="5.87664">
        <ele>154.2</ele>
        <time>2022-01-24T14:33:50Z</time>
      </trkpt>
      <trkpt lat="43.1487" lon="5.87668">
        <ele>155.4</ele>
        <time>2022-01-24T14:33:54Z</time>
      </trkpt>
      <trkpt lat="43.14875" lon="5.87666">
        <ele>156.4</ele>
        <time>2022-01-24T14:33:57Z</time>
      </trkpt>
      <trkpt lat="43.14881" lon="5.87665">
        <ele>157.8</ele>
        <time>2022-01-24T14:34:01Z</time>
      </trkpt>
      <trkpt lat="43.14885" lon="5.87667">
        <ele>159</ele>
        <time>2022-01-24T14:34:04Z</time>
      </trkpt>
      <trkpt lat="43.14891" lon="5.87673">
        <ele>160.2</ele>
        <time>2022-01-24T14:34:08Z</time>
      </trkpt>
      <trkpt lat="43.14898" lon="5.87678">
        <ele>161.4</ele>
        <time>2022-01-24T14:34:12Z</time>
      </trkpt>
      <trkpt lat="43.14907" lon="5.87686">
        <ele>162.4</ele>
        <time>2022-01-24T14:34:18Z</time>
      </trkpt>
      <trkpt lat="43.14923" lon="5.87691">
        <ele>163.6</ele>
        <time>2022-01-24T14:34:25Z</time>
      </trkpt>
      <trkpt lat="43.14946" lon="5.87697">
        <ele>164.4</ele>
        <time>2022-01-24T14:34:36Z</time>
      </trkpt>
      <trkpt lat="43.14954" lon="5.87702">
        <ele>165.6</ele>
        <time>2022-01-24T14:34:40Z</time>
      </trkpt>
      <trkpt lat="43.14992" lon="5.87694">
        <ele>164.4</ele>
        <time>2022-01-24T14:34:57Z</time>
      </trkpt>
      <trkpt lat="43.14999" lon="5.8769">
        <ele>163.2</ele>
        <time>2022-01-24T14:35:11Z</time>
      </trkpt>
      <trkpt lat="43.15048" lon="5.87657">
        <ele>163.2</ele>
        <time>2022-01-24T14:35:32Z</time>
      </trkpt>
      <trkpt lat="43.1505" lon="5.87657">
        <ele>163.8</ele>
        <time>2022-01-24T14:35:33Z</time>
      </trkpt>
      <trkpt lat="43.15054" lon="5.87656">
        <ele>164.4</ele>
        <time>2022-01-24T14:35:35Z</time>
      </trkpt>
      <trkpt lat="43.15063" lon="5.87654">
        <ele>165.4</ele>
        <time>2022-01-24T14:35:39Z</time>
      </trkpt>
      <trkpt lat="43.15079" lon="5.87657">
        <ele>165.6</ele>
        <time>2022-01-24T14:35:44Z</time>
      </trkpt>
      <trkpt lat="43.15074" lon="5.87678">
        <ele>165</ele>
        <time>2022-01-24T14:35:50Z</time>
      </trkpt>
      <trkpt lat="43.15065" lon="5.87691">
        <ele>164.4</ele>
        <time>2022-01-24T14:35:53Z</time>
      </trkpt>
      <trkpt lat="43.15063" lon="5.87696">
        <ele>164.2</ele>
        <time>2022-01-24T14:35:54Z</time>
      </trkpt>
      <trkpt lat="43.15061" lon="5.87719">
        <ele>163.4</ele>
        <time>2022-01-24T14:35:59Z</time>
      </trkpt>
      <trkpt lat="43.15063" lon="5.87783">
        <ele>165.2</ele>
        <time>2022-01-24T14:36:19Z</time>
      </trkpt>
      <trkpt lat="43.15067" lon="5.87802">
        <ele>166</ele>
        <time>2022-01-24T14:36:25Z</time>
      </trkpt>
      <trkpt lat="43.15072" lon="5.87814">
        <ele>167</ele>
        <time>2022-01-24T14:36:29Z</time>
      </trkpt>
      <trkpt lat="43.15077" lon="5.87828">
        <ele>168</ele>
        <time>2022-01-24T14:36:34Z</time>
      </trkpt>
      <trkpt lat="43.15083" lon="5.87839">
        <ele>169.2</ele>
        <time>2022-01-24T14:36:38Z</time>
      </trkpt>
      <trkpt lat="43.15091" lon="5.87857">
        <ele>170.2</ele>
        <time>2022-01-24T14:36:44Z</time>
      </trkpt>
      <trkpt lat="43.15092" lon="5.87859">
        <ele>170.2</ele>
        <time>2022-01-24T14:36:45Z</time>
      </trkpt>
      <trkpt lat="43.15093" lon="5.87864">
        <ele>171.4</ele>
        <time>2022-01-24T14:36:53Z</time>
      </trkpt>
      <trkpt lat="43.15093" lon="5.87864">
        <ele>171.6</ele>
        <time>2022-01-24T14:36:59Z</time>
      </trkpt>
      <trkpt lat="43.15092" lon="5.8787">
        <ele>171.8</ele>
        <time>2022-01-24T14:37:05Z</time>
      </trkpt>
      <trkpt lat="43.15085" lon="5.87884">
        <ele>172</ele>
        <time>2022-01-24T14:37:10Z</time>
      </trkpt>
      <trkpt lat="43.15084" lon="5.87888">
        <ele>172</ele>
        <time>2022-01-24T14:37:11Z</time>
      </trkpt>
      <trkpt lat="43.15073" lon="5.87912">
        <ele>172.2</ele>
        <time>2022-01-24T14:37:18Z</time>
      </trkpt>
      <trkpt lat="43.1507" lon="5.87932">
        <ele>172.2</ele>
        <time>2022-01-24T14:37:23Z</time>
      </trkpt>
      <trkpt lat="43.15069" lon="5.87945">
        <ele>171.8</ele>
        <time>2022-01-24T14:37:26Z</time>
      </trkpt>
      <trkpt lat="43.15077" lon="5.87976">
        <ele>171.6</ele>
        <time>2022-01-24T14:37:34Z</time>
      </trkpt>
      <trkpt lat="43.15089" lon="5.88005">
        <ele>172.2</ele>
        <time>2022-01-24T14:37:42Z</time>
      </trkpt>
      <trkpt lat="43.15093" lon="5.88035">
        <ele>173.2</ele>
        <time>2022-01-24T14:37:50Z</time>
      </trkpt>
      <trkpt lat="43.15113" lon="5.88083">
        <ele>174.2</ele>
        <time>2022-01-24T14:38:03Z</time>
      </trkpt>
      <trkpt lat="43.15126" lon="5.88105">
        <ele>175.4</ele>
        <time>2022-01-24T14:38:11Z</time>
      </trkpt>
      <trkpt lat="43.15135" lon="5.88117">
        <ele>176.4</ele>
        <time>2022-01-24T14:38:16Z</time>
      </trkpt>
      <trkpt lat="43.15143" lon="5.88127">
        <ele>177.6</ele>
        <time>2022-01-24T14:38:20Z</time>
      </trkpt>
      <trkpt lat="43.1515" lon="5.88135">
        <ele>178.6</ele>
        <time>2022-01-24T14:38:24Z</time>
      </trkpt>
      <trkpt lat="43.15151" lon="5.8814">
        <ele>179</ele>
        <time>2022-01-24T14:38:26Z</time>
      </trkpt>
      <trkpt lat="43.15142" lon="5.88147">
        <ele>180.2</ele>
        <time>2022-01-24T14:38:31Z</time>
      </trkpt>
      <trkpt lat="43.15135" lon="5.8815">
        <ele>181.2</ele>
        <time>2022-01-24T14:38:35Z</time>
      </trkpt>
      <trkpt lat="43.15098" lon="5.88158">
        <ele>182.2</ele>
        <time>2022-01-24T14:38:49Z</time>
      </trkpt>
      <trkpt lat="43.15067" lon="5.88161">
        <ele>183.4</ele>
        <time>2022-01-24T14:39:00Z</time>
      </trkpt>
      <trkpt lat="43.1505" lon="5.88166">
        <ele>184.4</ele>
        <time>2022-01-24T14:39:08Z</time>
      </trkpt>
      <trkpt lat="43.15047" lon="5.88171">
        <ele>184.8</ele>
        <time>2022-01-24T14:39:11Z</time>
      </trkpt>
      <trkpt lat="43.1504" lon="5.88174">
        <ele>185.6</ele>
        <time>2022-01-24T14:39:14Z</time>
      </trkpt>
      <trkpt lat="43.15038" lon="5.88175">
        <ele>185.8</ele>
        <time>2022-01-24T14:39:15Z</time>
      </trkpt>
      <trkpt lat="43.15029" lon="5.88179">
        <ele>186.8</ele>
        <time>2022-01-24T14:39:18Z</time>
      </trkpt>
      <trkpt lat="43.15008" lon="5.88222">
        <ele>187</ele>
        <time>2022-01-24T14:39:33Z</time>
      </trkpt>
      <trkpt lat="43.14995" lon="5.88259">
        <ele>185.8</ele>
        <time>2022-01-24T14:39:46Z</time>
      </trkpt>
      <trkpt lat="43.1499" lon="5.88273">
        <ele>184.4</ele>
        <time>2022-01-24T14:39:50Z</time>
      </trkpt>
      <trkpt lat="43.14989" lon="5.88283">
        <ele>183.2</ele>
        <time>2022-01-24T14:39:52Z</time>
      </trkpt>
      <trkpt lat="43.14988" lon="5.88287">
        <ele>182.4</ele>
        <time>2022-01-24T14:39:53Z</time>
      </trkpt>
      <trkpt lat="43.14987" lon="5.88291">
        <ele>182</ele>
        <time>2022-01-24T14:39:54Z</time>
      </trkpt>
      <trkpt lat="43.14984" lon="5.88301">
        <ele>180.6</ele>
        <time>2022-01-24T14:39:57Z</time>
      </trkpt>
      <trkpt lat="43.14987" lon="5.88305">
        <ele>179.4</ele>
        <time>2022-01-24T14:39:59Z</time>
      </trkpt>
      <trkpt lat="43.14991" lon="5.88308">
        <ele>178.2</ele>
        <time>2022-01-24T14:40:01Z</time>
      </trkpt>
      <trkpt lat="43.14996" lon="5.88309">
        <ele>177.4</ele>
        <time>2022-01-24T14:40:03Z</time>
      </trkpt>
      <trkpt lat="43.14998" lon="5.8831">
        <ele>177</ele>
        <time>2022-01-24T14:40:04Z</time>
      </trkpt>
      <trkpt lat="43.1503" lon="5.88318">
        <ele>177.6</ele>
        <time>2022-01-24T14:40:17Z</time>
      </trkpt>
      <trkpt lat="43.15032" lon="5.88319">
        <ele>178</ele>
        <time>2022-01-24T14:40:18Z</time>
      </trkpt>
      <trkpt lat="43.15041" lon="5.88322">
        <ele>179.2</ele>
        <time>2022-01-24T14:40:22Z</time>
      </trkpt>
      <trkpt lat="43.15047" lon="5.88327">
        <ele>180.4</ele>
        <time>2022-01-24T14:40:25Z</time>
      </trkpt>
      <trkpt lat="43.15055" lon="5.88332">
        <ele>181.4</ele>
        <time>2022-01-24T14:40:28Z</time>
      </trkpt>
      <trkpt lat="43.15063" lon="5.88336">
        <ele>182.8</ele>
        <time>2022-01-24T14:40:31Z</time>
      </trkpt>
      <trkpt lat="43.15073" lon="5.8834">
        <ele>183.8</ele>
        <time>2022-01-24T14:40:35Z</time>
      </trkpt>
      <trkpt lat="43.15082" lon="5.88341">
        <ele>184.6</ele>
        <time>2022-01-24T14:40:39Z</time>
      </trkpt>
      <trkpt lat="43.15095" lon="5.88348">
        <ele>185.6</ele>
        <time>2022-01-24T14:40:45Z</time>
      </trkpt>
      <trkpt lat="43.15099" lon="5.88355">
        <ele>185.8</ele>
        <time>2022-01-24T14:40:47Z</time>
      </trkpt>
      <trkpt lat="43.15136" lon="5.88369">
        <ele>185.4</ele>
        <time>2022-01-24T14:40:56Z</time>
      </trkpt>
      <trkpt lat="43.15139" lon="5.88372">
        <ele>184.2</ele>
        <time>2022-01-24T14:40:59Z</time>
      </trkpt>
      <trkpt lat="43.15149" lon="5.88375">
        <ele>183.2</ele>
        <time>2022-01-24T14:41:03Z</time>
      </trkpt>
      <trkpt lat="43.15178" lon="5.88388">
        <ele>183.4</ele>
        <time>2022-01-24T14:41:13Z</time>
      </trkpt>
      <trkpt lat="43.1521" lon="5.88407">
        <ele>184.2</ele>
        <time>2022-01-24T14:41:25Z</time>
      </trkpt>
      <trkpt lat="43.15217" lon="5.88418">
        <ele>185</ele>
        <time>2022-01-24T14:41:29Z</time>
      </trkpt>
      <trkpt lat="43.15221" lon="5.88418">
        <ele>185.4</ele>
        <time>2022-01-24T14:41:31Z</time>
      </trkpt>
      <trkpt lat="43.15254" lon="5.88408">
        <ele>185.2</ele>
        <time>2022-01-24T14:41:46Z</time>
      </trkpt>
      <trkpt lat="43.15311" lon="5.8841">
        <ele>184.8</ele>
        <time>2022-01-24T14:42:02Z</time>
      </trkpt>
      <trkpt lat="43.15319" lon="5.88412">
        <ele>184.4</ele>
        <time>2022-01-24T14:42:04Z</time>
      </trkpt>
      <trkpt lat="43.15333" lon="5.88422">
        <ele>184.2</ele>
        <time>2022-01-24T14:42:08Z</time>
      </trkpt>
      <trkpt lat="43.15361" lon="5.88443">
        <ele>184.4</ele>
        <time>2022-01-24T14:42:18Z</time>
      </trkpt>
      <trkpt lat="43.15385" lon="5.88455">
        <ele>184.2</ele>
        <time>2022-01-24T14:42:24Z</time>
      </trkpt>
      <trkpt lat="43.15384" lon="5.88457">
        <ele>183.8</ele>
        <time>2022-01-24T14:42:26Z</time>
      </trkpt>
      <trkpt lat="43.15379" lon="5.88457">
        <ele>183.4</ele>
        <time>2022-01-24T14:42:28Z</time>
      </trkpt>
      <trkpt lat="43.15372" lon="5.88456">
        <ele>182</ele>
        <time>2022-01-24T14:42:31Z</time>
      </trkpt>
      <trkpt lat="43.15357" lon="5.88456">
        <ele>180.8</ele>
        <time>2022-01-24T14:42:36Z</time>
      </trkpt>
      <trkpt lat="43.15348" lon="5.88455">
        <ele>179.8</ele>
        <time>2022-01-24T14:42:39Z</time>
      </trkpt>
      <trkpt lat="43.15338" lon="5.88451">
        <ele>178.4</ele>
        <time>2022-01-24T14:42:42Z</time>
      </trkpt>
      <trkpt lat="43.15329" lon="5.88445">
        <ele>177.4</ele>
        <time>2022-01-24T14:42:45Z</time>
      </trkpt>
      <trkpt lat="43.15322" lon="5.88443">
        <ele>176.2</ele>
        <time>2022-01-24T14:42:47Z</time>
      </trkpt>
      <trkpt lat="43.15316" lon="5.88441">
        <ele>175</ele>
        <time>2022-01-24T14:42:49Z</time>
      </trkpt>
      <trkpt lat="43.15306" lon="5.8844">
        <ele>173.4</ele>
        <time>2022-01-24T14:42:52Z</time>
      </trkpt>
      <trkpt lat="43.15298" lon="5.8844">
        <ele>172</ele>
        <time>2022-01-24T14:42:54Z</time>
      </trkpt>
      <trkpt lat="43.15294" lon="5.8844">
        <ele>170.6</ele>
        <time>2022-01-24T14:42:56Z</time>
      </trkpt>
      <trkpt lat="43.15284" lon="5.88442">
        <ele>168.6</ele>
        <time>2022-01-24T14:42:59Z</time>
      </trkpt>
      <trkpt lat="43.15273" lon="5.88447">
        <ele>167.4</ele>
        <time>2022-01-24T14:43:02Z</time>
      </trkpt>
      <trkpt lat="43.15269" lon="5.8845">
        <ele>167</ele>
        <time>2022-01-24T14:43:03Z</time>
      </trkpt>
      <trkpt lat="43.15256" lon="5.88456">
        <ele>165.8</ele>
        <time>2022-01-24T14:43:06Z</time>
      </trkpt>
      <trkpt lat="43.15243" lon="5.88462">
        <ele>164.6</ele>
        <time>2022-01-24T14:43:09Z</time>
      </trkpt>
      <trkpt lat="43.15238" lon="5.88465">
        <ele>164.4</ele>
        <time>2022-01-24T14:43:10Z</time>
      </trkpt>
      <trkpt lat="43.1523" lon="5.88469">
        <ele>163.4</ele>
        <time>2022-01-24T14:43:12Z</time>
      </trkpt>
      <trkpt lat="43.15222" lon="5.88476">
        <ele>162</ele>
        <time>2022-01-24T14:43:15Z</time>
      </trkpt>
      <trkpt lat="43.15211" lon="5.88482">
        <ele>160.6</ele>
        <time>2022-01-24T14:43:18Z</time>
      </trkpt>
      <trkpt lat="43.15204" lon="5.88483">
        <ele>160</ele>
        <time>2022-01-24T14:43:21Z</time>
      </trkpt>
      <trkpt lat="43.152" lon="5.88483">
        <ele>159.6</ele>
        <time>2022-01-24T14:43:23Z</time>
      </trkpt>
      <trkpt lat="43.15194" lon="5.88485">
        <ele>158.6</ele>
        <time>2022-01-24T14:43:25Z</time>
      </trkpt>
      <trkpt lat="43.15193" lon="5.88487">
        <ele>158.4</ele>
        <time>2022-01-24T14:43:26Z</time>
      </trkpt>
      <trkpt lat="43.15195" lon="5.88492">
        <ele>156.6</ele>
        <time>2022-01-24T14:43:29Z</time>
      </trkpt>
      <trkpt lat="43.15198" lon="5.88497">
        <ele>155.6</ele>
        <time>2022-01-24T14:43:31Z</time>
      </trkpt>
      <trkpt lat="43.15202" lon="5.88505">
        <ele>154.6</ele>
        <time>2022-01-24T14:43:33Z</time>
      </trkpt>
      <trkpt lat="43.15202" lon="5.88513">
        <ele>153.8</ele>
        <time>2022-01-24T14:43:35Z</time>
      </trkpt>
      <trkpt lat="43.15188" lon="5.88514">
        <ele>153.2</ele>
        <time>2022-01-24T14:43:40Z</time>
      </trkpt>
      <trkpt lat="43.15179" lon="5.88503">
        <ele>151.8</ele>
        <time>2022-01-24T14:43:43Z</time>
      </trkpt>
      <trkpt lat="43.1517" lon="5.88498">
        <ele>150.6</ele>
        <time>2022-01-24T14:43:45Z</time>
      </trkpt>
      <trkpt lat="43.15164" lon="5.88497">
        <ele>150.2</ele>
        <time>2022-01-24T14:43:46Z</time>
      </trkpt>
      <trkpt lat="43.15158" lon="5.88495">
        <ele>149.6</ele>
        <time>2022-01-24T14:43:47Z</time>
      </trkpt>
      <trkpt lat="43.15149" lon="5.88493">
        <ele>148.4</ele>
        <time>2022-01-24T14:43:49Z</time>
      </trkpt>
      <trkpt lat="43.15141" lon="5.88489">
        <ele>147</ele>
        <time>2022-01-24T14:43:51Z</time>
      </trkpt>
      <trkpt lat="43.15137" lon="5.88486">
        <ele>146.4</ele>
        <time>2022-01-24T14:43:52Z</time>
      </trkpt>
      <trkpt lat="43.15131" lon="5.88483">
        <ele>145.8</ele>
        <time>2022-01-24T14:43:53Z</time>
      </trkpt>
      <trkpt lat="43.15125" lon="5.8848">
        <ele>145</ele>
        <time>2022-01-24T14:43:54Z</time>
      </trkpt>
      <trkpt lat="43.15119" lon="5.88479">
        <ele>144.2</ele>
        <time>2022-01-24T14:43:55Z</time>
      </trkpt>
      <trkpt lat="43.15111" lon="5.88478">
        <ele>142.6</ele>
        <time>2022-01-24T14:43:57Z</time>
      </trkpt>
      <trkpt lat="43.15102" lon="5.88474">
        <ele>141.4</ele>
        <time>2022-01-24T14:43:59Z</time>
      </trkpt>
      <trkpt lat="43.15097" lon="5.88472">
        <ele>140.6</ele>
        <time>2022-01-24T14:44:00Z</time>
      </trkpt>
      <trkpt lat="43.15091" lon="5.88469">
        <ele>140</ele>
        <time>2022-01-24T14:44:01Z</time>
      </trkpt>
      <trkpt lat="43.15086" lon="5.88467">
        <ele>138.8</ele>
        <time>2022-01-24T14:44:02Z</time>
      </trkpt>
      <trkpt lat="43.15076" lon="5.88462">
        <ele>137.6</ele>
        <time>2022-01-24T14:44:04Z</time>
      </trkpt>
      <trkpt lat="43.1507" lon="5.88458">
        <ele>136.6</ele>
        <time>2022-01-24T14:44:06Z</time>
      </trkpt>
      <trkpt lat="43.15062" lon="5.88455">
        <ele>136.2</ele>
        <time>2022-01-24T14:44:09Z</time>
      </trkpt>
      <trkpt lat="43.15047" lon="5.88452">
        <ele>136</ele>
        <time>2022-01-24T14:44:14Z</time>
      </trkpt>
      <trkpt lat="43.15023" lon="5.88442">
        <ele>137.6</ele>
        <time>2022-01-24T14:44:22Z</time>
      </trkpt>
      <trkpt lat="43.15012" lon="5.88444">
        <ele>138</ele>
        <time>2022-01-24T14:44:25Z</time>
      </trkpt>
      <trkpt lat="43.14972" lon="5.88437">
        <ele>137.8</ele>
        <time>2022-01-24T14:44:33Z</time>
      </trkpt>
      <trkpt lat="43.1494" lon="5.88453">
        <ele>136.6</ele>
        <time>2022-01-24T14:44:43Z</time>
      </trkpt>
      <trkpt lat="43.14935" lon="5.88456">
        <ele>136.6</ele>
        <time>2022-01-24T14:44:44Z</time>
      </trkpt>
      <trkpt lat="43.14911" lon="5.88472">
        <ele>136.2</ele>
        <time>2022-01-24T14:44:49Z</time>
      </trkpt>
      <trkpt lat="43.14894" lon="5.88484">
        <ele>135.6</ele>
        <time>2022-01-24T14:44:52Z</time>
      </trkpt>
      <trkpt lat="43.14887" lon="5.88488">
        <ele>135.4</ele>
        <time>2022-01-24T14:44:53Z</time>
      </trkpt>
      <trkpt lat="43.14871" lon="5.88485">
        <ele>133.8</ele>
        <time>2022-01-24T14:44:56Z</time>
      </trkpt>
      <trkpt lat="43.14865" lon="5.88475">
        <ele>132.4</ele>
        <time>2022-01-24T14:44:59Z</time>
      </trkpt>
      <trkpt lat="43.14863" lon="5.88475">
        <ele>130.6</ele>
        <time>2022-01-24T14:45:01Z</time>
      </trkpt>
      <trkpt lat="43.14861" lon="5.88474">
        <ele>129</ele>
        <time>2022-01-24T14:45:03Z</time>
      </trkpt>
      <trkpt lat="43.14858" lon="5.88473">
        <ele>127.8</ele>
        <time>2022-01-24T14:45:05Z</time>
      </trkpt>
      <trkpt lat="43.14855" lon="5.88471">
        <ele>126.6</ele>
        <time>2022-01-24T14:45:07Z</time>
      </trkpt>
      <trkpt lat="43.14852" lon="5.88472">
        <ele>126.2</ele>
        <time>2022-01-24T14:45:09Z</time>
      </trkpt>
      <trkpt lat="43.1484" lon="5.88481">
        <ele>125.6</ele>
        <time>2022-01-24T14:45:14Z</time>
      </trkpt>
      <trkpt lat="43.14829" lon="5.88511">
        <ele>125.2</ele>
        <time>2022-01-24T14:45:19Z</time>
      </trkpt>
      <trkpt lat="43.14834" lon="5.88534">
        <ele>124.4</ele>
        <time>2022-01-24T14:45:22Z</time>
      </trkpt>
      <trkpt lat="43.14837" lon="5.88543">
        <ele>123.8</ele>
        <time>2022-01-24T14:45:23Z</time>
      </trkpt>
      <trkpt lat="43.14844" lon="5.88561">
        <ele>123</ele>
        <time>2022-01-24T14:45:25Z</time>
      </trkpt>
      <trkpt lat="43.14854" lon="5.88574">
        <ele>121.6</ele>
        <time>2022-01-24T14:45:27Z</time>
      </trkpt>
      <trkpt lat="43.14863" lon="5.88585">
        <ele>120.4</ele>
        <time>2022-01-24T14:45:29Z</time>
      </trkpt>
      <trkpt lat="43.14867" lon="5.88597">
        <ele>119.2</ele>
        <time>2022-01-24T14:45:31Z</time>
      </trkpt>
      <trkpt lat="43.14865" lon="5.88607">
        <ele>117.4</ele>
        <time>2022-01-24T14:45:33Z</time>
      </trkpt>
      <trkpt lat="43.14861" lon="5.88612">
        <ele>116.2</ele>
        <time>2022-01-24T14:45:34Z</time>
      </trkpt>
      <trkpt lat="43.14857" lon="5.88618">
        <ele>115.2</ele>
        <time>2022-01-24T14:45:35Z</time>
      </trkpt>
      <trkpt lat="43.14849" lon="5.88631">
        <ele>113.2</ele>
        <time>2022-01-24T14:45:37Z</time>
      </trkpt>
      <trkpt lat="43.14846" lon="5.88637">
        <ele>112</ele>
        <time>2022-01-24T14:45:38Z</time>
      </trkpt>
      <trkpt lat="43.14841" lon="5.88646">
        <ele>110.6</ele>
        <time>2022-01-24T14:45:40Z</time>
      </trkpt>
      <trkpt lat="43.1484" lon="5.88649">
        <ele>109.4</ele>
        <time>2022-01-24T14:45:42Z</time>
      </trkpt>
      <trkpt lat="43.1484" lon="5.88649">
        <ele>108</ele>
        <time>2022-01-24T14:45:44Z</time>
      </trkpt>
      <trkpt lat="43.14839" lon="5.88649">
        <ele>106.6</ele>
        <time>2022-01-24T14:45:46Z</time>
      </trkpt>
      <trkpt lat="43.14837" lon="5.88655">
        <ele>105.6</ele>
        <time>2022-01-24T14:46:04Z</time>
      </trkpt>
      <trkpt lat="43.14833" lon="5.88683">
        <ele>105.4</ele>
        <time>2022-01-24T14:46:09Z</time>
      </trkpt>
      <trkpt lat="43.14834" lon="5.88725">
        <ele>105</ele>
        <time>2022-01-24T14:46:14Z</time>
      </trkpt>
      <trkpt lat="43.14834" lon="5.88763">
        <ele>104.2</ele>
        <time>2022-01-24T14:46:18Z</time>
      </trkpt>
      <trkpt lat="43.14833" lon="5.88772">
        <ele>104</ele>
        <time>2022-01-24T14:46:19Z</time>
      </trkpt>
      <trkpt lat="43.14827" lon="5.88787">
        <ele>103</ele>
        <time>2022-01-24T14:46:21Z</time>
      </trkpt>
      <trkpt lat="43.14816" lon="5.88797">
        <ele>101.6</ele>
        <time>2022-01-24T14:46:24Z</time>
      </trkpt>
      <trkpt lat="43.14813" lon="5.88804">
        <ele>100.8</ele>
        <time>2022-01-24T14:46:26Z</time>
      </trkpt>
      <trkpt lat="43.14813" lon="5.88806">
        <ele>100.6</ele>
        <time>2022-01-24T14:46:27Z</time>
      </trkpt>
      <trkpt lat="43.14811" lon="5.88806">
        <ele>99</ele>
        <time>2022-01-24T14:46:30Z</time>
      </trkpt>
      <trkpt lat="43.14811" lon="5.88806">
        <ele>97.4</ele>
        <time>2022-01-24T14:46:33Z</time>
      </trkpt>
      <trkpt lat="43.14811" lon="5.88806">
        <ele>97.2</ele>
        <time>2022-01-24T14:46:39Z</time>
      </trkpt>
      <trkpt lat="43.14811" lon="5.88807">
        <ele>97.2</ele>
        <time>2022-01-24T14:46:50Z</time>
      </trkpt>
      <trkpt lat="43.14813" lon="5.88857">
        <ele>97.2</ele>
        <time>2022-01-24T14:47:00Z</time>
      </trkpt>
      <trkpt lat="43.14794" lon="5.88874">
        <ele>96.8</ele>
        <time>2022-01-24T14:47:04Z</time>
      </trkpt>
      <trkpt lat="43.14771" lon="5.88882">
        <ele>96.2</ele>
        <time>2022-01-24T14:47:07Z</time>
      </trkpt>
      <trkpt lat="43.14754" lon="5.88887">
        <ele>95.6</ele>
        <time>2022-01-24T14:47:09Z</time>
      </trkpt>
      <trkpt lat="43.14746" lon="5.88891">
        <ele>95.2</ele>
        <time>2022-01-24T14:47:10Z</time>
      </trkpt>
      <trkpt lat="43.14738" lon="5.88897">
        <ele>94.8</ele>
        <time>2022-01-24T14:47:11Z</time>
      </trkpt>
      <trkpt lat="43.14714" lon="5.88916">
        <ele>93.6</ele>
        <time>2022-01-24T14:47:14Z</time>
      </trkpt>
      <trkpt lat="43.147" lon="5.88929">
        <ele>92.2</ele>
        <time>2022-01-24T14:47:16Z</time>
      </trkpt>
      <trkpt lat="43.14695" lon="5.88935">
        <ele>91.6</ele>
        <time>2022-01-24T14:47:17Z</time>
      </trkpt>
      <trkpt lat="43.1469" lon="5.88943">
        <ele>91</ele>
        <time>2022-01-24T14:47:18Z</time>
      </trkpt>
      <trkpt lat="43.14681" lon="5.88961">
        <ele>89.8</ele>
        <time>2022-01-24T14:47:20Z</time>
      </trkpt>
      <trkpt lat="43.14671" lon="5.88979">
        <ele>88.6</ele>
        <time>2022-01-24T14:47:22Z</time>
      </trkpt>
      <trkpt lat="43.14662" lon="5.88995">
        <ele>87.4</ele>
        <time>2022-01-24T14:47:24Z</time>
      </trkpt>
      <trkpt lat="43.14645" lon="5.89013">
        <ele>86</ele>
        <time>2022-01-24T14:47:27Z</time>
      </trkpt>
      <trkpt lat="43.14631" lon="5.89024">
        <ele>84.6</ele>
        <time>2022-01-24T14:47:29Z</time>
      </trkpt>
      <trkpt lat="43.14616" lon="5.89035">
        <ele>83.4</ele>
        <time>2022-01-24T14:47:31Z</time>
      </trkpt>
      <trkpt lat="43.14607" lon="5.8904">
        <ele>82.8</ele>
        <time>2022-01-24T14:47:32Z</time>
      </trkpt>
      <trkpt lat="43.14598" lon="5.89043">
        <ele>82</ele>
        <time>2022-01-24T14:47:33Z</time>
      </trkpt>
      <trkpt lat="43.1458" lon="5.89048">
        <ele>80.8</ele>
        <time>2022-01-24T14:47:35Z</time>
      </trkpt>
      <trkpt lat="43.14561" lon="5.89054">
        <ele>79.2</ele>
        <time>2022-01-24T14:47:37Z</time>
      </trkpt>
      <trkpt lat="43.14542" lon="5.89062">
        <ele>78</ele>
        <time>2022-01-24T14:47:39Z</time>
      </trkpt>
      <trkpt lat="43.14523" lon="5.8907">
        <ele>77</ele>
        <time>2022-01-24T14:47:41Z</time>
      </trkpt>
      <trkpt lat="43.14495" lon="5.89082">
        <ele>75.6</ele>
        <time>2022-01-24T14:47:44Z</time>
      </trkpt>
      <trkpt lat="43.14475" lon="5.8909">
        <ele>74.4</ele>
        <time>2022-01-24T14:47:46Z</time>
      </trkpt>
      <trkpt lat="43.14455" lon="5.89098">
        <ele>73.2</ele>
        <time>2022-01-24T14:47:48Z</time>
      </trkpt>
      <trkpt lat="43.14435" lon="5.89106">
        <ele>72.2</ele>
        <time>2022-01-24T14:47:50Z</time>
      </trkpt>
      <trkpt lat="43.14416" lon="5.89113">
        <ele>71</ele>
        <time>2022-01-24T14:47:52Z</time>
      </trkpt>
      <trkpt lat="43.14397" lon="5.8912">
        <ele>69.6</ele>
        <time>2022-01-24T14:47:54Z</time>
      </trkpt>
      <trkpt lat="43.14378" lon="5.89126">
        <ele>68.6</ele>
        <time>2022-01-24T14:47:56Z</time>
      </trkpt>
      <trkpt lat="43.1435" lon="5.89137">
        <ele>67</ele>
        <time>2022-01-24T14:47:59Z</time>
      </trkpt>
      <trkpt lat="43.14321" lon="5.8915">
        <ele>65.8</ele>
        <time>2022-01-24T14:48:02Z</time>
      </trkpt>
      <trkpt lat="43.14312" lon="5.89153">
        <ele>64.6</ele>
        <time>2022-01-24T14:48:03Z</time>
      </trkpt>
      <trkpt lat="43.14302" lon="5.89156">
        <ele>63.8</ele>
        <time>2022-01-24T14:48:04Z</time>
      </trkpt>
      <trkpt lat="43.14292" lon="5.89158">
        <ele>63</ele>
        <time>2022-01-24T14:48:05Z</time>
      </trkpt>
      <trkpt lat="43.14273" lon="5.8916">
        <ele>61.8</ele>
        <time>2022-01-24T14:48:07Z</time>
      </trkpt>
      <trkpt lat="43.14265" lon="5.89163">
        <ele>61.2</ele>
        <time>2022-01-24T14:48:08Z</time>
      </trkpt>
      <trkpt lat="43.14257" lon="5.89167">
        <ele>60.6</ele>
        <time>2022-01-24T14:48:09Z</time>
      </trkpt>
      <trkpt lat="43.14236" lon="5.89187">
        <ele>59.2</ele>
        <time>2022-01-24T14:48:12Z</time>
      </trkpt>
      <trkpt lat="43.1422" lon="5.89194">
        <ele>58</ele>
        <time>2022-01-24T14:48:14Z</time>
      </trkpt>
      <trkpt lat="43.14203" lon="5.89199">
        <ele>56.8</ele>
        <time>2022-01-24T14:48:16Z</time>
      </trkpt>
      <trkpt lat="43.14184" lon="5.89205">
        <ele>55.6</ele>
        <time>2022-01-24T14:48:19Z</time>
      </trkpt>
      <trkpt lat="43.14175" lon="5.8921">
        <ele>54.2</ele>
        <time>2022-01-24T14:48:22Z</time>
      </trkpt>
      <trkpt lat="43.14171" lon="5.89214">
        <ele>53.2</ele>
        <time>2022-01-24T14:48:25Z</time>
      </trkpt>
      <trkpt lat="43.1417" lon="5.89223">
        <ele>52.2</ele>
        <time>2022-01-24T14:48:27Z</time>
      </trkpt>
      <trkpt lat="43.14171" lon="5.89234">
        <ele>51.4</ele>
        <time>2022-01-24T14:48:29Z</time>
      </trkpt>
    </trkseg>
  </trk>
</gpx>